<?xml version="1.0" encoding="UTF-8" standalone="no" ?>
<gpx xmlns="http://www.topografix.com/GPX/1/1" xmlns:xsi="http://www.w3.org/2001/XMLSchema-instance" xsi:schemaLocation="http://www.topografix.com/GPX/1/1 http://www.topografix.com/GPX/1/1/gpx.xsd" version="1.1" creator="VisuGPX - https://www.visugpx.com">
  <metadata>
    <name>TDR 52k 2023 croix suchot</name>
  </metadata>
  <wpt lat="46.67438" lon="5.55329">
    <ele>254</ele>
    <name><![CDATA[trail 2020micka50 ok]]></name>
    <type><![CDATA[Generic]]></type>
  </wpt>
  <trk>
    <name><![CDATA[trail 2020micka50 ok]]></name>
    <extensions>
      <line xmlns="http://www.topografix.com/GPX/gpx_style/0/2">
        <color>0000FF</color>
        <width>4</width>
      </line>
    </extensions>
    <trkseg>
      <trkpt lat="46.67438" lon="5.55329">
        <ele>260</ele>
        <time>2019-10-01T18:59:58Z</time>
      </trkpt>
      <trkpt lat="46.67434" lon="5.5531">
        <ele>259.8</ele>
        <time>2019-10-01T19:00:11Z</time>
      </trkpt>
      <trkpt lat="46.67432" lon="5.55311">
        <ele>259.8</ele>
        <time>2019-10-01T19:00:15Z</time>
      </trkpt>
      <trkpt lat="46.67431" lon="5.55313">
        <ele>259.9</ele>
        <time>2019-10-01T19:00:20Z</time>
      </trkpt>
      <trkpt lat="46.67432" lon="5.55314">
        <ele>259.9</ele>
        <time>2019-10-01T19:00:25Z</time>
      </trkpt>
      <trkpt lat="46.67431" lon="5.55313">
        <ele>259.9</ele>
        <time>2019-10-01T19:00:42Z</time>
      </trkpt>
      <trkpt lat="46.67431" lon="5.55314">
        <ele>259.9</ele>
        <time>2019-10-01T19:00:50Z</time>
      </trkpt>
      <trkpt lat="46.6743" lon="5.55312">
        <ele>259.9</ele>
        <time>2019-10-01T19:01:10Z</time>
      </trkpt>
      <trkpt lat="46.6745" lon="5.55339">
        <ele>260</ele>
        <time>2019-10-01T19:01:22Z</time>
      </trkpt>
      <trkpt lat="46.67473" lon="5.55363">
        <ele>259.6</ele>
        <time>2019-10-01T19:01:37Z</time>
      </trkpt>
      <trkpt lat="46.67504" lon="5.55379">
        <ele>258.8</ele>
        <time>2019-10-01T19:01:46Z</time>
      </trkpt>
      <trkpt lat="46.67518" lon="5.55388">
        <ele>258.9</ele>
        <time>2019-10-01T19:01:50Z</time>
      </trkpt>
      <trkpt lat="46.67523" lon="5.55397">
        <ele>258.9</ele>
        <time>2019-10-01T19:01:59Z</time>
      </trkpt>
      <trkpt lat="46.67513" lon="5.55463">
        <ele>260.1</ele>
        <time>2019-10-01T19:02:08Z</time>
      </trkpt>
      <trkpt lat="46.67509" lon="5.55494">
        <ele>260.1</ele>
        <time>2019-10-01T19:02:15Z</time>
      </trkpt>
      <trkpt lat="46.67515" lon="5.55528">
        <ele>260.2</ele>
        <time>2019-10-01T19:02:35Z</time>
      </trkpt>
      <trkpt lat="46.67487" lon="5.55521">
        <ele>259.9</ele>
        <time>2019-10-01T19:02:53Z</time>
      </trkpt>
      <trkpt lat="46.67441" lon="5.5552">
        <ele>259.8</ele>
        <time>2019-10-01T19:03:00Z</time>
      </trkpt>
      <trkpt lat="46.67401" lon="5.5551">
        <ele>259.2</ele>
        <time>2019-10-01T19:03:17Z</time>
      </trkpt>
      <trkpt lat="46.67375" lon="5.55499">
        <ele>259.3</ele>
        <time>2019-10-01T19:03:21Z</time>
      </trkpt>
      <trkpt lat="46.67368" lon="5.55489">
        <ele>259.2</ele>
        <time>2019-10-01T19:03:30Z</time>
      </trkpt>
      <trkpt lat="46.67356" lon="5.55483">
        <ele>259.1</ele>
        <time>2019-10-01T19:03:36Z</time>
      </trkpt>
      <trkpt lat="46.67318" lon="5.5547">
        <ele>259.1</ele>
        <time>2019-10-01T19:03:54Z</time>
      </trkpt>
      <trkpt lat="46.67289" lon="5.55458">
        <ele>259.3</ele>
        <time>2019-10-01T19:04:12Z</time>
      </trkpt>
      <trkpt lat="46.67266" lon="5.55451">
        <ele>259.2</ele>
        <time>2019-10-01T19:04:15Z</time>
      </trkpt>
      <trkpt lat="46.67242" lon="5.5547">
        <ele>259.5</ele>
        <time>2019-10-01T19:04:19Z</time>
      </trkpt>
      <trkpt lat="46.67239" lon="5.55486">
        <ele>259.9</ele>
        <time>2019-10-01T19:04:39Z</time>
      </trkpt>
      <trkpt lat="46.67243" lon="5.55536">
        <ele>259.3</ele>
        <time>2019-10-01T19:04:52Z</time>
      </trkpt>
      <trkpt lat="46.67255" lon="5.55592">
        <ele>258.1</ele>
        <time>2019-10-01T19:04:55Z</time>
      </trkpt>
      <trkpt lat="46.67266" lon="5.55626">
        <ele>258.3</ele>
        <time>2019-10-01T19:05:05Z</time>
      </trkpt>
      <trkpt lat="46.67268" lon="5.55644">
        <ele>258.5</ele>
        <time>2019-10-01T19:05:12Z</time>
      </trkpt>
      <trkpt lat="46.67267" lon="5.55661">
        <ele>258.7</ele>
        <time>2019-10-01T19:05:22Z</time>
      </trkpt>
      <trkpt lat="46.67274" lon="5.55738">
        <ele>259.5</ele>
        <time>2019-10-01T19:05:39Z</time>
      </trkpt>
      <trkpt lat="46.67274" lon="5.55766">
        <ele>259.8</ele>
        <time>2019-10-01T19:05:56Z</time>
      </trkpt>
      <trkpt lat="46.67272" lon="5.55771">
        <ele>259.8</ele>
        <time>2019-10-01T19:06:08Z</time>
      </trkpt>
      <trkpt lat="46.67259" lon="5.5584">
        <ele>260.1</ele>
        <time>2019-10-01T19:06:16Z</time>
      </trkpt>
      <trkpt lat="46.67248" lon="5.55878">
        <ele>261</ele>
        <time>2019-10-01T19:06:35Z</time>
      </trkpt>
      <trkpt lat="46.67249" lon="5.55922">
        <ele>261.1</ele>
        <time>2019-10-01T19:06:44Z</time>
      </trkpt>
      <trkpt lat="46.67243" lon="5.55947">
        <ele>261.5</ele>
        <time>2019-10-01T19:06:58Z</time>
      </trkpt>
      <trkpt lat="46.67244" lon="5.55969">
        <ele>261.5</ele>
        <time>2019-10-01T19:07:00Z</time>
      </trkpt>
      <trkpt lat="46.67231" lon="5.56024">
        <ele>261.5</ele>
        <time>2019-10-01T19:07:19Z</time>
      </trkpt>
      <trkpt lat="46.67203" lon="5.56078">
        <ele>261.9</ele>
        <time>2019-10-01T19:07:22Z</time>
      </trkpt>
      <trkpt lat="46.6719" lon="5.56095">
        <ele>262.8</ele>
        <time>2019-10-01T19:07:30Z</time>
      </trkpt>
      <trkpt lat="46.67191" lon="5.56112">
        <ele>262.9</ele>
        <time>2019-10-01T19:07:50Z</time>
      </trkpt>
      <trkpt lat="46.67182" lon="5.5616">
        <ele>263.9</ele>
        <time>2019-10-01T19:07:58Z</time>
      </trkpt>
      <trkpt lat="46.6718" lon="5.56193">
        <ele>263.9</ele>
        <time>2019-10-01T19:08:18Z</time>
      </trkpt>
      <trkpt lat="46.67169" lon="5.56227">
        <ele>263.8</ele>
        <time>2019-10-01T19:08:31Z</time>
      </trkpt>
      <trkpt lat="46.6714" lon="5.56279">
        <ele>264.4</ele>
        <time>2019-10-01T19:08:43Z</time>
      </trkpt>
      <trkpt lat="46.67137" lon="5.56293">
        <ele>264.4</ele>
        <time>2019-10-01T19:08:47Z</time>
      </trkpt>
      <trkpt lat="46.67118" lon="5.56321">
        <ele>264.8</ele>
        <time>2019-10-01T19:09:00Z</time>
      </trkpt>
      <trkpt lat="46.67114" lon="5.5634">
        <ele>265</ele>
        <time>2019-10-01T19:09:12Z</time>
      </trkpt>
      <trkpt lat="46.67115" lon="5.56376">
        <ele>264.8</ele>
        <time>2019-10-01T19:09:15Z</time>
      </trkpt>
      <trkpt lat="46.67115" lon="5.56414">
        <ele>264.7</ele>
        <time>2019-10-01T19:09:24Z</time>
      </trkpt>
      <trkpt lat="46.67107" lon="5.56448">
        <ele>265.5</ele>
        <time>2019-10-01T19:09:30Z</time>
      </trkpt>
      <trkpt lat="46.67105" lon="5.5646">
        <ele>265.6</ele>
        <time>2019-10-01T19:09:50Z</time>
      </trkpt>
      <trkpt lat="46.67105" lon="5.56478">
        <ele>265.9</ele>
        <time>2019-10-01T19:10:03Z</time>
      </trkpt>
      <trkpt lat="46.67088" lon="5.56528">
        <ele>267.2</ele>
        <time>2019-10-01T19:10:16Z</time>
      </trkpt>
      <trkpt lat="46.67073" lon="5.56563">
        <ele>267.6</ele>
        <time>2019-10-01T19:10:20Z</time>
      </trkpt>
      <trkpt lat="46.67069" lon="5.56569">
        <ele>267.7</ele>
        <time>2019-10-01T19:10:22Z</time>
      </trkpt>
      <trkpt lat="46.67056" lon="5.5662">
        <ele>267.9</ele>
        <time>2019-10-01T19:10:28Z</time>
      </trkpt>
      <trkpt lat="46.67033" lon="5.56669">
        <ele>268</ele>
        <time>2019-10-01T19:10:39Z</time>
      </trkpt>
      <trkpt lat="46.67026" lon="5.56683">
        <ele>268</ele>
        <time>2019-10-01T19:10:41Z</time>
      </trkpt>
      <trkpt lat="46.67024" lon="5.56707">
        <ele>268.1</ele>
        <time>2019-10-01T19:10:44Z</time>
      </trkpt>
      <trkpt lat="46.67034" lon="5.56749">
        <ele>268.1</ele>
        <time>2019-10-01T19:11:00Z</time>
      </trkpt>
      <trkpt lat="46.67019" lon="5.56802">
        <ele>268.5</ele>
        <time>2019-10-01T19:11:11Z</time>
      </trkpt>
      <trkpt lat="46.67014" lon="5.56808">
        <ele>268.5</ele>
        <time>2019-10-01T19:11:29Z</time>
      </trkpt>
      <trkpt lat="46.66998" lon="5.56793">
        <ele>269.8</ele>
        <time>2019-10-01T19:11:40Z</time>
      </trkpt>
      <trkpt lat="46.66971" lon="5.56753">
        <ele>269.9</ele>
        <time>2019-10-01T19:11:55Z</time>
      </trkpt>
      <trkpt lat="46.66959" lon="5.5674">
        <ele>269.2</ele>
        <time>2019-10-01T19:11:58Z</time>
      </trkpt>
      <trkpt lat="46.66928" lon="5.56739">
        <ele>269.9</ele>
        <time>2019-10-01T19:12:14Z</time>
      </trkpt>
      <trkpt lat="46.66913" lon="5.56738">
        <ele>270.8</ele>
        <time>2019-10-01T19:12:24Z</time>
      </trkpt>
      <trkpt lat="46.6689" lon="5.56715">
        <ele>270.4</ele>
        <time>2019-10-01T19:12:35Z</time>
      </trkpt>
      <trkpt lat="46.66882" lon="5.56707">
        <ele>270.3</ele>
        <time>2019-10-01T19:12:45Z</time>
      </trkpt>
      <trkpt lat="46.66863" lon="5.56706">
        <ele>270.6</ele>
        <time>2019-10-01T19:12:53Z</time>
      </trkpt>
      <trkpt lat="46.66836" lon="5.56714">
        <ele>271.3</ele>
        <time>2019-10-01T19:13:04Z</time>
      </trkpt>
      <trkpt lat="46.66832" lon="5.56722">
        <ele>274.4</ele>
        <time>2019-10-01T19:13:07Z</time>
      </trkpt>
      <trkpt lat="46.66812" lon="5.56725">
        <ele>274.9</ele>
        <time>2019-10-01T19:13:12Z</time>
      </trkpt>
      <trkpt lat="46.66765" lon="5.56719">
        <ele>276.7</ele>
        <time>2019-10-01T19:13:30Z</time>
      </trkpt>
      <trkpt lat="46.66758" lon="5.56683">
        <ele>275.7</ele>
        <time>2019-10-01T19:13:50Z</time>
      </trkpt>
      <trkpt lat="46.66739" lon="5.56654">
        <ele>277.5</ele>
        <time>2019-10-01T19:14:00Z</time>
      </trkpt>
      <trkpt lat="46.66738" lon="5.56648">
        <ele>277.7</ele>
        <time>2019-10-01T19:14:04Z</time>
      </trkpt>
      <trkpt lat="46.66739" lon="5.56646">
        <ele>277.7</ele>
        <time>2019-10-01T19:14:16Z</time>
      </trkpt>
      <trkpt lat="46.66719" lon="5.56611">
        <ele>278.3</ele>
        <time>2019-10-01T19:14:19Z</time>
      </trkpt>
      <trkpt lat="46.66706" lon="5.56603">
        <ele>278.9</ele>
        <time>2019-10-01T19:14:30Z</time>
      </trkpt>
      <trkpt lat="46.66693" lon="5.56594">
        <ele>279.7</ele>
        <time>2019-10-01T19:14:59Z</time>
      </trkpt>
      <trkpt lat="46.66691" lon="5.56589">
        <ele>279.9</ele>
        <time>2019-10-01T19:15:05Z</time>
      </trkpt>
      <trkpt lat="46.66669" lon="5.56573">
        <ele>280.4</ele>
        <time>2019-10-01T19:15:24Z</time>
      </trkpt>
      <trkpt lat="46.66647" lon="5.56552">
        <ele>283.6</ele>
        <time>2019-10-01T19:15:44Z</time>
      </trkpt>
      <trkpt lat="46.66637" lon="5.5654">
        <ele>283.9</ele>
        <time>2019-10-01T19:15:55Z</time>
      </trkpt>
      <trkpt lat="46.66618" lon="5.56534">
        <ele>284.5</ele>
        <time>2019-10-01T19:16:00Z</time>
      </trkpt>
      <trkpt lat="46.66577" lon="5.56564">
        <ele>289.1</ele>
        <time>2019-10-01T19:16:18Z</time>
      </trkpt>
      <trkpt lat="46.66558" lon="5.56605">
        <ele>290.9</ele>
        <time>2019-10-01T19:16:29Z</time>
      </trkpt>
      <trkpt lat="46.66557" lon="5.56622">
        <ele>291.3</ele>
        <time>2019-10-01T19:16:31Z</time>
      </trkpt>
      <trkpt lat="46.66526" lon="5.56633">
        <ele>292.6</ele>
        <time>2019-10-01T19:16:51Z</time>
      </trkpt>
      <trkpt lat="46.66513" lon="5.56679">
        <ele>294.4</ele>
        <time>2019-10-01T19:16:59Z</time>
      </trkpt>
      <trkpt lat="46.66495" lon="5.56728">
        <ele>296.4</ele>
        <time>2019-10-01T19:17:04Z</time>
      </trkpt>
      <trkpt lat="46.66486" lon="5.56746">
        <ele>296.2</ele>
        <time>2019-10-01T19:17:13Z</time>
      </trkpt>
      <trkpt lat="46.6648" lon="5.56773">
        <ele>297</ele>
        <time>2019-10-01T19:17:27Z</time>
      </trkpt>
      <trkpt lat="46.66477" lon="5.56817">
        <ele>297.6</ele>
        <time>2019-10-01T19:17:35Z</time>
      </trkpt>
      <trkpt lat="46.66476" lon="5.56861">
        <ele>299.5</ele>
        <time>2019-10-01T19:17:41Z</time>
      </trkpt>
      <trkpt lat="46.66447" lon="5.56897">
        <ele>301.2</ele>
        <time>2019-10-01T19:17:59Z</time>
      </trkpt>
      <trkpt lat="46.66421" lon="5.56889">
        <ele>301.8</ele>
        <time>2019-10-01T19:18:18Z</time>
      </trkpt>
      <trkpt lat="46.66397" lon="5.56862">
        <ele>308.2</ele>
        <time>2019-10-01T19:18:30Z</time>
      </trkpt>
      <trkpt lat="46.66392" lon="5.56853">
        <ele>308.2</ele>
        <time>2019-10-01T19:18:39Z</time>
      </trkpt>
      <trkpt lat="46.66376" lon="5.56845">
        <ele>310.1</ele>
        <time>2019-10-01T19:18:44Z</time>
      </trkpt>
      <trkpt lat="46.66353" lon="5.56849">
        <ele>313</ele>
        <time>2019-10-01T19:18:50Z</time>
      </trkpt>
      <trkpt lat="46.66342" lon="5.56845">
        <ele>314.4</ele>
        <time>2019-10-01T19:18:54Z</time>
      </trkpt>
      <trkpt lat="46.66314" lon="5.56828">
        <ele>322.3</ele>
        <time>2019-10-01T19:19:01Z</time>
      </trkpt>
      <trkpt lat="46.6631" lon="5.56821">
        <ele>323.4</ele>
        <time>2019-10-01T19:19:08Z</time>
      </trkpt>
      <trkpt lat="46.66293" lon="5.56811">
        <ele>326</ele>
        <time>2019-10-01T19:19:12Z</time>
      </trkpt>
      <trkpt lat="46.66267" lon="5.56794">
        <ele>328.5</ele>
        <time>2019-10-01T19:19:22Z</time>
      </trkpt>
      <trkpt lat="46.66262" lon="5.56783">
        <ele>328.5</ele>
        <time>2019-10-01T19:19:38Z</time>
      </trkpt>
      <trkpt lat="46.66243" lon="5.56772">
        <ele>342.3</ele>
        <time>2019-10-01T19:19:51Z</time>
      </trkpt>
      <trkpt lat="46.66218" lon="5.56759">
        <ele>346</ele>
        <time>2019-10-01T19:20:09Z</time>
      </trkpt>
      <trkpt lat="46.66215" lon="5.56759">
        <ele>346.8</ele>
        <time>2019-10-01T19:20:27Z</time>
      </trkpt>
      <trkpt lat="46.66225" lon="5.56735">
        <ele>342.9</ele>
        <time>2019-10-01T19:20:47Z</time>
      </trkpt>
      <trkpt lat="46.66225" lon="5.56733">
        <ele>343</ele>
        <time>2019-10-01T19:20:59Z</time>
      </trkpt>
      <trkpt lat="46.66219" lon="5.56721">
        <ele>344.7</ele>
        <time>2019-10-01T19:21:12Z</time>
      </trkpt>
      <trkpt lat="46.66219" lon="5.56711">
        <ele>345.1</ele>
        <time>2019-10-01T19:21:21Z</time>
      </trkpt>
      <trkpt lat="46.66219" lon="5.5671">
        <ele>345.2</ele>
        <time>2019-10-01T19:21:34Z</time>
      </trkpt>
      <trkpt lat="46.66218" lon="5.56704">
        <ele>345.4</ele>
        <time>2019-10-01T19:21:50Z</time>
      </trkpt>
      <trkpt lat="46.66206" lon="5.56657">
        <ele>351.2</ele>
        <time>2019-10-01T19:22:05Z</time>
      </trkpt>
      <trkpt lat="46.66177" lon="5.56637">
        <ele>355.2</ele>
        <time>2019-10-01T19:22:15Z</time>
      </trkpt>
      <trkpt lat="46.66128" lon="5.56619">
        <ele>375.6</ele>
        <time>2019-10-01T19:22:30Z</time>
      </trkpt>
      <trkpt lat="46.66122" lon="5.56615">
        <ele>376.6</ele>
        <time>2019-10-01T19:22:50Z</time>
      </trkpt>
      <trkpt lat="46.66112" lon="5.56572">
        <ele>383.1</ele>
        <time>2019-10-01T19:23:00Z</time>
      </trkpt>
      <trkpt lat="46.661" lon="5.56547">
        <ele>384.9</ele>
        <time>2019-10-01T19:23:19Z</time>
      </trkpt>
      <trkpt lat="46.66098" lon="5.56547">
        <ele>385.1</ele>
        <time>2019-10-01T19:23:35Z</time>
      </trkpt>
      <trkpt lat="46.66055" lon="5.566">
        <ele>399.2</ele>
        <time>2019-10-01T19:23:49Z</time>
      </trkpt>
      <trkpt lat="46.66039" lon="5.56638">
        <ele>401</ele>
        <time>2019-10-01T19:24:05Z</time>
      </trkpt>
      <trkpt lat="46.66023" lon="5.56656">
        <ele>403.7</ele>
        <time>2019-10-01T19:24:14Z</time>
      </trkpt>
      <trkpt lat="46.66011" lon="5.5669">
        <ele>403.1</ele>
        <time>2019-10-01T19:24:28Z</time>
      </trkpt>
      <trkpt lat="46.65994" lon="5.56737">
        <ele>413.6</ele>
        <time>2019-10-01T19:24:34Z</time>
      </trkpt>
      <trkpt lat="46.65989" lon="5.56743">
        <ele>413.5</ele>
        <time>2019-10-01T19:24:42Z</time>
      </trkpt>
      <trkpt lat="46.65984" lon="5.56741">
        <ele>414.3</ele>
        <time>2019-10-01T19:24:44Z</time>
      </trkpt>
      <trkpt lat="46.65974" lon="5.56755">
        <ele>415.6</ele>
        <time>2019-10-01T19:24:47Z</time>
      </trkpt>
      <trkpt lat="46.65984" lon="5.5679">
        <ele>415.7</ele>
        <time>2019-10-01T19:24:50Z</time>
      </trkpt>
      <trkpt lat="46.65987" lon="5.56796">
        <ele>415.5</ele>
        <time>2019-10-01T19:24:56Z</time>
      </trkpt>
      <trkpt lat="46.65996" lon="5.56842">
        <ele>414.3</ele>
        <time>2019-10-01T19:25:10Z</time>
      </trkpt>
      <trkpt lat="46.65997" lon="5.56875">
        <ele>417.4</ele>
        <time>2019-10-01T19:25:22Z</time>
      </trkpt>
      <trkpt lat="46.65998" lon="5.56885">
        <ele>417.8</ele>
        <time>2019-10-01T19:25:38Z</time>
      </trkpt>
      <trkpt lat="46.65992" lon="5.56905">
        <ele>418.2</ele>
        <time>2019-10-01T19:25:57Z</time>
      </trkpt>
      <trkpt lat="46.65976" lon="5.56925">
        <ele>419.4</ele>
        <time>2019-10-01T19:26:12Z</time>
      </trkpt>
      <trkpt lat="46.65969" lon="5.56922">
        <ele>419.7</ele>
        <time>2019-10-01T19:26:22Z</time>
      </trkpt>
      <trkpt lat="46.65956" lon="5.56905">
        <ele>419.4</ele>
        <time>2019-10-01T19:26:39Z</time>
      </trkpt>
      <trkpt lat="46.65944" lon="5.56889">
        <ele>419.7</ele>
        <time>2019-10-01T19:26:46Z</time>
      </trkpt>
      <trkpt lat="46.65931" lon="5.56897">
        <ele>420.5</ele>
        <time>2019-10-01T19:26:52Z</time>
      </trkpt>
      <trkpt lat="46.65909" lon="5.56904">
        <ele>423.4</ele>
        <time>2019-10-01T19:27:07Z</time>
      </trkpt>
      <trkpt lat="46.65922" lon="5.56926">
        <ele>422</ele>
        <time>2019-10-01T19:27:12Z</time>
      </trkpt>
      <trkpt lat="46.65927" lon="5.56933">
        <ele>421.4</ele>
        <time>2019-10-01T19:27:24Z</time>
      </trkpt>
      <trkpt lat="46.65929" lon="5.56963">
        <ele>420.7</ele>
        <time>2019-10-01T19:27:30Z</time>
      </trkpt>
      <trkpt lat="46.65927" lon="5.56971">
        <ele>420.8</ele>
        <time>2019-10-01T19:27:35Z</time>
      </trkpt>
      <trkpt lat="46.65929" lon="5.56984">
        <ele>420.9</ele>
        <time>2019-10-01T19:27:46Z</time>
      </trkpt>
      <trkpt lat="46.6592" lon="5.57005">
        <ele>420.4</ele>
        <time>2019-10-01T19:27:58Z</time>
      </trkpt>
      <trkpt lat="46.65918" lon="5.57008">
        <ele>419.9</ele>
        <time>2019-10-01T19:28:00Z</time>
      </trkpt>
      <trkpt lat="46.6591" lon="5.57">
        <ele>422.6</ele>
        <time>2019-10-01T19:28:14Z</time>
      </trkpt>
      <trkpt lat="46.659" lon="5.57004">
        <ele>421.4</ele>
        <time>2019-10-01T19:28:25Z</time>
      </trkpt>
      <trkpt lat="46.65883" lon="5.57037">
        <ele>420.4</ele>
        <time>2019-10-01T19:28:33Z</time>
      </trkpt>
      <trkpt lat="46.65879" lon="5.57046">
        <ele>420.1</ele>
        <time>2019-10-01T19:28:51Z</time>
      </trkpt>
      <trkpt lat="46.65846" lon="5.57067">
        <ele>420.3</ele>
        <time>2019-10-01T19:29:01Z</time>
      </trkpt>
      <trkpt lat="46.6581" lon="5.57085">
        <ele>418.6</ele>
        <time>2019-10-01T19:29:16Z</time>
      </trkpt>
      <trkpt lat="46.65758" lon="5.57113">
        <ele>419.7</ele>
        <time>2019-10-01T19:29:34Z</time>
      </trkpt>
      <trkpt lat="46.65732" lon="5.57128">
        <ele>423.2</ele>
        <time>2019-10-01T19:29:49Z</time>
      </trkpt>
      <trkpt lat="46.6571" lon="5.57123">
        <ele>423.5</ele>
        <time>2019-10-01T19:30:05Z</time>
      </trkpt>
      <trkpt lat="46.65695" lon="5.57124">
        <ele>423.7</ele>
        <time>2019-10-01T19:30:09Z</time>
      </trkpt>
      <trkpt lat="46.65688" lon="5.57139">
        <ele>423.6</ele>
        <time>2019-10-01T19:30:23Z</time>
      </trkpt>
      <trkpt lat="46.65683" lon="5.57187">
        <ele>421.7</ele>
        <time>2019-10-01T19:30:26Z</time>
      </trkpt>
      <trkpt lat="46.65678" lon="5.57249">
        <ele>423</ele>
        <time>2019-10-01T19:30:40Z</time>
      </trkpt>
      <trkpt lat="46.65672" lon="5.5727">
        <ele>421.9</ele>
        <time>2019-10-01T19:30:50Z</time>
      </trkpt>
      <trkpt lat="46.65657" lon="5.57288">
        <ele>428.3</ele>
        <time>2019-10-01T19:31:06Z</time>
      </trkpt>
      <trkpt lat="46.6565" lon="5.57294">
        <ele>428.7</ele>
        <time>2019-10-01T19:31:13Z</time>
      </trkpt>
      <trkpt lat="46.65642" lon="5.5731">
        <ele>429.5</ele>
        <time>2019-10-01T19:31:29Z</time>
      </trkpt>
      <trkpt lat="46.65654" lon="5.57336">
        <ele>434</ele>
        <time>2019-10-01T19:31:31Z</time>
      </trkpt>
      <trkpt lat="46.6566" lon="5.57357">
        <ele>435.9</ele>
        <time>2019-10-01T19:31:35Z</time>
      </trkpt>
      <trkpt lat="46.6566" lon="5.57368">
        <ele>437.1</ele>
        <time>2019-10-01T19:31:37Z</time>
      </trkpt>
      <trkpt lat="46.65648" lon="5.57415">
        <ele>440.2</ele>
        <time>2019-10-01T19:31:39Z</time>
      </trkpt>
      <trkpt lat="46.65639" lon="5.57448">
        <ele>446.1</ele>
        <time>2019-10-01T19:31:45Z</time>
      </trkpt>
      <trkpt lat="46.65634" lon="5.57463">
        <ele>446.9</ele>
        <time>2019-10-01T19:31:59Z</time>
      </trkpt>
      <trkpt lat="46.65608" lon="5.57496">
        <ele>450.4</ele>
        <time>2019-10-01T19:32:06Z</time>
      </trkpt>
      <trkpt lat="46.65592" lon="5.5753">
        <ele>452.3</ele>
        <time>2019-10-01T19:32:23Z</time>
      </trkpt>
      <trkpt lat="46.65565" lon="5.57575">
        <ele>460.2</ele>
        <time>2019-10-01T19:32:43Z</time>
      </trkpt>
      <trkpt lat="46.65554" lon="5.57605">
        <ele>463.3</ele>
        <time>2019-10-01T19:32:58Z</time>
      </trkpt>
      <trkpt lat="46.6554" lon="5.57646">
        <ele>464.7</ele>
        <time>2019-10-01T19:33:06Z</time>
      </trkpt>
      <trkpt lat="46.65531" lon="5.57679">
        <ele>465</ele>
        <time>2019-10-01T19:33:08Z</time>
      </trkpt>
      <trkpt lat="46.6552" lon="5.57692">
        <ele>465.8</ele>
        <time>2019-10-01T19:33:10Z</time>
      </trkpt>
      <trkpt lat="46.65508" lon="5.57696">
        <ele>466.6</ele>
        <time>2019-10-01T19:33:13Z</time>
      </trkpt>
      <trkpt lat="46.65483" lon="5.57764">
        <ele>473.7</ele>
        <time>2019-10-01T19:33:17Z</time>
      </trkpt>
      <trkpt lat="46.65458" lon="5.57827">
        <ele>474.3</ele>
        <time>2019-10-01T19:33:23Z</time>
      </trkpt>
      <trkpt lat="46.65464" lon="5.57878">
        <ele>468.5</ele>
        <time>2019-10-01T19:33:35Z</time>
      </trkpt>
      <trkpt lat="46.65471" lon="5.57934">
        <ele>460.2</ele>
        <time>2019-10-01T19:33:53Z</time>
      </trkpt>
      <trkpt lat="46.65479" lon="5.57986">
        <ele>456.1</ele>
        <time>2019-10-01T19:34:08Z</time>
      </trkpt>
      <trkpt lat="46.65469" lon="5.58004">
        <ele>449.7</ele>
        <time>2019-10-01T19:34:14Z</time>
      </trkpt>
      <trkpt lat="46.65475" lon="5.58008">
        <ele>448.9</ele>
        <time>2019-10-01T19:34:22Z</time>
      </trkpt>
      <trkpt lat="46.65473" lon="5.58005">
        <ele>449.1</ele>
        <time>2019-10-01T19:34:33Z</time>
      </trkpt>
      <trkpt lat="46.65472" lon="5.58001">
        <ele>449.4</ele>
        <time>2019-10-01T19:34:47Z</time>
      </trkpt>
      <trkpt lat="46.65446" lon="5.58">
        <ele>453.7</ele>
        <time>2019-10-01T19:35:05Z</time>
      </trkpt>
      <trkpt lat="46.65434" lon="5.57999">
        <ele>462.8</ele>
        <time>2019-10-01T19:35:20Z</time>
      </trkpt>
      <trkpt lat="46.65424" lon="5.58009">
        <ele>459</ele>
        <time>2019-10-01T19:35:33Z</time>
      </trkpt>
      <trkpt lat="46.65389" lon="5.58029">
        <ele>472.2</ele>
        <time>2019-10-01T19:35:49Z</time>
      </trkpt>
      <trkpt lat="46.65366" lon="5.58051">
        <ele>474.8</ele>
        <time>2019-10-01T19:36:01Z</time>
      </trkpt>
      <trkpt lat="46.65327" lon="5.58068">
        <ele>489.2</ele>
        <time>2019-10-01T19:36:03Z</time>
      </trkpt>
      <trkpt lat="46.65291" lon="5.58079">
        <ele>494.2</ele>
        <time>2019-10-01T19:36:10Z</time>
      </trkpt>
      <trkpt lat="46.65281" lon="5.58086">
        <ele>491.1</ele>
        <time>2019-10-01T19:36:12Z</time>
      </trkpt>
      <trkpt lat="46.65274" lon="5.5811">
        <ele>491.1</ele>
        <time>2019-10-01T19:36:20Z</time>
      </trkpt>
      <trkpt lat="46.65263" lon="5.58139">
        <ele>492</ele>
        <time>2019-10-01T19:36:27Z</time>
      </trkpt>
      <trkpt lat="46.65249" lon="5.5818">
        <ele>500.3</ele>
        <time>2019-10-01T19:36:42Z</time>
      </trkpt>
      <trkpt lat="46.65234" lon="5.58212">
        <ele>499.4</ele>
        <time>2019-10-01T19:36:45Z</time>
      </trkpt>
      <trkpt lat="46.65211" lon="5.58254">
        <ele>495.5</ele>
        <time>2019-10-01T19:37:04Z</time>
      </trkpt>
      <trkpt lat="46.65194" lon="5.58286">
        <ele>496.5</ele>
        <time>2019-10-01T19:37:12Z</time>
      </trkpt>
      <trkpt lat="46.65185" lon="5.58298">
        <ele>497.3</ele>
        <time>2019-10-01T19:37:23Z</time>
      </trkpt>
      <trkpt lat="46.65182" lon="5.58312">
        <ele>498</ele>
        <time>2019-10-01T19:37:39Z</time>
      </trkpt>
      <trkpt lat="46.65172" lon="5.58352">
        <ele>494.4</ele>
        <time>2019-10-01T19:37:53Z</time>
      </trkpt>
      <trkpt lat="46.65154" lon="5.5839">
        <ele>503.2</ele>
        <time>2019-10-01T19:37:58Z</time>
      </trkpt>
      <trkpt lat="46.65138" lon="5.58421">
        <ele>499</ele>
        <time>2019-10-01T19:38:13Z</time>
      </trkpt>
      <trkpt lat="46.65119" lon="5.58457">
        <ele>499.7</ele>
        <time>2019-10-01T19:38:31Z</time>
      </trkpt>
      <trkpt lat="46.65102" lon="5.58481">
        <ele>501.8</ele>
        <time>2019-10-01T19:38:46Z</time>
      </trkpt>
      <trkpt lat="46.65081" lon="5.58532">
        <ele>505.1</ele>
        <time>2019-10-01T19:38:55Z</time>
      </trkpt>
      <trkpt lat="46.65073" lon="5.58587">
        <ele>496.4</ele>
        <time>2019-10-01T19:38:57Z</time>
      </trkpt>
      <trkpt lat="46.65067" lon="5.58611">
        <ele>495.4</ele>
        <time>2019-10-01T19:39:04Z</time>
      </trkpt>
      <trkpt lat="46.65069" lon="5.58634">
        <ele>494</ele>
        <time>2019-10-01T19:39:20Z</time>
      </trkpt>
      <trkpt lat="46.65069" lon="5.5864">
        <ele>493.6</ele>
        <time>2019-10-01T19:39:33Z</time>
      </trkpt>
      <trkpt lat="46.6509" lon="5.58694">
        <ele>482.3</ele>
        <time>2019-10-01T19:39:36Z</time>
      </trkpt>
      <trkpt lat="46.65103" lon="5.5871">
        <ele>480.7</ele>
        <time>2019-10-01T19:39:42Z</time>
      </trkpt>
      <trkpt lat="46.65104" lon="5.58717">
        <ele>481.1</ele>
        <time>2019-10-01T19:40:01Z</time>
      </trkpt>
      <trkpt lat="46.65098" lon="5.58723">
        <ele>482.8</ele>
        <time>2019-10-01T19:40:13Z</time>
      </trkpt>
      <trkpt lat="46.65073" lon="5.58795">
        <ele>493.9</ele>
        <time>2019-10-01T19:40:16Z</time>
      </trkpt>
      <trkpt lat="46.65061" lon="5.58814">
        <ele>494</ele>
        <time>2019-10-01T19:40:22Z</time>
      </trkpt>
      <trkpt lat="46.65055" lon="5.58846">
        <ele>495.1</ele>
        <time>2019-10-01T19:40:41Z</time>
      </trkpt>
      <trkpt lat="46.65059" lon="5.5887">
        <ele>495.3</ele>
        <time>2019-10-01T19:40:55Z</time>
      </trkpt>
      <trkpt lat="46.65071" lon="5.5889">
        <ele>496.2</ele>
        <time>2019-10-01T19:41:02Z</time>
      </trkpt>
      <trkpt lat="46.65097" lon="5.58927">
        <ele>491.6</ele>
        <time>2019-10-01T19:41:22Z</time>
      </trkpt>
      <trkpt lat="46.65117" lon="5.58954">
        <ele>485.5</ele>
        <time>2019-10-01T19:41:25Z</time>
      </trkpt>
      <trkpt lat="46.65114" lon="5.58986">
        <ele>486.9</ele>
        <time>2019-10-01T19:41:34Z</time>
      </trkpt>
      <trkpt lat="46.65102" lon="5.59026">
        <ele>493.3</ele>
        <time>2019-10-01T19:41:39Z</time>
      </trkpt>
      <trkpt lat="46.65089" lon="5.59076">
        <ele>505.6</ele>
        <time>2019-10-01T19:41:57Z</time>
      </trkpt>
      <trkpt lat="46.65085" lon="5.59107">
        <ele>506.5</ele>
        <time>2019-10-01T19:42:17Z</time>
      </trkpt>
      <trkpt lat="46.6508" lon="5.59118">
        <ele>516.9</ele>
        <time>2019-10-01T19:42:33Z</time>
      </trkpt>
      <trkpt lat="46.65073" lon="5.59241">
        <ele>519.6</ele>
        <time>2019-10-01T19:42:43Z</time>
      </trkpt>
      <trkpt lat="46.65068" lon="5.59244">
        <ele>520</ele>
        <time>2019-10-01T19:43:02Z</time>
      </trkpt>
      <trkpt lat="46.65062" lon="5.59242">
        <ele>520.5</ele>
        <time>2019-10-01T19:43:22Z</time>
      </trkpt>
      <trkpt lat="46.65048" lon="5.59254">
        <ele>518.3</ele>
        <time>2019-10-01T19:43:37Z</time>
      </trkpt>
      <trkpt lat="46.65019" lon="5.59276">
        <ele>520</ele>
        <time>2019-10-01T19:43:43Z</time>
      </trkpt>
      <trkpt lat="46.65014" lon="5.59285">
        <ele>519.5</ele>
        <time>2019-10-01T19:43:52Z</time>
      </trkpt>
      <trkpt lat="46.65012" lon="5.59344">
        <ele>510.9</ele>
        <time>2019-10-01T19:44:02Z</time>
      </trkpt>
      <trkpt lat="46.6501" lon="5.59397">
        <ele>498</ele>
        <time>2019-10-01T19:44:13Z</time>
      </trkpt>
      <trkpt lat="46.64974" lon="5.59417">
        <ele>510.6</ele>
        <time>2019-10-01T19:44:19Z</time>
      </trkpt>
      <trkpt lat="46.64941" lon="5.59414">
        <ele>515.6</ele>
        <time>2019-10-01T19:44:38Z</time>
      </trkpt>
      <trkpt lat="46.64898" lon="5.59451">
        <ele>504.2</ele>
        <time>2019-10-01T19:44:52Z</time>
      </trkpt>
      <trkpt lat="46.64897" lon="5.59452">
        <ele>503.9</ele>
        <time>2019-10-01T19:45:07Z</time>
      </trkpt>
      <trkpt lat="46.64867" lon="5.59464">
        <ele>504.4</ele>
        <time>2019-10-01T19:45:15Z</time>
      </trkpt>
      <trkpt lat="46.6486" lon="5.59465">
        <ele>504.9</ele>
        <time>2019-10-01T19:45:32Z</time>
      </trkpt>
      <trkpt lat="46.64853" lon="5.59471">
        <ele>504.4</ele>
        <time>2019-10-01T19:45:50Z</time>
      </trkpt>
      <trkpt lat="46.64846" lon="5.59471">
        <ele>504.8</ele>
        <time>2019-10-01T19:46:05Z</time>
      </trkpt>
      <trkpt lat="46.64804" lon="5.59486">
        <ele>515.2</ele>
        <time>2019-10-01T19:46:18Z</time>
      </trkpt>
      <trkpt lat="46.64771" lon="5.5949">
        <ele>518.9</ele>
        <time>2019-10-01T19:46:23Z</time>
      </trkpt>
      <trkpt lat="46.64723" lon="5.59486">
        <ele>525.7</ele>
        <time>2019-10-01T19:46:39Z</time>
      </trkpt>
      <trkpt lat="46.64686" lon="5.59492">
        <ele>527</ele>
        <time>2019-10-01T19:46:48Z</time>
      </trkpt>
      <trkpt lat="46.64656" lon="5.59504">
        <ele>522.3</ele>
        <time>2019-10-01T19:47:04Z</time>
      </trkpt>
      <trkpt lat="46.64616" lon="5.59524">
        <ele>519.1</ele>
        <time>2019-10-01T19:47:19Z</time>
      </trkpt>
      <trkpt lat="46.6459" lon="5.59533">
        <ele>519.1</ele>
        <time>2019-10-01T19:47:30Z</time>
      </trkpt>
      <trkpt lat="46.64582" lon="5.59535">
        <ele>523.6</ele>
        <time>2019-10-01T19:47:39Z</time>
      </trkpt>
      <trkpt lat="46.64528" lon="5.59518">
        <ele>528.4</ele>
        <time>2019-10-01T19:47:53Z</time>
      </trkpt>
      <trkpt lat="46.64494" lon="5.59502">
        <ele>538</ele>
        <time>2019-10-01T19:48:08Z</time>
      </trkpt>
      <trkpt lat="46.6446" lon="5.59494">
        <ele>542.2</ele>
        <time>2019-10-01T19:48:21Z</time>
      </trkpt>
      <trkpt lat="46.64436" lon="5.59493">
        <ele>541.9</ele>
        <time>2019-10-01T19:48:28Z</time>
      </trkpt>
      <trkpt lat="46.64405" lon="5.59509">
        <ele>531.6</ele>
        <time>2019-10-01T19:48:45Z</time>
      </trkpt>
      <trkpt lat="46.64377" lon="5.59513">
        <ele>525.5</ele>
        <time>2019-10-01T19:48:58Z</time>
      </trkpt>
      <trkpt lat="46.64343" lon="5.59506">
        <ele>531.2</ele>
        <time>2019-10-01T19:49:08Z</time>
      </trkpt>
      <trkpt lat="46.64315" lon="5.595">
        <ele>539.8</ele>
        <time>2019-10-01T19:49:16Z</time>
      </trkpt>
      <trkpt lat="46.64282" lon="5.59487">
        <ele>540.5</ele>
        <time>2019-10-01T19:49:21Z</time>
      </trkpt>
      <trkpt lat="46.64231" lon="5.5948">
        <ele>538.4</ele>
        <time>2019-10-01T19:49:35Z</time>
      </trkpt>
      <trkpt lat="46.64193" lon="5.59465">
        <ele>538.1</ele>
        <time>2019-10-01T19:49:38Z</time>
      </trkpt>
      <trkpt lat="46.64155" lon="5.59459">
        <ele>534.3</ele>
        <time>2019-10-01T19:49:50Z</time>
      </trkpt>
      <trkpt lat="46.64117" lon="5.59455">
        <ele>533.5</ele>
        <time>2019-10-01T19:50:06Z</time>
      </trkpt>
      <trkpt lat="46.64096" lon="5.59455">
        <ele>533</ele>
        <time>2019-10-01T19:50:21Z</time>
      </trkpt>
      <trkpt lat="46.64062" lon="5.59417">
        <ele>528.2</ele>
        <time>2019-10-01T19:50:33Z</time>
      </trkpt>
      <trkpt lat="46.64025" lon="5.59392">
        <ele>530.6</ele>
        <time>2019-10-01T19:50:35Z</time>
      </trkpt>
      <trkpt lat="46.64008" lon="5.59361">
        <ele>531.9</ele>
        <time>2019-10-01T19:50:41Z</time>
      </trkpt>
      <trkpt lat="46.63989" lon="5.59341">
        <ele>523.4</ele>
        <time>2019-10-01T19:50:56Z</time>
      </trkpt>
      <trkpt lat="46.63967" lon="5.59315">
        <ele>522.2</ele>
        <time>2019-10-01T19:51:03Z</time>
      </trkpt>
      <trkpt lat="46.63965" lon="5.59309">
        <ele>521.7</ele>
        <time>2019-10-01T19:51:09Z</time>
      </trkpt>
      <trkpt lat="46.63944" lon="5.59291">
        <ele>519.4</ele>
        <time>2019-10-01T19:51:16Z</time>
      </trkpt>
      <trkpt lat="46.63941" lon="5.5928">
        <ele>519.6</ele>
        <time>2019-10-01T19:51:21Z</time>
      </trkpt>
      <trkpt lat="46.63927" lon="5.5926">
        <ele>518.6</ele>
        <time>2019-10-01T19:51:23Z</time>
      </trkpt>
      <trkpt lat="46.63921" lon="5.59241">
        <ele>519.1</ele>
        <time>2019-10-01T19:51:43Z</time>
      </trkpt>
      <trkpt lat="46.63908" lon="5.59228">
        <ele>516.4</ele>
        <time>2019-10-01T19:51:49Z</time>
      </trkpt>
      <trkpt lat="46.63899" lon="5.59226">
        <ele>516.3</ele>
        <time>2019-10-01T19:51:51Z</time>
      </trkpt>
      <trkpt lat="46.63896" lon="5.59216">
        <ele>516.3</ele>
        <time>2019-10-01T19:52:04Z</time>
      </trkpt>
      <trkpt lat="46.63897" lon="5.59213">
        <ele>516.4</ele>
        <time>2019-10-01T19:52:10Z</time>
      </trkpt>
      <trkpt lat="46.63896" lon="5.59203">
        <ele>516.6</ele>
        <time>2019-10-01T19:52:17Z</time>
      </trkpt>
      <trkpt lat="46.63894" lon="5.59189">
        <ele>516.9</ele>
        <time>2019-10-01T19:52:20Z</time>
      </trkpt>
      <trkpt lat="46.63883" lon="5.59174">
        <ele>516.9</ele>
        <time>2019-10-01T19:52:37Z</time>
      </trkpt>
      <trkpt lat="46.63858" lon="5.59146">
        <ele>521.9</ele>
        <time>2019-10-01T19:52:56Z</time>
      </trkpt>
      <trkpt lat="46.6383" lon="5.59129">
        <ele>525</ele>
        <time>2019-10-01T19:53:12Z</time>
      </trkpt>
      <trkpt lat="46.63808" lon="5.59113">
        <ele>527</ele>
        <time>2019-10-01T19:53:22Z</time>
      </trkpt>
      <trkpt lat="46.63753" lon="5.59073">
        <ele>533.7</ele>
        <time>2019-10-01T19:53:39Z</time>
      </trkpt>
      <trkpt lat="46.63724" lon="5.59058">
        <ele>530.8</ele>
        <time>2019-10-01T19:53:52Z</time>
      </trkpt>
      <trkpt lat="46.63694" lon="5.59048">
        <ele>529.5</ele>
        <time>2019-10-01T19:54:11Z</time>
      </trkpt>
      <trkpt lat="46.63666" lon="5.59039">
        <ele>527</ele>
        <time>2019-10-01T19:54:22Z</time>
      </trkpt>
      <trkpt lat="46.63623" lon="5.5903">
        <ele>527.7</ele>
        <time>2019-10-01T19:54:42Z</time>
      </trkpt>
      <trkpt lat="46.636" lon="5.59023">
        <ele>528.8</ele>
        <time>2019-10-01T19:54:49Z</time>
      </trkpt>
      <trkpt lat="46.63569" lon="5.59003">
        <ele>530.4</ele>
        <time>2019-10-01T19:55:05Z</time>
      </trkpt>
      <trkpt lat="46.63544" lon="5.59001">
        <ele>528.6</ele>
        <time>2019-10-01T19:55:16Z</time>
      </trkpt>
      <trkpt lat="46.63539" lon="5.58999">
        <ele>530.4</ele>
        <time>2019-10-01T19:55:33Z</time>
      </trkpt>
      <trkpt lat="46.63511" lon="5.59007">
        <ele>528.3</ele>
        <time>2019-10-01T19:55:53Z</time>
      </trkpt>
      <trkpt lat="46.63487" lon="5.5902">
        <ele>526.9</ele>
        <time>2019-10-01T19:55:58Z</time>
      </trkpt>
      <trkpt lat="46.63447" lon="5.59057">
        <ele>526</ele>
        <time>2019-10-01T19:56:18Z</time>
      </trkpt>
      <trkpt lat="46.63424" lon="5.59079">
        <ele>526.6</ele>
        <time>2019-10-01T19:56:38Z</time>
      </trkpt>
      <trkpt lat="46.63382" lon="5.5911">
        <ele>525</ele>
        <time>2019-10-01T19:56:47Z</time>
      </trkpt>
      <trkpt lat="46.6338" lon="5.59112">
        <ele>525</ele>
        <time>2019-10-01T19:56:52Z</time>
      </trkpt>
      <trkpt lat="46.63329" lon="5.59138">
        <ele>528.6</ele>
        <time>2019-10-01T19:57:00Z</time>
      </trkpt>
      <trkpt lat="46.63303" lon="5.59156">
        <ele>529.5</ele>
        <time>2019-10-01T19:57:09Z</time>
      </trkpt>
      <trkpt lat="46.63276" lon="5.59183">
        <ele>528.9</ele>
        <time>2019-10-01T19:57:12Z</time>
      </trkpt>
      <trkpt lat="46.63241" lon="5.59224">
        <ele>532.7</ele>
        <time>2019-10-01T19:57:28Z</time>
      </trkpt>
      <trkpt lat="46.63215" lon="5.59249">
        <ele>532.8</ele>
        <time>2019-10-01T19:57:43Z</time>
      </trkpt>
      <trkpt lat="46.63194" lon="5.59266">
        <ele>530.3</ele>
        <time>2019-10-01T19:57:56Z</time>
      </trkpt>
      <trkpt lat="46.63181" lon="5.59295">
        <ele>529.9</ele>
        <time>2019-10-01T19:58:09Z</time>
      </trkpt>
      <trkpt lat="46.63164" lon="5.5932">
        <ele>532.3</ele>
        <time>2019-10-01T19:58:26Z</time>
      </trkpt>
      <trkpt lat="46.63152" lon="5.59345">
        <ele>530.9</ele>
        <time>2019-10-01T19:58:37Z</time>
      </trkpt>
      <trkpt lat="46.63147" lon="5.59348">
        <ele>530.5</ele>
        <time>2019-10-01T19:58:55Z</time>
      </trkpt>
      <trkpt lat="46.63134" lon="5.59373">
        <ele>529.4</ele>
        <time>2019-10-01T19:59:10Z</time>
      </trkpt>
      <trkpt lat="46.63134" lon="5.5939">
        <ele>529</ele>
        <time>2019-10-01T19:59:13Z</time>
      </trkpt>
      <trkpt lat="46.63157" lon="5.59441">
        <ele>526.1</ele>
        <time>2019-10-01T19:59:24Z</time>
      </trkpt>
      <trkpt lat="46.63162" lon="5.59438">
        <ele>526.2</ele>
        <time>2019-10-01T19:59:36Z</time>
      </trkpt>
      <trkpt lat="46.63174" lon="5.59472">
        <ele>513.4</ele>
        <time>2019-10-01T19:59:53Z</time>
      </trkpt>
      <trkpt lat="46.63172" lon="5.595">
        <ele>516</ele>
        <time>2019-10-01T20:00:12Z</time>
      </trkpt>
      <trkpt lat="46.63184" lon="5.59527">
        <ele>504.9</ele>
        <time>2019-10-01T20:00:17Z</time>
      </trkpt>
      <trkpt lat="46.63184" lon="5.59528">
        <ele>504.6</ele>
        <time>2019-10-01T20:00:29Z</time>
      </trkpt>
      <trkpt lat="46.63201" lon="5.5956">
        <ele>499.5</ele>
        <time>2019-10-01T20:00:35Z</time>
      </trkpt>
      <trkpt lat="46.63204" lon="5.59557">
        <ele>498.9</ele>
        <time>2019-10-01T20:00:44Z</time>
      </trkpt>
      <trkpt lat="46.63214" lon="5.59558">
        <ele>496.1</ele>
        <time>2019-10-01T20:01:02Z</time>
      </trkpt>
      <trkpt lat="46.63227" lon="5.59582">
        <ele>489.3</ele>
        <time>2019-10-01T20:01:12Z</time>
      </trkpt>
      <trkpt lat="46.63232" lon="5.59592">
        <ele>484</ele>
        <time>2019-10-01T20:01:18Z</time>
      </trkpt>
      <trkpt lat="46.63245" lon="5.5959">
        <ele>479.2</ele>
        <time>2019-10-01T20:01:30Z</time>
      </trkpt>
      <trkpt lat="46.6325" lon="5.59585">
        <ele>473.3</ele>
        <time>2019-10-01T20:01:35Z</time>
      </trkpt>
      <trkpt lat="46.63262" lon="5.59555">
        <ele>469.6</ele>
        <time>2019-10-01T20:01:51Z</time>
      </trkpt>
      <trkpt lat="46.63274" lon="5.59553">
        <ele>468.3</ele>
        <time>2019-10-01T20:02:03Z</time>
      </trkpt>
      <trkpt lat="46.63282" lon="5.5956">
        <ele>467</ele>
        <time>2019-10-01T20:02:11Z</time>
      </trkpt>
      <trkpt lat="46.63288" lon="5.59561">
        <ele>465.9</ele>
        <time>2019-10-01T20:02:30Z</time>
      </trkpt>
      <trkpt lat="46.6329" lon="5.5956">
        <ele>465.6</ele>
        <time>2019-10-01T20:02:41Z</time>
      </trkpt>
      <trkpt lat="46.63294" lon="5.59561">
        <ele>464.9</ele>
        <time>2019-10-01T20:02:43Z</time>
      </trkpt>
      <trkpt lat="46.63304" lon="5.59587">
        <ele>458.4</ele>
        <time>2019-10-01T20:03:02Z</time>
      </trkpt>
      <trkpt lat="46.63322" lon="5.59598">
        <ele>455.7</ele>
        <time>2019-10-01T20:03:09Z</time>
      </trkpt>
      <trkpt lat="46.63333" lon="5.59593">
        <ele>454.2</ele>
        <time>2019-10-01T20:03:19Z</time>
      </trkpt>
      <trkpt lat="46.63373" lon="5.59609">
        <ele>440.4</ele>
        <time>2019-10-01T20:03:32Z</time>
      </trkpt>
      <trkpt lat="46.63395" lon="5.59638">
        <ele>437.6</ele>
        <time>2019-10-01T20:03:36Z</time>
      </trkpt>
      <trkpt lat="46.63417" lon="5.59657">
        <ele>434.2</ele>
        <time>2019-10-01T20:03:43Z</time>
      </trkpt>
      <trkpt lat="46.63457" lon="5.59653">
        <ele>422.2</ele>
        <time>2019-10-01T20:03:59Z</time>
      </trkpt>
      <trkpt lat="46.63466" lon="5.59653">
        <ele>420.8</ele>
        <time>2019-10-01T20:04:17Z</time>
      </trkpt>
      <trkpt lat="46.63478" lon="5.59687">
        <ele>416.5</ele>
        <time>2019-10-01T20:04:30Z</time>
      </trkpt>
      <trkpt lat="46.635" lon="5.59701">
        <ele>401.2</ele>
        <time>2019-10-01T20:04:34Z</time>
      </trkpt>
      <trkpt lat="46.63514" lon="5.59715">
        <ele>399.3</ele>
        <time>2019-10-01T20:04:37Z</time>
      </trkpt>
      <trkpt lat="46.63517" lon="5.59722">
        <ele>399.1</ele>
        <time>2019-10-01T20:04:55Z</time>
      </trkpt>
      <trkpt lat="46.63535" lon="5.59749">
        <ele>396.6</ele>
        <time>2019-10-01T20:05:11Z</time>
      </trkpt>
      <trkpt lat="46.63552" lon="5.59766">
        <ele>390.8</ele>
        <time>2019-10-01T20:05:15Z</time>
      </trkpt>
      <trkpt lat="46.63554" lon="5.59766">
        <ele>390.4</ele>
        <time>2019-10-01T20:05:27Z</time>
      </trkpt>
      <trkpt lat="46.63571" lon="5.59776">
        <ele>388.6</ele>
        <time>2019-10-01T20:05:32Z</time>
      </trkpt>
      <trkpt lat="46.63572" lon="5.59815">
        <ele>386</ele>
        <time>2019-10-01T20:05:36Z</time>
      </trkpt>
      <trkpt lat="46.63582" lon="5.59857">
        <ele>383.3</ele>
        <time>2019-10-01T20:05:55Z</time>
      </trkpt>
      <trkpt lat="46.63583" lon="5.59861">
        <ele>383.5</ele>
        <time>2019-10-01T20:06:09Z</time>
      </trkpt>
      <trkpt lat="46.63613" lon="5.59899">
        <ele>373.9</ele>
        <time>2019-10-01T20:06:19Z</time>
      </trkpt>
      <trkpt lat="46.63643" lon="5.59932">
        <ele>367</ele>
        <time>2019-10-01T20:06:30Z</time>
      </trkpt>
      <trkpt lat="46.6366" lon="5.59951">
        <ele>365.6</ele>
        <time>2019-10-01T20:06:37Z</time>
      </trkpt>
      <trkpt lat="46.63671" lon="5.59984">
        <ele>359.7</ele>
        <time>2019-10-01T20:06:51Z</time>
      </trkpt>
      <trkpt lat="46.63682" lon="5.60026">
        <ele>355.3</ele>
        <time>2019-10-01T20:07:00Z</time>
      </trkpt>
      <trkpt lat="46.63684" lon="5.60032">
        <ele>355.2</ele>
        <time>2019-10-01T20:07:15Z</time>
      </trkpt>
      <trkpt lat="46.63685" lon="5.60064">
        <ele>355</ele>
        <time>2019-10-01T20:07:32Z</time>
      </trkpt>
      <trkpt lat="46.63693" lon="5.60106">
        <ele>351.4</ele>
        <time>2019-10-01T20:07:47Z</time>
      </trkpt>
      <trkpt lat="46.63688" lon="5.60133">
        <ele>350.7</ele>
        <time>2019-10-01T20:08:03Z</time>
      </trkpt>
      <trkpt lat="46.63685" lon="5.60135">
        <ele>350.7</ele>
        <time>2019-10-01T20:08:10Z</time>
      </trkpt>
      <trkpt lat="46.63664" lon="5.60139">
        <ele>357.8</ele>
        <time>2019-10-01T20:08:12Z</time>
      </trkpt>
      <trkpt lat="46.63633" lon="5.60183">
        <ele>355.3</ele>
        <time>2019-10-01T20:08:19Z</time>
      </trkpt>
      <trkpt lat="46.63626" lon="5.60208">
        <ele>355.2</ele>
        <time>2019-10-01T20:08:37Z</time>
      </trkpt>
      <trkpt lat="46.63604" lon="5.60236">
        <ele>355.5</ele>
        <time>2019-10-01T20:08:48Z</time>
      </trkpt>
      <trkpt lat="46.63588" lon="5.60278">
        <ele>352.4</ele>
        <time>2019-10-01T20:09:04Z</time>
      </trkpt>
      <trkpt lat="46.63568" lon="5.60335">
        <ele>353.1</ele>
        <time>2019-10-01T20:09:10Z</time>
      </trkpt>
      <trkpt lat="46.63565" lon="5.6037">
        <ele>354.3</ele>
        <time>2019-10-01T20:09:22Z</time>
      </trkpt>
      <trkpt lat="46.63565" lon="5.60383">
        <ele>354.4</ele>
        <time>2019-10-01T20:09:27Z</time>
      </trkpt>
      <trkpt lat="46.63578" lon="5.60416">
        <ele>353.4</ele>
        <time>2019-10-01T20:09:45Z</time>
      </trkpt>
      <trkpt lat="46.63595" lon="5.60449">
        <ele>357.5</ele>
        <time>2019-10-01T20:10:01Z</time>
      </trkpt>
      <trkpt lat="46.63615" lon="5.60519">
        <ele>368</ele>
        <time>2019-10-01T20:10:15Z</time>
      </trkpt>
      <trkpt lat="46.63624" lon="5.60549">
        <ele>371.3</ele>
        <time>2019-10-01T20:10:28Z</time>
      </trkpt>
      <trkpt lat="46.63627" lon="5.60556">
        <ele>372.2</ele>
        <time>2019-10-01T20:10:32Z</time>
      </trkpt>
      <trkpt lat="46.63647" lon="5.60569">
        <ele>376.3</ele>
        <time>2019-10-01T20:10:42Z</time>
      </trkpt>
      <trkpt lat="46.63649" lon="5.60576">
        <ele>377.9</ele>
        <time>2019-10-01T20:10:55Z</time>
      </trkpt>
      <trkpt lat="46.63648" lon="5.60587">
        <ele>386.5</ele>
        <time>2019-10-01T20:11:15Z</time>
      </trkpt>
      <trkpt lat="46.63644" lon="5.60593">
        <ele>386.6</ele>
        <time>2019-10-01T20:11:31Z</time>
      </trkpt>
      <trkpt lat="46.63642" lon="5.60592">
        <ele>386.4</ele>
        <time>2019-10-01T20:11:49Z</time>
      </trkpt>
      <trkpt lat="46.63622" lon="5.60609">
        <ele>385.8</ele>
        <time>2019-10-01T20:12:03Z</time>
      </trkpt>
      <trkpt lat="46.63612" lon="5.60618">
        <ele>385.6</ele>
        <time>2019-10-01T20:12:13Z</time>
      </trkpt>
      <trkpt lat="46.63605" lon="5.60619">
        <ele>384.9</ele>
        <time>2019-10-01T20:12:28Z</time>
      </trkpt>
      <trkpt lat="46.63576" lon="5.60645">
        <ele>377.3</ele>
        <time>2019-10-01T20:12:41Z</time>
      </trkpt>
      <trkpt lat="46.63556" lon="5.60659">
        <ele>376.1</ele>
        <time>2019-10-01T20:13:00Z</time>
      </trkpt>
      <trkpt lat="46.63537" lon="5.60678">
        <ele>385.8</ele>
        <time>2019-10-01T20:13:10Z</time>
      </trkpt>
      <trkpt lat="46.63532" lon="5.60694">
        <ele>386.9</ele>
        <time>2019-10-01T20:13:29Z</time>
      </trkpt>
      <trkpt lat="46.6352" lon="5.60708">
        <ele>387.5</ele>
        <time>2019-10-01T20:13:42Z</time>
      </trkpt>
      <trkpt lat="46.635" lon="5.60743">
        <ele>383.6</ele>
        <time>2019-10-01T20:14:00Z</time>
      </trkpt>
      <trkpt lat="46.63478" lon="5.60787">
        <ele>386.2</ele>
        <time>2019-10-01T20:14:16Z</time>
      </trkpt>
      <trkpt lat="46.6345" lon="5.60823">
        <ele>384</ele>
        <time>2019-10-01T20:14:23Z</time>
      </trkpt>
      <trkpt lat="46.6344" lon="5.60853">
        <ele>389.5</ele>
        <time>2019-10-01T20:14:38Z</time>
      </trkpt>
      <trkpt lat="46.63439" lon="5.60908">
        <ele>391.8</ele>
        <time>2019-10-01T20:14:50Z</time>
      </trkpt>
      <trkpt lat="46.63448" lon="5.60964">
        <ele>398</ele>
        <time>2019-10-01T20:15:08Z</time>
      </trkpt>
      <trkpt lat="46.63457" lon="5.61026">
        <ele>398.7</ele>
        <time>2019-10-01T20:15:21Z</time>
      </trkpt>
      <trkpt lat="46.63461" lon="5.61073">
        <ele>398.9</ele>
        <time>2019-10-01T20:15:38Z</time>
      </trkpt>
      <trkpt lat="46.63458" lon="5.61118">
        <ele>397.6</ele>
        <time>2019-10-01T20:15:54Z</time>
      </trkpt>
      <trkpt lat="46.63463" lon="5.61146">
        <ele>398.7</ele>
        <time>2019-10-01T20:16:14Z</time>
      </trkpt>
      <trkpt lat="46.63487" lon="5.61193">
        <ele>400.7</ele>
        <time>2019-10-01T20:16:21Z</time>
      </trkpt>
      <trkpt lat="46.63519" lon="5.61262">
        <ele>411.7</ele>
        <time>2019-10-01T20:16:28Z</time>
      </trkpt>
      <trkpt lat="46.63549" lon="5.61338">
        <ele>411.5</ele>
        <time>2019-10-01T20:16:32Z</time>
      </trkpt>
      <trkpt lat="46.63562" lon="5.61365">
        <ele>412.3</ele>
        <time>2019-10-01T20:16:36Z</time>
      </trkpt>
      <trkpt lat="46.63581" lon="5.61392">
        <ele>413</ele>
        <time>2019-10-01T20:16:43Z</time>
      </trkpt>
      <trkpt lat="46.63589" lon="5.61397">
        <ele>431</ele>
        <time>2019-10-01T20:16:46Z</time>
      </trkpt>
      <trkpt lat="46.63614" lon="5.61446">
        <ele>424.6</ele>
        <time>2019-10-01T20:16:51Z</time>
      </trkpt>
      <trkpt lat="46.63616" lon="5.61448">
        <ele>424.8</ele>
        <time>2019-10-01T20:16:53Z</time>
      </trkpt>
      <trkpt lat="46.63638" lon="5.6151">
        <ele>416.2</ele>
        <time>2019-10-01T20:16:57Z</time>
      </trkpt>
      <trkpt lat="46.63647" lon="5.61521">
        <ele>416.5</ele>
        <time>2019-10-01T20:17:08Z</time>
      </trkpt>
      <trkpt lat="46.6365" lon="5.61546">
        <ele>413.4</ele>
        <time>2019-10-01T20:17:19Z</time>
      </trkpt>
      <trkpt lat="46.63662" lon="5.61558">
        <ele>412.4</ele>
        <time>2019-10-01T20:17:30Z</time>
      </trkpt>
      <trkpt lat="46.6368" lon="5.61563">
        <ele>422.3</ele>
        <time>2019-10-01T20:17:48Z</time>
      </trkpt>
      <trkpt lat="46.63696" lon="5.61566">
        <ele>425.5</ele>
        <time>2019-10-01T20:18:01Z</time>
      </trkpt>
      <trkpt lat="46.63728" lon="5.61592">
        <ele>421.9</ele>
        <time>2019-10-01T20:18:18Z</time>
      </trkpt>
      <trkpt lat="46.6378" lon="5.6164">
        <ele>428.7</ele>
        <time>2019-10-01T20:18:29Z</time>
      </trkpt>
      <trkpt lat="46.63808" lon="5.61656">
        <ele>429.5</ele>
        <time>2019-10-01T20:18:48Z</time>
      </trkpt>
      <trkpt lat="46.63852" lon="5.61674">
        <ele>435.7</ele>
        <time>2019-10-01T20:19:03Z</time>
      </trkpt>
      <trkpt lat="46.63854" lon="5.61675">
        <ele>436.4</ele>
        <time>2019-10-01T20:19:09Z</time>
      </trkpt>
      <trkpt lat="46.63881" lon="5.61678">
        <ele>441.5</ele>
        <time>2019-10-01T20:19:14Z</time>
      </trkpt>
      <trkpt lat="46.63898" lon="5.6169">
        <ele>443.3</ele>
        <time>2019-10-01T20:19:34Z</time>
      </trkpt>
      <trkpt lat="46.63933" lon="5.6168">
        <ele>456.9</ele>
        <time>2019-10-01T20:19:53Z</time>
      </trkpt>
      <trkpt lat="46.63937" lon="5.6168">
        <ele>457.8</ele>
        <time>2019-10-01T20:19:56Z</time>
      </trkpt>
      <trkpt lat="46.63945" lon="5.61687">
        <ele>459.8</ele>
        <time>2019-10-01T20:20:11Z</time>
      </trkpt>
      <trkpt lat="46.63954" lon="5.61714">
        <ele>459.5</ele>
        <time>2019-10-01T20:20:17Z</time>
      </trkpt>
      <trkpt lat="46.63956" lon="5.6179">
        <ele>461.7</ele>
        <time>2019-10-01T20:20:25Z</time>
      </trkpt>
      <trkpt lat="46.63744" lon="5.61725">
        <ele>443.6</ele>
        <time>2019-10-01T20:20:34Z</time>
      </trkpt>
      <trkpt lat="46.63745" lon="5.61728">
        <ele>445</ele>
        <time>2019-10-01T20:20:52Z</time>
      </trkpt>
      <trkpt lat="46.63745" lon="5.61723">
        <ele>443</ele>
        <time>2019-10-01T20:21:01Z</time>
      </trkpt>
      <trkpt lat="46.63727" lon="5.61715">
        <ele>439.5</ele>
        <time>2019-10-01T20:21:18Z</time>
      </trkpt>
      <trkpt lat="46.63673" lon="5.6169">
        <ele>430.7</ele>
        <time>2019-10-01T20:21:38Z</time>
      </trkpt>
      <trkpt lat="46.63656" lon="5.61677">
        <ele>431.3</ele>
        <time>2019-10-01T20:21:52Z</time>
      </trkpt>
      <trkpt lat="46.63637" lon="5.61677">
        <ele>438.6</ele>
        <time>2019-10-01T20:22:03Z</time>
      </trkpt>
      <trkpt lat="46.63635" lon="5.61675">
        <ele>439.1</ele>
        <time>2019-10-01T20:22:20Z</time>
      </trkpt>
      <trkpt lat="46.6363" lon="5.61677">
        <ele>440.6</ele>
        <time>2019-10-01T20:22:33Z</time>
      </trkpt>
      <trkpt lat="46.63628" lon="5.61684">
        <ele>442.2</ele>
        <time>2019-10-01T20:22:47Z</time>
      </trkpt>
      <trkpt lat="46.63629" lon="5.61685">
        <ele>442.2</ele>
        <time>2019-10-01T20:23:02Z</time>
      </trkpt>
      <trkpt lat="46.63632" lon="5.61679">
        <ele>440.4</ele>
        <time>2019-10-01T20:23:07Z</time>
      </trkpt>
      <trkpt lat="46.6361" lon="5.61667">
        <ele>441.9</ele>
        <time>2019-10-01T20:23:20Z</time>
      </trkpt>
      <trkpt lat="46.63588" lon="5.61646">
        <ele>425.4</ele>
        <time>2019-10-01T20:23:25Z</time>
      </trkpt>
      <trkpt lat="46.63585" lon="5.6164">
        <ele>423.5</ele>
        <time>2019-10-01T20:23:40Z</time>
      </trkpt>
      <trkpt lat="46.63562" lon="5.61623">
        <ele>428</ele>
        <time>2019-10-01T20:23:56Z</time>
      </trkpt>
      <trkpt lat="46.63487" lon="5.61653">
        <ele>446.3</ele>
        <time>2019-10-01T20:24:11Z</time>
      </trkpt>
      <trkpt lat="46.63469" lon="5.6165">
        <ele>443.2</ele>
        <time>2019-10-01T20:24:31Z</time>
      </trkpt>
      <trkpt lat="46.63456" lon="5.61659">
        <ele>443.5</ele>
        <time>2019-10-01T20:24:45Z</time>
      </trkpt>
      <trkpt lat="46.6341" lon="5.61666">
        <ele>449</ele>
        <time>2019-10-01T20:24:47Z</time>
      </trkpt>
      <trkpt lat="46.6337" lon="5.6164">
        <ele>447.4</ele>
        <time>2019-10-01T20:25:07Z</time>
      </trkpt>
      <trkpt lat="46.6334" lon="5.61608">
        <ele>447.8</ele>
        <time>2019-10-01T20:25:13Z</time>
      </trkpt>
      <trkpt lat="46.63337" lon="5.61602">
        <ele>448</ele>
        <time>2019-10-01T20:25:25Z</time>
      </trkpt>
      <trkpt lat="46.63333" lon="5.61597">
        <ele>460.2</ele>
        <time>2019-10-01T20:25:31Z</time>
      </trkpt>
      <trkpt lat="46.63319" lon="5.61611">
        <ele>467.2</ele>
        <time>2019-10-01T20:25:45Z</time>
      </trkpt>
      <trkpt lat="46.63312" lon="5.61623">
        <ele>469.8</ele>
        <time>2019-10-01T20:26:00Z</time>
      </trkpt>
      <trkpt lat="46.63311" lon="5.61628">
        <ele>470</ele>
        <time>2019-10-01T20:26:10Z</time>
      </trkpt>
      <trkpt lat="46.63322" lon="5.61645">
        <ele>466.6</ele>
        <time>2019-10-01T20:26:19Z</time>
      </trkpt>
      <trkpt lat="46.63331" lon="5.61658">
        <ele>460.7</ele>
        <time>2019-10-01T20:26:24Z</time>
      </trkpt>
      <trkpt lat="46.6332" lon="5.61659">
        <ele>464.1</ele>
        <time>2019-10-01T20:26:28Z</time>
      </trkpt>
      <trkpt lat="46.63311" lon="5.61667">
        <ele>468.1</ele>
        <time>2019-10-01T20:26:43Z</time>
      </trkpt>
      <trkpt lat="46.6331" lon="5.61671">
        <ele>468.7</ele>
        <time>2019-10-01T20:26:52Z</time>
      </trkpt>
      <trkpt lat="46.63279" lon="5.61713">
        <ele>478.1</ele>
        <time>2019-10-01T20:27:10Z</time>
      </trkpt>
      <trkpt lat="46.63282" lon="5.61739">
        <ele>478.2</ele>
        <time>2019-10-01T20:27:24Z</time>
      </trkpt>
      <trkpt lat="46.63275" lon="5.61751">
        <ele>483</ele>
        <time>2019-10-01T20:27:33Z</time>
      </trkpt>
      <trkpt lat="46.6327" lon="5.61753">
        <ele>484.1</ele>
        <time>2019-10-01T20:27:46Z</time>
      </trkpt>
      <trkpt lat="46.63261" lon="5.61782">
        <ele>484.1</ele>
        <time>2019-10-01T20:28:06Z</time>
      </trkpt>
      <trkpt lat="46.6326" lon="5.61808">
        <ele>485.3</ele>
        <time>2019-10-01T20:28:20Z</time>
      </trkpt>
      <trkpt lat="46.6325" lon="5.61836">
        <ele>493.4</ele>
        <time>2019-10-01T20:28:22Z</time>
      </trkpt>
      <trkpt lat="46.63251" lon="5.61875">
        <ele>495.4</ele>
        <time>2019-10-01T20:28:30Z</time>
      </trkpt>
      <trkpt lat="46.63246" lon="5.619">
        <ele>508.3</ele>
        <time>2019-10-01T20:28:49Z</time>
      </trkpt>
      <trkpt lat="46.63247" lon="5.61909">
        <ele>505.9</ele>
        <time>2019-10-01T20:29:01Z</time>
      </trkpt>
      <trkpt lat="46.6326" lon="5.61944">
        <ele>509.7</ele>
        <time>2019-10-01T20:29:12Z</time>
      </trkpt>
      <trkpt lat="46.63277" lon="5.61972">
        <ele>513.9</ele>
        <time>2019-10-01T20:29:18Z</time>
      </trkpt>
      <trkpt lat="46.63285" lon="5.61996">
        <ele>515.7</ele>
        <time>2019-10-01T20:29:37Z</time>
      </trkpt>
      <trkpt lat="46.63317" lon="5.62013">
        <ele>525.8</ele>
        <time>2019-10-01T20:29:46Z</time>
      </trkpt>
      <trkpt lat="46.63352" lon="5.62031">
        <ele>526.6</ele>
        <time>2019-10-01T20:29:53Z</time>
      </trkpt>
      <trkpt lat="46.63358" lon="5.62027">
        <ele>526.4</ele>
        <time>2019-10-01T20:30:10Z</time>
      </trkpt>
      <trkpt lat="46.63356" lon="5.62016">
        <ele>525.6</ele>
        <time>2019-10-01T20:30:18Z</time>
      </trkpt>
      <trkpt lat="46.63357" lon="5.62015">
        <ele>525.6</ele>
        <time>2019-10-01T20:30:26Z</time>
      </trkpt>
      <trkpt lat="46.63356" lon="5.62008">
        <ele>525.1</ele>
        <time>2019-10-01T20:30:39Z</time>
      </trkpt>
      <trkpt lat="46.63372" lon="5.61992">
        <ele>520.3</ele>
        <time>2019-10-01T20:30:43Z</time>
      </trkpt>
      <trkpt lat="46.63386" lon="5.61962">
        <ele>519.6</ele>
        <time>2019-10-01T20:30:49Z</time>
      </trkpt>
      <trkpt lat="46.63391" lon="5.6196">
        <ele>519.7</ele>
        <time>2019-10-01T20:31:05Z</time>
      </trkpt>
      <trkpt lat="46.63405" lon="5.6194">
        <ele>519.6</ele>
        <time>2019-10-01T20:31:20Z</time>
      </trkpt>
      <trkpt lat="46.63448" lon="5.6191">
        <ele>521.3</ele>
        <time>2019-10-01T20:31:30Z</time>
      </trkpt>
      <trkpt lat="46.63474" lon="5.6188">
        <ele>522</ele>
        <time>2019-10-01T20:31:48Z</time>
      </trkpt>
      <trkpt lat="46.63505" lon="5.61841">
        <ele>526.8</ele>
        <time>2019-10-01T20:32:02Z</time>
      </trkpt>
      <trkpt lat="46.63521" lon="5.61825">
        <ele>515.7</ele>
        <time>2019-10-01T20:32:16Z</time>
      </trkpt>
      <trkpt lat="46.63564" lon="5.61838">
        <ele>524</ele>
        <time>2019-10-01T20:32:24Z</time>
      </trkpt>
      <trkpt lat="46.63572" lon="5.61838">
        <ele>523.1</ele>
        <time>2019-10-01T20:32:33Z</time>
      </trkpt>
      <trkpt lat="46.63607" lon="5.61856">
        <ele>519.6</ele>
        <time>2019-10-01T20:32:36Z</time>
      </trkpt>
      <trkpt lat="46.63609" lon="5.61858">
        <ele>519.5</ele>
        <time>2019-10-01T20:32:47Z</time>
      </trkpt>
      <trkpt lat="46.6363" lon="5.61867">
        <ele>518.6</ele>
        <time>2019-10-01T20:33:06Z</time>
      </trkpt>
      <trkpt lat="46.63658" lon="5.61873">
        <ele>517.8</ele>
        <time>2019-10-01T20:33:22Z</time>
      </trkpt>
      <trkpt lat="46.6369" lon="5.61877">
        <ele>515.1</ele>
        <time>2019-10-01T20:33:35Z</time>
      </trkpt>
      <trkpt lat="46.63711" lon="5.61861">
        <ele>512.8</ele>
        <time>2019-10-01T20:33:42Z</time>
      </trkpt>
      <trkpt lat="46.63714" lon="5.61855">
        <ele>512.2</ele>
        <time>2019-10-01T20:34:00Z</time>
      </trkpt>
      <trkpt lat="46.63715" lon="5.61856">
        <ele>512.3</ele>
        <time>2019-10-01T20:34:08Z</time>
      </trkpt>
      <trkpt lat="46.63742" lon="5.61847">
        <ele>509.1</ele>
        <time>2019-10-01T20:34:17Z</time>
      </trkpt>
      <trkpt lat="46.63765" lon="5.61842">
        <ele>508.4</ele>
        <time>2019-10-01T20:34:34Z</time>
      </trkpt>
      <trkpt lat="46.63773" lon="5.61848">
        <ele>509.8</ele>
        <time>2019-10-01T20:34:50Z</time>
      </trkpt>
      <trkpt lat="46.63782" lon="5.61873">
        <ele>513.3</ele>
        <time>2019-10-01T20:35:03Z</time>
      </trkpt>
      <trkpt lat="46.63796" lon="5.61896">
        <ele>516.4</ele>
        <time>2019-10-01T20:35:17Z</time>
      </trkpt>
      <trkpt lat="46.63827" lon="5.61907">
        <ele>521.2</ele>
        <time>2019-10-01T20:35:31Z</time>
      </trkpt>
      <trkpt lat="46.63851" lon="5.61895">
        <ele>511.9</ele>
        <time>2019-10-01T20:35:39Z</time>
      </trkpt>
      <trkpt lat="46.63868" lon="5.61886">
        <ele>507.9</ele>
        <time>2019-10-01T20:35:55Z</time>
      </trkpt>
      <trkpt lat="46.63879" lon="5.61887">
        <ele>507.1</ele>
        <time>2019-10-01T20:36:10Z</time>
      </trkpt>
      <trkpt lat="46.63903" lon="5.61903">
        <ele>510.7</ele>
        <time>2019-10-01T20:36:14Z</time>
      </trkpt>
      <trkpt lat="46.63918" lon="5.61927">
        <ele>518.2</ele>
        <time>2019-10-01T20:36:16Z</time>
      </trkpt>
      <trkpt lat="46.63924" lon="5.61931">
        <ele>518.3</ele>
        <time>2019-10-01T20:36:21Z</time>
      </trkpt>
      <trkpt lat="46.63924" lon="5.61925">
        <ele>518.1</ele>
        <time>2019-10-01T20:36:31Z</time>
      </trkpt>
      <trkpt lat="46.63924" lon="5.61926">
        <ele>518.1</ele>
        <time>2019-10-01T20:36:34Z</time>
      </trkpt>
      <trkpt lat="46.63933" lon="5.61949">
        <ele>519.2</ele>
        <time>2019-10-01T20:36:45Z</time>
      </trkpt>
      <trkpt lat="46.63966" lon="5.61966">
        <ele>519.2</ele>
        <time>2019-10-01T20:37:00Z</time>
      </trkpt>
      <trkpt lat="46.64009" lon="5.61984">
        <ele>520.7</ele>
        <time>2019-10-01T20:37:02Z</time>
      </trkpt>
      <trkpt lat="46.64036" lon="5.61986">
        <ele>519</ele>
        <time>2019-10-01T20:37:21Z</time>
      </trkpt>
      <trkpt lat="46.64064" lon="5.6198">
        <ele>519.4</ele>
        <time>2019-10-01T20:37:37Z</time>
      </trkpt>
      <trkpt lat="46.64081" lon="5.61944">
        <ele>513.7</ele>
        <time>2019-10-01T20:37:51Z</time>
      </trkpt>
      <trkpt lat="46.64105" lon="5.61884">
        <ele>517.3</ele>
        <time>2019-10-01T20:38:00Z</time>
      </trkpt>
      <trkpt lat="46.64131" lon="5.61847">
        <ele>521.5</ele>
        <time>2019-10-01T20:38:18Z</time>
      </trkpt>
      <trkpt lat="46.64142" lon="5.61822">
        <ele>526.9</ele>
        <time>2019-10-01T20:38:38Z</time>
      </trkpt>
      <trkpt lat="46.64137" lon="5.61796">
        <ele>526.5</ele>
        <time>2019-10-01T20:38:44Z</time>
      </trkpt>
      <trkpt lat="46.64122" lon="5.61784">
        <ele>524.9</ele>
        <time>2019-10-01T20:38:59Z</time>
      </trkpt>
      <trkpt lat="46.64106" lon="5.61756">
        <ele>522.6</ele>
        <time>2019-10-01T20:39:16Z</time>
      </trkpt>
      <trkpt lat="46.64076" lon="5.61705">
        <ele>509.1</ele>
        <time>2019-10-01T20:39:24Z</time>
      </trkpt>
      <trkpt lat="46.64072" lon="5.61694">
        <ele>510.9</ele>
        <time>2019-10-01T20:39:29Z</time>
      </trkpt>
      <trkpt lat="46.64056" lon="5.61678">
        <ele>509</ele>
        <time>2019-10-01T20:39:45Z</time>
      </trkpt>
      <trkpt lat="46.6405" lon="5.61673">
        <ele>507.1</ele>
        <time>2019-10-01T20:39:58Z</time>
      </trkpt>
      <trkpt lat="46.64019" lon="5.61628">
        <ele>515.2</ele>
        <time>2019-10-01T20:40:02Z</time>
      </trkpt>
      <trkpt lat="46.63987" lon="5.61604">
        <ele>498.7</ele>
        <time>2019-10-01T20:40:11Z</time>
      </trkpt>
      <trkpt lat="46.63923" lon="5.61568">
        <ele>501.4</ele>
        <time>2019-10-01T20:40:28Z</time>
      </trkpt>
      <trkpt lat="46.63899" lon="5.61547">
        <ele>492.2</ele>
        <time>2019-10-01T20:40:30Z</time>
      </trkpt>
      <trkpt lat="46.63877" lon="5.61531">
        <ele>492.6</ele>
        <time>2019-10-01T20:40:44Z</time>
      </trkpt>
      <trkpt lat="46.63875" lon="5.61529">
        <ele>492.6</ele>
        <time>2019-10-01T20:41:01Z</time>
      </trkpt>
      <trkpt lat="46.63872" lon="5.61515">
        <ele>494.8</ele>
        <time>2019-10-01T20:41:12Z</time>
      </trkpt>
      <trkpt lat="46.63875" lon="5.6151">
        <ele>496.2</ele>
        <time>2019-10-01T20:41:24Z</time>
      </trkpt>
      <trkpt lat="46.63852" lon="5.61472">
        <ele>516.1</ele>
        <time>2019-10-01T20:41:44Z</time>
      </trkpt>
      <trkpt lat="46.63825" lon="5.61422">
        <ele>516.4</ele>
        <time>2019-10-01T20:41:53Z</time>
      </trkpt>
      <trkpt lat="46.63784" lon="5.61393">
        <ele>514.4</ele>
        <time>2019-10-01T20:42:13Z</time>
      </trkpt>
      <trkpt lat="46.63783" lon="5.61393">
        <ele>514</ele>
        <time>2019-10-01T20:42:25Z</time>
      </trkpt>
      <trkpt lat="46.63754" lon="5.61365">
        <ele>513.8</ele>
        <time>2019-10-01T20:42:42Z</time>
      </trkpt>
      <trkpt lat="46.63731" lon="5.61333">
        <ele>507.1</ele>
        <time>2019-10-01T20:42:47Z</time>
      </trkpt>
      <trkpt lat="46.63733" lon="5.613">
        <ele>507.6</ele>
        <time>2019-10-01T20:42:56Z</time>
      </trkpt>
      <trkpt lat="46.63727" lon="5.61295">
        <ele>507.1</ele>
        <time>2019-10-01T20:43:10Z</time>
      </trkpt>
      <trkpt lat="46.63723" lon="5.61287">
        <ele>507.3</ele>
        <time>2019-10-01T20:43:16Z</time>
      </trkpt>
      <trkpt lat="46.63715" lon="5.61283">
        <ele>505.9</ele>
        <time>2019-10-01T20:43:18Z</time>
      </trkpt>
      <trkpt lat="46.63713" lon="5.61276">
        <ele>506.1</ele>
        <time>2019-10-01T20:43:37Z</time>
      </trkpt>
      <trkpt lat="46.63718" lon="5.61259">
        <ele>509.4</ele>
        <time>2019-10-01T20:43:42Z</time>
      </trkpt>
      <trkpt lat="46.6372" lon="5.61259">
        <ele>510.6</ele>
        <time>2019-10-01T20:44:09Z</time>
      </trkpt>
      <trkpt lat="46.63724" lon="5.61263">
        <ele>511.7</ele>
        <time>2019-10-01T20:44:28Z</time>
      </trkpt>
      <trkpt lat="46.6373" lon="5.61262">
        <ele>514.5</ele>
        <time>2019-10-01T20:44:39Z</time>
      </trkpt>
      <trkpt lat="46.63734" lon="5.6126">
        <ele>516.9</ele>
        <time>2019-10-01T20:44:48Z</time>
      </trkpt>
      <trkpt lat="46.63729" lon="5.6119">
        <ele>518.7</ele>
        <time>2019-10-01T20:45:01Z</time>
      </trkpt>
      <trkpt lat="46.63733" lon="5.61146">
        <ele>523.7</ele>
        <time>2019-10-01T20:45:11Z</time>
      </trkpt>
      <trkpt lat="46.63722" lon="5.61106">
        <ele>521.7</ele>
        <time>2019-10-01T20:45:16Z</time>
      </trkpt>
      <trkpt lat="46.63708" lon="5.61056">
        <ele>524.3</ele>
        <time>2019-10-01T20:45:22Z</time>
      </trkpt>
      <trkpt lat="46.63702" lon="5.61002">
        <ele>524.8</ele>
        <time>2019-10-01T20:45:32Z</time>
      </trkpt>
      <trkpt lat="46.63703" lon="5.60991">
        <ele>523.2</ele>
        <time>2019-10-01T20:45:48Z</time>
      </trkpt>
      <trkpt lat="46.63733" lon="5.6094">
        <ele>526.3</ele>
        <time>2019-10-01T20:46:06Z</time>
      </trkpt>
      <trkpt lat="46.63773" lon="5.60899">
        <ele>531</ele>
        <time>2019-10-01T20:46:13Z</time>
      </trkpt>
      <trkpt lat="46.63811" lon="5.6088">
        <ele>532.7</ele>
        <time>2019-10-01T20:46:28Z</time>
      </trkpt>
      <trkpt lat="46.63876" lon="5.60851">
        <ele>543.3</ele>
        <time>2019-10-01T20:46:41Z</time>
      </trkpt>
      <trkpt lat="46.63921" lon="5.60847">
        <ele>545.6</ele>
        <time>2019-10-01T20:46:46Z</time>
      </trkpt>
      <trkpt lat="46.63951" lon="5.60838">
        <ele>546.5</ele>
        <time>2019-10-01T20:47:04Z</time>
      </trkpt>
      <trkpt lat="46.63977" lon="5.60831">
        <ele>535.3</ele>
        <time>2019-10-01T20:47:16Z</time>
      </trkpt>
      <trkpt lat="46.63991" lon="5.60825">
        <ele>537.7</ele>
        <time>2019-10-01T20:47:25Z</time>
      </trkpt>
      <trkpt lat="46.64019" lon="5.60831">
        <ele>536.9</ele>
        <time>2019-10-01T20:47:28Z</time>
      </trkpt>
      <trkpt lat="46.64043" lon="5.60829">
        <ele>534.5</ele>
        <time>2019-10-01T20:47:31Z</time>
      </trkpt>
      <trkpt lat="46.64067" lon="5.60822">
        <ele>535.5</ele>
        <time>2019-10-01T20:47:40Z</time>
      </trkpt>
      <trkpt lat="46.64087" lon="5.60792">
        <ele>528.7</ele>
        <time>2019-10-01T20:47:58Z</time>
      </trkpt>
      <trkpt lat="46.64115" lon="5.60775">
        <ele>525.7</ele>
        <time>2019-10-01T20:48:07Z</time>
      </trkpt>
      <trkpt lat="46.64117" lon="5.60774">
        <ele>525.6</ele>
        <time>2019-10-01T20:48:19Z</time>
      </trkpt>
      <trkpt lat="46.64144" lon="5.6078">
        <ele>525.6</ele>
        <time>2019-10-01T20:48:21Z</time>
      </trkpt>
      <trkpt lat="46.64159" lon="5.60783">
        <ele>525.4</ele>
        <time>2019-10-01T20:48:23Z</time>
      </trkpt>
      <trkpt lat="46.64166" lon="5.60777">
        <ele>523.5</ele>
        <time>2019-10-01T20:48:29Z</time>
      </trkpt>
      <trkpt lat="46.64207" lon="5.60783">
        <ele>524.3</ele>
        <time>2019-10-01T20:48:37Z</time>
      </trkpt>
      <trkpt lat="46.64212" lon="5.60787">
        <ele>524.8</ele>
        <time>2019-10-01T20:48:43Z</time>
      </trkpt>
      <trkpt lat="46.64245" lon="5.60781">
        <ele>522.8</ele>
        <time>2019-10-01T20:48:49Z</time>
      </trkpt>
      <trkpt lat="46.64306" lon="5.60784">
        <ele>520.7</ele>
        <time>2019-10-01T20:48:51Z</time>
      </trkpt>
      <trkpt lat="46.64342" lon="5.60779">
        <ele>515.2</ele>
        <time>2019-10-01T20:49:00Z</time>
      </trkpt>
      <trkpt lat="46.64393" lon="5.60779">
        <ele>513.9</ele>
        <time>2019-10-01T20:49:05Z</time>
      </trkpt>
      <trkpt lat="46.64396" lon="5.60778">
        <ele>513.3</ele>
        <time>2019-10-01T20:49:09Z</time>
      </trkpt>
      <trkpt lat="46.64431" lon="5.60785">
        <ele>510.3</ele>
        <time>2019-10-01T20:49:26Z</time>
      </trkpt>
      <trkpt lat="46.64469" lon="5.60802">
        <ele>513</ele>
        <time>2019-10-01T20:49:36Z</time>
      </trkpt>
      <trkpt lat="46.64491" lon="5.60817">
        <ele>516.9</ele>
        <time>2019-10-01T20:49:48Z</time>
      </trkpt>
      <trkpt lat="46.64529" lon="5.60828">
        <ele>510.6</ele>
        <time>2019-10-01T20:49:52Z</time>
      </trkpt>
      <trkpt lat="46.6456" lon="5.60857">
        <ele>524</ele>
        <time>2019-10-01T20:50:01Z</time>
      </trkpt>
      <trkpt lat="46.64578" lon="5.6089">
        <ele>526.8</ele>
        <time>2019-10-01T20:50:05Z</time>
      </trkpt>
      <trkpt lat="46.64608" lon="5.60917">
        <ele>525.2</ele>
        <time>2019-10-01T20:50:24Z</time>
      </trkpt>
      <trkpt lat="46.64661" lon="5.60925">
        <ele>515.8</ele>
        <time>2019-10-01T20:50:28Z</time>
      </trkpt>
      <trkpt lat="46.64663" lon="5.60924">
        <ele>515</ele>
        <time>2019-10-01T20:50:35Z</time>
      </trkpt>
      <trkpt lat="46.64698" lon="5.60926">
        <ele>519.4</ele>
        <time>2019-10-01T20:50:47Z</time>
      </trkpt>
      <trkpt lat="46.64722" lon="5.60903">
        <ele>512.7</ele>
        <time>2019-10-01T20:50:51Z</time>
      </trkpt>
      <trkpt lat="46.6472" lon="5.60873">
        <ele>509.1</ele>
        <time>2019-10-01T20:50:57Z</time>
      </trkpt>
      <trkpt lat="46.64729" lon="5.60862">
        <ele>508.4</ele>
        <time>2019-10-01T20:51:13Z</time>
      </trkpt>
      <trkpt lat="46.64743" lon="5.60829">
        <ele>500.6</ele>
        <time>2019-10-01T20:51:29Z</time>
      </trkpt>
      <trkpt lat="46.64752" lon="5.60808">
        <ele>502</ele>
        <time>2019-10-01T20:51:42Z</time>
      </trkpt>
      <trkpt lat="46.6475" lon="5.60789">
        <ele>488.3</ele>
        <time>2019-10-01T20:51:49Z</time>
      </trkpt>
      <trkpt lat="46.64752" lon="5.6078">
        <ele>495.3</ele>
        <time>2019-10-01T20:52:05Z</time>
      </trkpt>
      <trkpt lat="46.64734" lon="5.60794">
        <ele>488.9</ele>
        <time>2019-10-01T20:52:25Z</time>
      </trkpt>
      <trkpt lat="46.64717" lon="5.60809">
        <ele>490.2</ele>
        <time>2019-10-01T20:52:37Z</time>
      </trkpt>
      <trkpt lat="46.64714" lon="5.60814">
        <ele>490.7</ele>
        <time>2019-10-01T20:52:53Z</time>
      </trkpt>
      <trkpt lat="46.64698" lon="5.60828">
        <ele>490.7</ele>
        <time>2019-10-01T20:53:04Z</time>
      </trkpt>
      <trkpt lat="46.64693" lon="5.60826">
        <ele>490.4</ele>
        <time>2019-10-01T20:53:07Z</time>
      </trkpt>
      <trkpt lat="46.64694" lon="5.60825">
        <ele>490.4</ele>
        <time>2019-10-01T20:53:14Z</time>
      </trkpt>
      <trkpt lat="46.64697" lon="5.60816">
        <ele>489.5</ele>
        <time>2019-10-01T20:53:23Z</time>
      </trkpt>
      <trkpt lat="46.64697" lon="5.60814">
        <ele>489.3</ele>
        <time>2019-10-01T20:53:26Z</time>
      </trkpt>
      <trkpt lat="46.64693" lon="5.60809">
        <ele>488.5</ele>
        <time>2019-10-01T20:53:39Z</time>
      </trkpt>
      <trkpt lat="46.64694" lon="5.60804">
        <ele>487.9</ele>
        <time>2019-10-01T20:53:54Z</time>
      </trkpt>
      <trkpt lat="46.64695" lon="5.60804">
        <ele>487.8</ele>
        <time>2019-10-01T20:54:03Z</time>
      </trkpt>
      <trkpt lat="46.64694" lon="5.60804">
        <ele>487.8</ele>
        <time>2019-10-01T20:54:14Z</time>
      </trkpt>
      <trkpt lat="46.64652" lon="5.60642">
        <ele>428</ele>
        <time>2019-10-01T20:54:27Z</time>
      </trkpt>
      <trkpt lat="46.6469" lon="5.60694">
        <ele>451.6</ele>
        <time>2019-10-01T20:54:37Z</time>
      </trkpt>
      <trkpt lat="46.64697" lon="5.60665">
        <ele>430.5</ele>
        <time>2019-10-01T20:54:41Z</time>
      </trkpt>
      <trkpt lat="46.6471" lon="5.60645">
        <ele>429.6</ele>
        <time>2019-10-01T20:54:46Z</time>
      </trkpt>
      <trkpt lat="46.64734" lon="5.6062">
        <ele>426.6</ele>
        <time>2019-10-01T20:54:58Z</time>
      </trkpt>
      <trkpt lat="46.64767" lon="5.60577">
        <ele>411</ele>
        <time>2019-10-01T20:55:15Z</time>
      </trkpt>
      <trkpt lat="46.64814" lon="5.60532">
        <ele>404.5</ele>
        <time>2019-10-01T20:55:19Z</time>
      </trkpt>
      <trkpt lat="46.64822" lon="5.60525">
        <ele>403</ele>
        <time>2019-10-01T20:55:31Z</time>
      </trkpt>
      <trkpt lat="46.64829" lon="5.60508">
        <ele>399</ele>
        <time>2019-10-01T20:55:47Z</time>
      </trkpt>
      <trkpt lat="46.64858" lon="5.60506">
        <ele>405.2</ele>
        <time>2019-10-01T20:55:51Z</time>
      </trkpt>
      <trkpt lat="46.64885" lon="5.60509">
        <ele>407.6</ele>
        <time>2019-10-01T20:56:04Z</time>
      </trkpt>
      <trkpt lat="46.64911" lon="5.60493">
        <ele>397</ele>
        <time>2019-10-01T20:56:24Z</time>
      </trkpt>
      <trkpt lat="46.64935" lon="5.6048">
        <ele>395.5</ele>
        <time>2019-10-01T20:56:38Z</time>
      </trkpt>
      <trkpt lat="46.64943" lon="5.60466">
        <ele>393.3</ele>
        <time>2019-10-01T20:56:51Z</time>
      </trkpt>
      <trkpt lat="46.64982" lon="5.60454">
        <ele>393.4</ele>
        <time>2019-10-01T20:57:00Z</time>
      </trkpt>
      <trkpt lat="46.65024" lon="5.60425">
        <ele>396.2</ele>
        <time>2019-10-01T20:57:10Z</time>
      </trkpt>
      <trkpt lat="46.65076" lon="5.60384">
        <ele>382.2</ele>
        <time>2019-10-01T20:57:15Z</time>
      </trkpt>
      <trkpt lat="46.65122" lon="5.60359">
        <ele>387</ele>
        <time>2019-10-01T20:57:25Z</time>
      </trkpt>
      <trkpt lat="46.65143" lon="5.60338">
        <ele>386.2</ele>
        <time>2019-10-01T20:57:38Z</time>
      </trkpt>
      <trkpt lat="46.65164" lon="5.60308">
        <ele>371.5</ele>
        <time>2019-10-01T20:57:49Z</time>
      </trkpt>
      <trkpt lat="46.65181" lon="5.60278">
        <ele>370.3</ele>
        <time>2019-10-01T20:58:06Z</time>
      </trkpt>
      <trkpt lat="46.65191" lon="5.60268">
        <ele>369.5</ele>
        <time>2019-10-01T20:58:10Z</time>
      </trkpt>
      <trkpt lat="46.65206" lon="5.60241">
        <ele>354.2</ele>
        <time>2019-10-01T20:58:17Z</time>
      </trkpt>
      <trkpt lat="46.65208" lon="5.60233">
        <ele>353.6</ele>
        <time>2019-10-01T20:58:25Z</time>
      </trkpt>
      <trkpt lat="46.65236" lon="5.60194">
        <ele>348.2</ele>
        <time>2019-10-01T20:58:38Z</time>
      </trkpt>
      <trkpt lat="46.65267" lon="5.60153">
        <ele>334.1</ele>
        <time>2019-10-01T20:58:43Z</time>
      </trkpt>
      <trkpt lat="46.65269" lon="5.60149">
        <ele>333.3</ele>
        <time>2019-10-01T20:58:52Z</time>
      </trkpt>
      <trkpt lat="46.65293" lon="5.60142">
        <ele>330.9</ele>
        <time>2019-10-01T20:59:04Z</time>
      </trkpt>
      <trkpt lat="46.6532" lon="5.6014">
        <ele>330</ele>
        <time>2019-10-01T20:59:19Z</time>
      </trkpt>
      <trkpt lat="46.65355" lon="5.60139">
        <ele>326.5</ele>
        <time>2019-10-01T20:59:26Z</time>
      </trkpt>
      <trkpt lat="46.65376" lon="5.60179">
        <ele>333.1</ele>
        <time>2019-10-01T20:59:36Z</time>
      </trkpt>
      <trkpt lat="46.65414" lon="5.60239">
        <ele>333.7</ele>
        <time>2019-10-01T20:59:50Z</time>
      </trkpt>
      <trkpt lat="46.65455" lon="5.60232">
        <ele>329.1</ele>
        <time>2019-10-01T21:00:02Z</time>
      </trkpt>
      <trkpt lat="46.65463" lon="5.60224">
        <ele>328.6</ele>
        <time>2019-10-01T21:00:07Z</time>
      </trkpt>
      <trkpt lat="46.65483" lon="5.60217">
        <ele>328.2</ele>
        <time>2019-10-01T21:00:12Z</time>
      </trkpt>
      <trkpt lat="46.65498" lon="5.60216">
        <ele>328.1</ele>
        <time>2019-10-01T21:00:24Z</time>
      </trkpt>
      <trkpt lat="46.65503" lon="5.60211">
        <ele>329.4</ele>
        <time>2019-10-01T21:00:31Z</time>
      </trkpt>
      <trkpt lat="46.65505" lon="5.60184">
        <ele>327.8</ele>
        <time>2019-10-01T21:00:41Z</time>
      </trkpt>
      <trkpt lat="46.6551" lon="5.60137">
        <ele>326.2</ele>
        <time>2019-10-01T21:00:53Z</time>
      </trkpt>
      <trkpt lat="46.65514" lon="5.60078">
        <ele>323.3</ele>
        <time>2019-10-01T21:01:07Z</time>
      </trkpt>
      <trkpt lat="46.65514" lon="5.60036">
        <ele>323.7</ele>
        <time>2019-10-01T21:01:09Z</time>
      </trkpt>
      <trkpt lat="46.65517" lon="5.60024">
        <ele>323.5</ele>
        <time>2019-10-01T21:01:11Z</time>
      </trkpt>
      <trkpt lat="46.65511" lon="5.59988">
        <ele>321.8</ele>
        <time>2019-10-01T21:01:25Z</time>
      </trkpt>
      <trkpt lat="46.65498" lon="5.59926">
        <ele>319.3</ele>
        <time>2019-10-01T21:01:37Z</time>
      </trkpt>
      <trkpt lat="46.65492" lon="5.59912">
        <ele>318.4</ele>
        <time>2019-10-01T21:01:41Z</time>
      </trkpt>
      <trkpt lat="46.65493" lon="5.59936">
        <ele>319.6</ele>
        <time>2019-10-01T21:01:49Z</time>
      </trkpt>
      <trkpt lat="46.65506" lon="5.59967">
        <ele>321.9</ele>
        <time>2019-10-01T21:01:53Z</time>
      </trkpt>
      <trkpt lat="46.65512" lon="5.59986">
        <ele>321.9</ele>
        <time>2019-10-01T21:02:03Z</time>
      </trkpt>
      <trkpt lat="46.65511" lon="5.59997">
        <ele>321.7</ele>
        <time>2019-10-01T21:02:18Z</time>
      </trkpt>
      <trkpt lat="46.65519" lon="5.60012">
        <ele>323.3</ele>
        <time>2019-10-01T21:02:23Z</time>
      </trkpt>
      <trkpt lat="46.6554" lon="5.60025">
        <ele>324.5</ele>
        <time>2019-10-01T21:02:41Z</time>
      </trkpt>
      <trkpt lat="46.65558" lon="5.60008">
        <ele>325.3</ele>
        <time>2019-10-01T21:02:45Z</time>
      </trkpt>
      <trkpt lat="46.65578" lon="5.59958">
        <ele>323.7</ele>
        <time>2019-10-01T21:02:55Z</time>
      </trkpt>
      <trkpt lat="46.65596" lon="5.59933">
        <ele>328.1</ele>
        <time>2019-10-01T21:03:09Z</time>
      </trkpt>
      <trkpt lat="46.65624" lon="5.59908">
        <ele>326.6</ele>
        <time>2019-10-01T21:03:27Z</time>
      </trkpt>
      <trkpt lat="46.65628" lon="5.59905">
        <ele>326.8</ele>
        <time>2019-10-01T21:03:42Z</time>
      </trkpt>
      <trkpt lat="46.65632" lon="5.59906">
        <ele>327.2</ele>
        <time>2019-10-01T21:03:58Z</time>
      </trkpt>
      <trkpt lat="46.65623" lon="5.59933">
        <ele>330.5</ele>
        <time>2019-10-01T21:04:07Z</time>
      </trkpt>
      <trkpt lat="46.65601" lon="5.59969">
        <ele>330.1</ele>
        <time>2019-10-01T21:04:10Z</time>
      </trkpt>
      <trkpt lat="46.65589" lon="5.60016">
        <ele>331.4</ele>
        <time>2019-10-01T21:04:16Z</time>
      </trkpt>
      <trkpt lat="46.65584" lon="5.60081">
        <ele>329.7</ele>
        <time>2019-10-01T21:04:36Z</time>
      </trkpt>
      <trkpt lat="46.65578" lon="5.6013">
        <ele>328.8</ele>
        <time>2019-10-01T21:04:51Z</time>
      </trkpt>
      <trkpt lat="46.65575" lon="5.60173">
        <ele>332.2</ele>
        <time>2019-10-01T21:04:55Z</time>
      </trkpt>
      <trkpt lat="46.65575" lon="5.60175">
        <ele>332.1</ele>
        <time>2019-10-01T21:05:05Z</time>
      </trkpt>
      <trkpt lat="46.65594" lon="5.60201">
        <ele>340.3</ele>
        <time>2019-10-01T21:05:25Z</time>
      </trkpt>
      <trkpt lat="46.65602" lon="5.60205">
        <ele>341.1</ele>
        <time>2019-10-01T21:05:30Z</time>
      </trkpt>
      <trkpt lat="46.65606" lon="5.60227">
        <ele>341.5</ele>
        <time>2019-10-01T21:05:47Z</time>
      </trkpt>
      <trkpt lat="46.65601" lon="5.60297">
        <ele>341.5</ele>
        <time>2019-10-01T21:05:53Z</time>
      </trkpt>
      <trkpt lat="46.65602" lon="5.60306">
        <ele>341.1</ele>
        <time>2019-10-01T21:06:08Z</time>
      </trkpt>
      <trkpt lat="46.65612" lon="5.60339">
        <ele>340.4</ele>
        <time>2019-10-01T21:06:28Z</time>
      </trkpt>
      <trkpt lat="46.65613" lon="5.60362">
        <ele>340.9</ele>
        <time>2019-10-01T21:06:34Z</time>
      </trkpt>
      <trkpt lat="46.65622" lon="5.60387">
        <ele>341.6</ele>
        <time>2019-10-01T21:06:51Z</time>
      </trkpt>
      <trkpt lat="46.65659" lon="5.6046">
        <ele>341.3</ele>
        <time>2019-10-01T21:06:53Z</time>
      </trkpt>
      <trkpt lat="46.65685" lon="5.60517">
        <ele>344.2</ele>
        <time>2019-10-01T21:06:58Z</time>
      </trkpt>
      <trkpt lat="46.65687" lon="5.60524">
        <ele>344.4</ele>
        <time>2019-10-01T21:07:13Z</time>
      </trkpt>
      <trkpt lat="46.65688" lon="5.60548">
        <ele>343.7</ele>
        <time>2019-10-01T21:07:30Z</time>
      </trkpt>
      <trkpt lat="46.65684" lon="5.60565">
        <ele>342.1</ele>
        <time>2019-10-01T21:07:43Z</time>
      </trkpt>
      <trkpt lat="46.65677" lon="5.60573">
        <ele>340.5</ele>
        <time>2019-10-01T21:07:55Z</time>
      </trkpt>
      <trkpt lat="46.65672" lon="5.60575">
        <ele>339.5</ele>
        <time>2019-10-01T21:08:07Z</time>
      </trkpt>
      <trkpt lat="46.65656" lon="5.60596">
        <ele>340.4</ele>
        <time>2019-10-01T21:08:11Z</time>
      </trkpt>
      <trkpt lat="46.65671" lon="5.60622">
        <ele>343</ele>
        <time>2019-10-01T21:08:21Z</time>
      </trkpt>
      <trkpt lat="46.65704" lon="5.60643">
        <ele>344.6</ele>
        <time>2019-10-01T21:08:30Z</time>
      </trkpt>
      <trkpt lat="46.65752" lon="5.60671">
        <ele>349.3</ele>
        <time>2019-10-01T21:08:39Z</time>
      </trkpt>
      <trkpt lat="46.65787" lon="5.60691">
        <ele>354.2</ele>
        <time>2019-10-01T21:08:57Z</time>
      </trkpt>
      <trkpt lat="46.65823" lon="5.60715">
        <ele>355.9</ele>
        <time>2019-10-01T21:09:15Z</time>
      </trkpt>
      <trkpt lat="46.65846" lon="5.60733">
        <ele>359</ele>
        <time>2019-10-01T21:09:17Z</time>
      </trkpt>
      <trkpt lat="46.65866" lon="5.60754">
        <ele>362.7</ele>
        <time>2019-10-01T21:09:36Z</time>
      </trkpt>
      <trkpt lat="46.65909" lon="5.60775">
        <ele>363.1</ele>
        <time>2019-10-01T21:09:53Z</time>
      </trkpt>
      <trkpt lat="46.65917" lon="5.60783">
        <ele>363.7</ele>
        <time>2019-10-01T21:10:03Z</time>
      </trkpt>
      <trkpt lat="46.65942" lon="5.60802">
        <ele>366.6</ele>
        <time>2019-10-01T21:10:19Z</time>
      </trkpt>
      <trkpt lat="46.65978" lon="5.6083">
        <ele>368</ele>
        <time>2019-10-01T21:10:24Z</time>
      </trkpt>
      <trkpt lat="46.66006" lon="5.6085">
        <ele>373.7</ele>
        <time>2019-10-01T21:10:36Z</time>
      </trkpt>
      <trkpt lat="46.66057" lon="5.60882">
        <ele>378.3</ele>
        <time>2019-10-01T21:10:47Z</time>
      </trkpt>
      <trkpt lat="46.66084" lon="5.60897">
        <ele>382.9</ele>
        <time>2019-10-01T21:11:06Z</time>
      </trkpt>
      <trkpt lat="46.6612" lon="5.60921">
        <ele>384.7</ele>
        <time>2019-10-01T21:11:15Z</time>
      </trkpt>
      <trkpt lat="46.66135" lon="5.60929">
        <ele>385.3</ele>
        <time>2019-10-01T21:11:33Z</time>
      </trkpt>
      <trkpt lat="46.6614" lon="5.60936">
        <ele>385.6</ele>
        <time>2019-10-01T21:11:35Z</time>
      </trkpt>
      <trkpt lat="46.66158" lon="5.60948">
        <ele>386</ele>
        <time>2019-10-01T21:11:48Z</time>
      </trkpt>
      <trkpt lat="46.66183" lon="5.60988">
        <ele>391.4</ele>
        <time>2019-10-01T21:11:53Z</time>
      </trkpt>
      <trkpt lat="46.66191" lon="5.60999">
        <ele>392</ele>
        <time>2019-10-01T21:12:08Z</time>
      </trkpt>
      <trkpt lat="46.66192" lon="5.60999">
        <ele>392.1</ele>
        <time>2019-10-01T21:12:19Z</time>
      </trkpt>
      <trkpt lat="46.66204" lon="5.61015">
        <ele>397.6</ele>
        <time>2019-10-01T21:12:37Z</time>
      </trkpt>
      <trkpt lat="46.66222" lon="5.61048">
        <ele>400.4</ele>
        <time>2019-10-01T21:12:52Z</time>
      </trkpt>
      <trkpt lat="46.66231" lon="5.61071">
        <ele>401.9</ele>
        <time>2019-10-01T21:12:55Z</time>
      </trkpt>
      <trkpt lat="46.6623" lon="5.61081">
        <ele>402.2</ele>
        <time>2019-10-01T21:13:01Z</time>
      </trkpt>
      <trkpt lat="46.66238" lon="5.61113">
        <ele>415.1</ele>
        <time>2019-10-01T21:13:20Z</time>
      </trkpt>
      <trkpt lat="46.66232" lon="5.61119">
        <ele>416.7</ele>
        <time>2019-10-01T21:13:34Z</time>
      </trkpt>
      <trkpt lat="46.6623" lon="5.61133">
        <ele>419.3</ele>
        <time>2019-10-01T21:13:52Z</time>
      </trkpt>
      <trkpt lat="46.66233" lon="5.61159">
        <ele>422.7</ele>
        <time>2019-10-01T21:14:11Z</time>
      </trkpt>
      <trkpt lat="46.66234" lon="5.61174">
        <ele>437.4</ele>
        <time>2019-10-01T21:14:13Z</time>
      </trkpt>
      <trkpt lat="46.66238" lon="5.61183">
        <ele>439.1</ele>
        <time>2019-10-01T21:14:17Z</time>
      </trkpt>
      <trkpt lat="46.66256" lon="5.61213">
        <ele>443.6</ele>
        <time>2019-10-01T21:14:23Z</time>
      </trkpt>
      <trkpt lat="46.66259" lon="5.61209">
        <ele>442.6</ele>
        <time>2019-10-01T21:14:30Z</time>
      </trkpt>
      <trkpt lat="46.6626" lon="5.6121">
        <ele>442.8</ele>
        <time>2019-10-01T21:14:32Z</time>
      </trkpt>
      <trkpt lat="46.66259" lon="5.61211">
        <ele>443.1</ele>
        <time>2019-10-01T21:14:49Z</time>
      </trkpt>
      <trkpt lat="46.66304" lon="5.61228">
        <ele>446.1</ele>
        <time>2019-10-01T21:15:00Z</time>
      </trkpt>
      <trkpt lat="46.66314" lon="5.61237">
        <ele>448.3</ele>
        <time>2019-10-01T21:15:14Z</time>
      </trkpt>
      <trkpt lat="46.66325" lon="5.61236">
        <ele>449.6</ele>
        <time>2019-10-01T21:15:24Z</time>
      </trkpt>
      <trkpt lat="46.66362" lon="5.61234">
        <ele>460.9</ele>
        <time>2019-10-01T21:15:42Z</time>
      </trkpt>
      <trkpt lat="46.66365" lon="5.61227">
        <ele>461.2</ele>
        <time>2019-10-01T21:15:51Z</time>
      </trkpt>
      <trkpt lat="46.6637" lon="5.6122">
        <ele>461.4</ele>
        <time>2019-10-01T21:16:30Z</time>
      </trkpt>
      <trkpt lat="46.66391" lon="5.61209">
        <ele>464.2</ele>
        <time>2019-10-01T21:16:32Z</time>
      </trkpt>
      <trkpt lat="46.66392" lon="5.61209">
        <ele>464.4</ele>
        <time>2019-10-01T21:16:52Z</time>
      </trkpt>
      <trkpt lat="46.66408" lon="5.61185">
        <ele>465.1</ele>
        <time>2019-10-01T21:17:06Z</time>
      </trkpt>
      <trkpt lat="46.66428" lon="5.61159">
        <ele>477.6</ele>
        <time>2019-10-01T21:17:21Z</time>
      </trkpt>
      <trkpt lat="46.66431" lon="5.61158">
        <ele>479.4</ele>
        <time>2019-10-01T21:17:35Z</time>
      </trkpt>
      <trkpt lat="46.66435" lon="5.61152">
        <ele>482</ele>
        <time>2019-10-01T21:17:42Z</time>
      </trkpt>
      <trkpt lat="46.66438" lon="5.6115">
        <ele>483.1</ele>
        <time>2019-10-01T21:17:46Z</time>
      </trkpt>
      <trkpt lat="46.66438" lon="5.61149">
        <ele>483.3</ele>
        <time>2019-10-01T21:18:02Z</time>
      </trkpt>
      <trkpt lat="46.66471" lon="5.61129">
        <ele>494.1</ele>
        <time>2019-10-01T21:18:22Z</time>
      </trkpt>
      <trkpt lat="46.66497" lon="5.61102">
        <ele>501.4</ele>
        <time>2019-10-01T21:18:28Z</time>
      </trkpt>
      <trkpt lat="46.66499" lon="5.61101">
        <ele>502.2</ele>
        <time>2019-10-01T21:18:38Z</time>
      </trkpt>
      <trkpt lat="46.66502" lon="5.61093">
        <ele>518</ele>
        <time>2019-10-01T21:18:40Z</time>
      </trkpt>
      <trkpt lat="46.66502" lon="5.61092">
        <ele>517.6</ele>
        <time>2019-10-01T21:18:59Z</time>
      </trkpt>
      <trkpt lat="46.66494" lon="5.61077">
        <ele>505</ele>
        <time>2019-10-01T21:19:12Z</time>
      </trkpt>
      <trkpt lat="46.66491" lon="5.61037">
        <ele>497.9</ele>
        <time>2019-10-01T21:19:17Z</time>
      </trkpt>
      <trkpt lat="46.66481" lon="5.60993">
        <ele>506</ele>
        <time>2019-10-01T21:19:19Z</time>
      </trkpt>
      <trkpt lat="46.66473" lon="5.60953">
        <ele>500.8</ele>
        <time>2019-10-01T21:19:25Z</time>
      </trkpt>
      <trkpt lat="46.66451" lon="5.60892">
        <ele>505.5</ele>
        <time>2019-10-01T21:19:38Z</time>
      </trkpt>
      <trkpt lat="46.66448" lon="5.60885">
        <ele>505.6</ele>
        <time>2019-10-01T21:19:55Z</time>
      </trkpt>
      <trkpt lat="46.66446" lon="5.60846">
        <ele>508.3</ele>
        <time>2019-10-01T21:20:13Z</time>
      </trkpt>
      <trkpt lat="46.66437" lon="5.60811">
        <ele>518.3</ele>
        <time>2019-10-01T21:20:15Z</time>
      </trkpt>
      <trkpt lat="46.6642" lon="5.6073">
        <ele>532.7</ele>
        <time>2019-10-01T21:20:26Z</time>
      </trkpt>
      <trkpt lat="46.664" lon="5.60691">
        <ele>520.1</ele>
        <time>2019-10-01T21:20:33Z</time>
      </trkpt>
      <trkpt lat="46.66385" lon="5.60657">
        <ele>536</ele>
        <time>2019-10-01T21:20:52Z</time>
      </trkpt>
      <trkpt lat="46.66338" lon="5.60616">
        <ele>534.3</ele>
        <time>2019-10-01T21:21:00Z</time>
      </trkpt>
      <trkpt lat="46.66305" lon="5.6059">
        <ele>516</ele>
        <time>2019-10-01T21:21:07Z</time>
      </trkpt>
      <trkpt lat="46.66267" lon="5.60563">
        <ele>527.8</ele>
        <time>2019-10-01T21:21:23Z</time>
      </trkpt>
      <trkpt lat="46.6626" lon="5.60561">
        <ele>526.7</ele>
        <time>2019-10-01T21:21:36Z</time>
      </trkpt>
      <trkpt lat="46.6624" lon="5.60535">
        <ele>518.3</ele>
        <time>2019-10-01T21:21:44Z</time>
      </trkpt>
      <trkpt lat="46.66207" lon="5.60536">
        <ele>512.3</ele>
        <time>2019-10-01T21:21:47Z</time>
      </trkpt>
      <trkpt lat="46.66165" lon="5.60497">
        <ele>518.3</ele>
        <time>2019-10-01T21:21:58Z</time>
      </trkpt>
      <trkpt lat="46.66136" lon="5.60476">
        <ele>514.3</ele>
        <time>2019-10-01T21:22:02Z</time>
      </trkpt>
      <trkpt lat="46.66114" lon="5.60446">
        <ele>515.8</ele>
        <time>2019-10-01T21:22:21Z</time>
      </trkpt>
      <trkpt lat="46.66113" lon="5.60442">
        <ele>516.2</ele>
        <time>2019-10-01T21:22:26Z</time>
      </trkpt>
      <trkpt lat="46.661" lon="5.60429">
        <ele>517.5</ele>
        <time>2019-10-01T21:22:37Z</time>
      </trkpt>
      <trkpt lat="46.66076" lon="5.60425">
        <ele>504.2</ele>
        <time>2019-10-01T21:22:41Z</time>
      </trkpt>
      <trkpt lat="46.6604" lon="5.60382">
        <ele>504.5</ele>
        <time>2019-10-01T21:22:53Z</time>
      </trkpt>
      <trkpt lat="46.66012" lon="5.60344">
        <ele>500.5</ele>
        <time>2019-10-01T21:23:10Z</time>
      </trkpt>
      <trkpt lat="46.65998" lon="5.6032">
        <ele>486.7</ele>
        <time>2019-10-01T21:23:30Z</time>
      </trkpt>
      <trkpt lat="46.65987" lon="5.60261">
        <ele>485.8</ele>
        <time>2019-10-01T21:23:44Z</time>
      </trkpt>
      <trkpt lat="46.65982" lon="5.60239">
        <ele>482</ele>
        <time>2019-10-01T21:23:52Z</time>
      </trkpt>
      <trkpt lat="46.65987" lon="5.60209">
        <ele>477.1</ele>
        <time>2019-10-01T21:24:12Z</time>
      </trkpt>
      <trkpt lat="46.65989" lon="5.60196">
        <ele>476.8</ele>
        <time>2019-10-01T21:24:23Z</time>
      </trkpt>
      <trkpt lat="46.65998" lon="5.60178">
        <ele>481.3</ele>
        <time>2019-10-01T21:24:29Z</time>
      </trkpt>
      <trkpt lat="46.6603" lon="5.60152">
        <ele>490.6</ele>
        <time>2019-10-01T21:24:42Z</time>
      </trkpt>
      <trkpt lat="46.66064" lon="5.60147">
        <ele>498.6</ele>
        <time>2019-10-01T21:25:00Z</time>
      </trkpt>
      <trkpt lat="46.66067" lon="5.60143">
        <ele>498.4</ele>
        <time>2019-10-01T21:25:06Z</time>
      </trkpt>
      <trkpt lat="46.66068" lon="5.60142">
        <ele>498.5</ele>
        <time>2019-10-01T21:25:26Z</time>
      </trkpt>
      <trkpt lat="46.66069" lon="5.6014">
        <ele>497.9</ele>
        <time>2019-10-01T21:25:32Z</time>
      </trkpt>
      <trkpt lat="46.66083" lon="5.60144">
        <ele>501.6</ele>
        <time>2019-10-01T21:25:37Z</time>
      </trkpt>
      <trkpt lat="46.66097" lon="5.6014">
        <ele>512.2</ele>
        <time>2019-10-01T21:25:44Z</time>
      </trkpt>
      <trkpt lat="46.661" lon="5.60137">
        <ele>511.7</ele>
        <time>2019-10-01T21:25:57Z</time>
      </trkpt>
      <trkpt lat="46.66121" lon="5.60141">
        <ele>513</ele>
        <time>2019-10-01T21:26:12Z</time>
      </trkpt>
      <trkpt lat="46.66159" lon="5.60138">
        <ele>516.1</ele>
        <time>2019-10-01T21:26:30Z</time>
      </trkpt>
      <trkpt lat="46.66169" lon="5.60166">
        <ele>529.1</ele>
        <time>2019-10-01T21:26:50Z</time>
      </trkpt>
      <trkpt lat="46.66178" lon="5.6018">
        <ele>534.2</ele>
        <time>2019-10-01T21:26:52Z</time>
      </trkpt>
      <trkpt lat="46.66195" lon="5.60192">
        <ele>536.7</ele>
        <time>2019-10-01T21:27:06Z</time>
      </trkpt>
      <trkpt lat="46.66195" lon="5.60197">
        <ele>537</ele>
        <time>2019-10-01T21:27:17Z</time>
      </trkpt>
      <trkpt lat="46.66221" lon="5.6023">
        <ele>540.9</ele>
        <time>2019-10-01T21:27:31Z</time>
      </trkpt>
      <trkpt lat="46.6623" lon="5.60242">
        <ele>543.2</ele>
        <time>2019-10-01T21:27:44Z</time>
      </trkpt>
      <trkpt lat="46.66241" lon="5.60246">
        <ele>546.2</ele>
        <time>2019-10-01T21:27:51Z</time>
      </trkpt>
      <trkpt lat="46.66256" lon="5.60253">
        <ele>549.5</ele>
        <time>2019-10-01T21:28:00Z</time>
      </trkpt>
      <trkpt lat="46.66284" lon="5.60296">
        <ele>548.2</ele>
        <time>2019-10-01T21:28:12Z</time>
      </trkpt>
      <trkpt lat="46.66316" lon="5.60344">
        <ele>547.9</ele>
        <time>2019-10-01T21:28:16Z</time>
      </trkpt>
      <trkpt lat="46.66339" lon="5.60388">
        <ele>549.4</ele>
        <time>2019-10-01T21:28:31Z</time>
      </trkpt>
      <trkpt lat="46.66361" lon="5.60433">
        <ele>550.6</ele>
        <time>2019-10-01T21:28:41Z</time>
      </trkpt>
      <trkpt lat="46.66381" lon="5.60472">
        <ele>551</ele>
        <time>2019-10-01T21:28:54Z</time>
      </trkpt>
      <trkpt lat="46.66399" lon="5.60503">
        <ele>550.6</ele>
        <time>2019-10-01T21:29:12Z</time>
      </trkpt>
      <trkpt lat="46.66424" lon="5.60539">
        <ele>556.2</ele>
        <time>2019-10-01T21:29:16Z</time>
      </trkpt>
      <trkpt lat="46.66457" lon="5.60588">
        <ele>556.9</ele>
        <time>2019-10-01T21:29:21Z</time>
      </trkpt>
      <trkpt lat="46.66471" lon="5.60611">
        <ele>557</ele>
        <time>2019-10-01T21:29:34Z</time>
      </trkpt>
      <trkpt lat="46.66476" lon="5.6061">
        <ele>557.4</ele>
        <time>2019-10-01T21:29:41Z</time>
      </trkpt>
      <trkpt lat="46.66481" lon="5.60605">
        <ele>558.1</ele>
        <time>2019-10-01T21:29:43Z</time>
      </trkpt>
      <trkpt lat="46.66502" lon="5.60598">
        <ele>562</ele>
        <time>2019-10-01T21:30:03Z</time>
      </trkpt>
      <trkpt lat="46.66537" lon="5.60572">
        <ele>562.6</ele>
        <time>2019-10-01T21:30:15Z</time>
      </trkpt>
      <trkpt lat="46.66558" lon="5.60558">
        <ele>562.3</ele>
        <time>2019-10-01T21:30:21Z</time>
      </trkpt>
      <trkpt lat="46.6658" lon="5.60544">
        <ele>562.6</ele>
        <time>2019-10-01T21:30:25Z</time>
      </trkpt>
      <trkpt lat="46.66582" lon="5.60544">
        <ele>562.6</ele>
        <time>2019-10-01T21:30:27Z</time>
      </trkpt>
      <trkpt lat="46.66602" lon="5.60525">
        <ele>561.2</ele>
        <time>2019-10-01T21:30:33Z</time>
      </trkpt>
      <trkpt lat="46.66621" lon="5.60506">
        <ele>560.6</ele>
        <time>2019-10-01T21:30:46Z</time>
      </trkpt>
      <trkpt lat="46.66627" lon="5.60496">
        <ele>561.9</ele>
        <time>2019-10-01T21:31:01Z</time>
      </trkpt>
      <trkpt lat="46.66648" lon="5.60484">
        <ele>560.8</ele>
        <time>2019-10-01T21:31:17Z</time>
      </trkpt>
      <trkpt lat="46.66656" lon="5.60485">
        <ele>560.3</ele>
        <time>2019-10-01T21:31:30Z</time>
      </trkpt>
      <trkpt lat="46.66661" lon="5.60482">
        <ele>560.3</ele>
        <time>2019-10-01T21:31:46Z</time>
      </trkpt>
      <trkpt lat="46.66672" lon="5.60483">
        <ele>557.9</ele>
        <time>2019-10-01T21:31:58Z</time>
      </trkpt>
      <trkpt lat="46.66678" lon="5.60482">
        <ele>557.8</ele>
        <time>2019-10-01T21:32:12Z</time>
      </trkpt>
      <trkpt lat="46.66692" lon="5.60495">
        <ele>557.4</ele>
        <time>2019-10-01T21:32:15Z</time>
      </trkpt>
      <trkpt lat="46.6672" lon="5.60538">
        <ele>554.7</ele>
        <time>2019-10-01T21:32:18Z</time>
      </trkpt>
      <trkpt lat="46.66737" lon="5.60579">
        <ele>553.8</ele>
        <time>2019-10-01T21:32:23Z</time>
      </trkpt>
      <trkpt lat="46.66749" lon="5.60608">
        <ele>553</ele>
        <time>2019-10-01T21:32:40Z</time>
      </trkpt>
      <trkpt lat="46.66772" lon="5.60658">
        <ele>551.7</ele>
        <time>2019-10-01T21:32:52Z</time>
      </trkpt>
      <trkpt lat="46.66792" lon="5.60704">
        <ele>552.5</ele>
        <time>2019-10-01T21:32:56Z</time>
      </trkpt>
      <trkpt lat="46.66833" lon="5.60791">
        <ele>554.6</ele>
        <time>2019-10-01T21:33:09Z</time>
      </trkpt>
      <trkpt lat="46.6684" lon="5.60825">
        <ele>556.3</ele>
        <time>2019-10-01T21:33:11Z</time>
      </trkpt>
      <trkpt lat="46.66862" lon="5.60876">
        <ele>553.6</ele>
        <time>2019-10-01T21:33:19Z</time>
      </trkpt>
      <trkpt lat="46.66891" lon="5.60948">
        <ele>551.4</ele>
        <time>2019-10-01T21:33:36Z</time>
      </trkpt>
      <trkpt lat="46.66904" lon="5.60982">
        <ele>552</ele>
        <time>2019-10-01T21:33:56Z</time>
      </trkpt>
      <trkpt lat="46.66932" lon="5.61037">
        <ele>553</ele>
        <time>2019-10-01T21:34:03Z</time>
      </trkpt>
      <trkpt lat="46.66947" lon="5.61071">
        <ele>553.2</ele>
        <time>2019-10-01T21:34:19Z</time>
      </trkpt>
      <trkpt lat="46.6697" lon="5.6112">
        <ele>554.9</ele>
        <time>2019-10-01T21:34:26Z</time>
      </trkpt>
      <trkpt lat="46.66995" lon="5.61173">
        <ele>557.2</ele>
        <time>2019-10-01T21:34:44Z</time>
      </trkpt>
      <trkpt lat="46.67019" lon="5.61226">
        <ele>559.4</ele>
        <time>2019-10-01T21:35:00Z</time>
      </trkpt>
      <trkpt lat="46.67035" lon="5.61268">
        <ele>559.9</ele>
        <time>2019-10-01T21:35:18Z</time>
      </trkpt>
      <trkpt lat="46.67051" lon="5.61319">
        <ele>560.7</ele>
        <time>2019-10-01T21:35:27Z</time>
      </trkpt>
      <trkpt lat="46.67094" lon="5.61411">
        <ele>558.1</ele>
        <time>2019-10-01T21:35:31Z</time>
      </trkpt>
      <trkpt lat="46.67107" lon="5.61433">
        <ele>552.7</ele>
        <time>2019-10-01T21:35:47Z</time>
      </trkpt>
      <trkpt lat="46.67109" lon="5.61442">
        <ele>552</ele>
        <time>2019-10-01T21:35:57Z</time>
      </trkpt>
      <trkpt lat="46.67109" lon="5.61444">
        <ele>551.8</ele>
        <time>2019-10-01T21:36:03Z</time>
      </trkpt>
      <trkpt lat="46.6711" lon="5.6146">
        <ele>550.4</ele>
        <time>2019-10-01T21:36:05Z</time>
      </trkpt>
      <trkpt lat="46.6711" lon="5.61481">
        <ele>548.4</ele>
        <time>2019-10-01T21:36:23Z</time>
      </trkpt>
      <trkpt lat="46.67111" lon="5.61483">
        <ele>548.3</ele>
        <time>2019-10-01T21:36:32Z</time>
      </trkpt>
      <trkpt lat="46.67136" lon="5.61515">
        <ele>542.9</ele>
        <time>2019-10-01T21:36:51Z</time>
      </trkpt>
      <trkpt lat="46.67159" lon="5.61539">
        <ele>542.4</ele>
        <time>2019-10-01T21:37:02Z</time>
      </trkpt>
      <trkpt lat="46.67183" lon="5.61552">
        <ele>544.3</ele>
        <time>2019-10-01T21:37:22Z</time>
      </trkpt>
      <trkpt lat="46.67203" lon="5.61546">
        <ele>545.1</ele>
        <time>2019-10-01T21:37:29Z</time>
      </trkpt>
      <trkpt lat="46.67218" lon="5.61548">
        <ele>545.3</ele>
        <time>2019-10-01T21:37:34Z</time>
      </trkpt>
      <trkpt lat="46.67254" lon="5.61558">
        <ele>546.5</ele>
        <time>2019-10-01T21:37:51Z</time>
      </trkpt>
      <trkpt lat="46.67257" lon="5.6156">
        <ele>546.5</ele>
        <time>2019-10-01T21:37:54Z</time>
      </trkpt>
      <trkpt lat="46.67267" lon="5.61561">
        <ele>546.4</ele>
        <time>2019-10-01T21:37:58Z</time>
      </trkpt>
      <trkpt lat="46.6727" lon="5.6156">
        <ele>546.4</ele>
        <time>2019-10-01T21:38:13Z</time>
      </trkpt>
      <trkpt lat="46.67297" lon="5.61565">
        <ele>546.1</ele>
        <time>2019-10-01T21:38:28Z</time>
      </trkpt>
      <trkpt lat="46.67329" lon="5.61564">
        <ele>545.8</ele>
        <time>2019-10-01T21:38:30Z</time>
      </trkpt>
      <trkpt lat="46.67347" lon="5.61577">
        <ele>543.8</ele>
        <time>2019-10-01T21:38:49Z</time>
      </trkpt>
      <trkpt lat="46.6735" lon="5.61565">
        <ele>543.5</ele>
        <time>2019-10-01T21:39:04Z</time>
      </trkpt>
      <trkpt lat="46.6735" lon="5.61564">
        <ele>543.5</ele>
        <time>2019-10-01T21:39:15Z</time>
      </trkpt>
      <trkpt lat="46.67349" lon="5.61564">
        <ele>543.5</ele>
        <time>2019-10-01T21:39:23Z</time>
      </trkpt>
      <trkpt lat="46.67339" lon="5.61576">
        <ele>544.3</ele>
        <time>2019-10-01T21:39:35Z</time>
      </trkpt>
      <trkpt lat="46.67334" lon="5.61607">
        <ele>543.7</ele>
        <time>2019-10-01T21:39:50Z</time>
      </trkpt>
      <trkpt lat="46.67335" lon="5.61644">
        <ele>543.9</ele>
        <time>2019-10-01T21:40:08Z</time>
      </trkpt>
      <trkpt lat="46.67347" lon="5.61707">
        <ele>545.8</ele>
        <time>2019-10-01T21:40:22Z</time>
      </trkpt>
      <trkpt lat="46.67353" lon="5.6174">
        <ele>546.4</ele>
        <time>2019-10-01T21:40:34Z</time>
      </trkpt>
      <trkpt lat="46.67369" lon="5.61791">
        <ele>547.5</ele>
        <time>2019-10-01T21:40:45Z</time>
      </trkpt>
      <trkpt lat="46.67395" lon="5.61847">
        <ele>545.5</ele>
        <time>2019-10-01T21:40:49Z</time>
      </trkpt>
      <trkpt lat="46.67408" lon="5.6188">
        <ele>544.3</ele>
        <time>2019-10-01T21:40:54Z</time>
      </trkpt>
      <trkpt lat="46.67431" lon="5.61922">
        <ele>541.3</ele>
        <time>2019-10-01T21:41:11Z</time>
      </trkpt>
      <trkpt lat="46.67464" lon="5.61982">
        <ele>539.8</ele>
        <time>2019-10-01T21:41:15Z</time>
      </trkpt>
      <trkpt lat="46.67491" lon="5.62016">
        <ele>538.3</ele>
        <time>2019-10-01T21:41:28Z</time>
      </trkpt>
      <trkpt lat="46.67524" lon="5.62054">
        <ele>537.6</ele>
        <time>2019-10-01T21:41:41Z</time>
      </trkpt>
      <trkpt lat="46.67524" lon="5.62063">
        <ele>537.7</ele>
        <time>2019-10-01T21:41:45Z</time>
      </trkpt>
      <trkpt lat="46.67554" lon="5.6212">
        <ele>537.9</ele>
        <time>2019-10-01T21:41:49Z</time>
      </trkpt>
      <trkpt lat="46.67588" lon="5.62162">
        <ele>538.2</ele>
        <time>2019-10-01T21:41:57Z</time>
      </trkpt>
      <trkpt lat="46.67614" lon="5.62187">
        <ele>537.3</ele>
        <time>2019-10-01T21:42:03Z</time>
      </trkpt>
      <trkpt lat="46.67646" lon="5.62233">
        <ele>536.4</ele>
        <time>2019-10-01T21:42:07Z</time>
      </trkpt>
      <trkpt lat="46.67679" lon="5.62251">
        <ele>534.7</ele>
        <time>2019-10-01T21:42:27Z</time>
      </trkpt>
      <trkpt lat="46.67713" lon="5.62259">
        <ele>534.8</ele>
        <time>2019-10-01T21:42:45Z</time>
      </trkpt>
      <trkpt lat="46.67741" lon="5.62291">
        <ele>534.5</ele>
        <time>2019-10-01T21:42:56Z</time>
      </trkpt>
      <trkpt lat="46.6775" lon="5.62301">
        <ele>537.9</ele>
        <time>2019-10-01T21:43:03Z</time>
      </trkpt>
      <trkpt lat="46.67778" lon="5.62325">
        <ele>538.3</ele>
        <time>2019-10-01T21:43:06Z</time>
      </trkpt>
      <trkpt lat="46.67819" lon="5.62366">
        <ele>537.8</ele>
        <time>2019-10-01T21:43:18Z</time>
      </trkpt>
      <trkpt lat="46.67864" lon="5.62422">
        <ele>537.4</ele>
        <time>2019-10-01T21:43:29Z</time>
      </trkpt>
      <trkpt lat="46.67877" lon="5.62437">
        <ele>537.6</ele>
        <time>2019-10-01T21:43:47Z</time>
      </trkpt>
      <trkpt lat="46.67895" lon="5.62441">
        <ele>538.3</ele>
        <time>2019-10-01T21:43:55Z</time>
      </trkpt>
      <trkpt lat="46.67936" lon="5.62452">
        <ele>541.6</ele>
        <time>2019-10-01T21:44:04Z</time>
      </trkpt>
      <trkpt lat="46.67973" lon="5.62464">
        <ele>542.4</ele>
        <time>2019-10-01T21:44:08Z</time>
      </trkpt>
      <trkpt lat="46.68008" lon="5.62481">
        <ele>545.2</ele>
        <time>2019-10-01T21:44:14Z</time>
      </trkpt>
      <trkpt lat="46.68018" lon="5.62477">
        <ele>545.5</ele>
        <time>2019-10-01T21:44:26Z</time>
      </trkpt>
      <trkpt lat="46.68037" lon="5.62479">
        <ele>545.8</ele>
        <time>2019-10-01T21:44:45Z</time>
      </trkpt>
      <trkpt lat="46.68074" lon="5.62499">
        <ele>545.4</ele>
        <time>2019-10-01T21:44:49Z</time>
      </trkpt>
      <trkpt lat="46.68102" lon="5.62535">
        <ele>541.9</ele>
        <time>2019-10-01T21:44:55Z</time>
      </trkpt>
      <trkpt lat="46.6812" lon="5.62559">
        <ele>541</ele>
        <time>2019-10-01T21:45:04Z</time>
      </trkpt>
      <trkpt lat="46.68122" lon="5.62562">
        <ele>540.9</ele>
        <time>2019-10-01T21:45:12Z</time>
      </trkpt>
      <trkpt lat="46.6816" lon="5.62597">
        <ele>538.8</ele>
        <time>2019-10-01T21:45:31Z</time>
      </trkpt>
      <trkpt lat="46.68191" lon="5.62626">
        <ele>541.5</ele>
        <time>2019-10-01T21:45:46Z</time>
      </trkpt>
      <trkpt lat="46.6823" lon="5.62642">
        <ele>542.8</ele>
        <time>2019-10-01T21:45:48Z</time>
      </trkpt>
      <trkpt lat="46.68274" lon="5.62663">
        <ele>546.8</ele>
        <time>2019-10-01T21:45:59Z</time>
      </trkpt>
      <trkpt lat="46.68302" lon="5.62677">
        <ele>545.4</ele>
        <time>2019-10-01T21:46:18Z</time>
      </trkpt>
      <trkpt lat="46.68325" lon="5.62685">
        <ele>546.2</ele>
        <time>2019-10-01T21:46:27Z</time>
      </trkpt>
      <trkpt lat="46.68352" lon="5.62691">
        <ele>546.8</ele>
        <time>2019-10-01T21:46:29Z</time>
      </trkpt>
      <trkpt lat="46.68377" lon="5.62699">
        <ele>546.5</ele>
        <time>2019-10-01T21:46:39Z</time>
      </trkpt>
      <trkpt lat="46.68444" lon="5.62689">
        <ele>547.2</ele>
        <time>2019-10-01T21:46:45Z</time>
      </trkpt>
      <trkpt lat="46.68486" lon="5.62686">
        <ele>547.1</ele>
        <time>2019-10-01T21:46:50Z</time>
      </trkpt>
      <trkpt lat="46.68496" lon="5.6268">
        <ele>547.7</ele>
        <time>2019-10-01T21:47:02Z</time>
      </trkpt>
      <trkpt lat="46.68523" lon="5.62683">
        <ele>547.3</ele>
        <time>2019-10-01T21:47:20Z</time>
      </trkpt>
      <trkpt lat="46.68538" lon="5.62682">
        <ele>547.2</ele>
        <time>2019-10-01T21:47:25Z</time>
      </trkpt>
      <trkpt lat="46.68539" lon="5.62684">
        <ele>547.2</ele>
        <time>2019-10-01T21:47:36Z</time>
      </trkpt>
      <trkpt lat="46.68549" lon="5.62721">
        <ele>546.2</ele>
        <time>2019-10-01T21:47:49Z</time>
      </trkpt>
      <trkpt lat="46.68548" lon="5.62767">
        <ele>543.5</ele>
        <time>2019-10-01T21:48:09Z</time>
      </trkpt>
      <trkpt lat="46.68543" lon="5.62776">
        <ele>543.2</ele>
        <time>2019-10-01T21:48:15Z</time>
      </trkpt>
      <trkpt lat="46.68537" lon="5.6281">
        <ele>542.7</ele>
        <time>2019-10-01T21:48:23Z</time>
      </trkpt>
      <trkpt lat="46.68545" lon="5.62842">
        <ele>541.7</ele>
        <time>2019-10-01T21:48:43Z</time>
      </trkpt>
      <trkpt lat="46.68563" lon="5.62871">
        <ele>541.7</ele>
        <time>2019-10-01T21:48:56Z</time>
      </trkpt>
      <trkpt lat="46.68595" lon="5.62915">
        <ele>542.5</ele>
        <time>2019-10-01T21:49:05Z</time>
      </trkpt>
      <trkpt lat="46.68609" lon="5.62949">
        <ele>541.4</ele>
        <time>2019-10-01T21:49:13Z</time>
      </trkpt>
      <trkpt lat="46.68623" lon="5.62988">
        <ele>540.9</ele>
        <time>2019-10-01T21:49:25Z</time>
      </trkpt>
      <trkpt lat="46.68635" lon="5.63025">
        <ele>537.9</ele>
        <time>2019-10-01T21:49:42Z</time>
      </trkpt>
      <trkpt lat="46.68656" lon="5.63058">
        <ele>536.8</ele>
        <time>2019-10-01T21:49:51Z</time>
      </trkpt>
      <trkpt lat="46.68677" lon="5.63083">
        <ele>534.4</ele>
        <time>2019-10-01T21:50:05Z</time>
      </trkpt>
      <trkpt lat="46.68701" lon="5.63106">
        <ele>533.6</ele>
        <time>2019-10-01T21:50:15Z</time>
      </trkpt>
      <trkpt lat="46.68722" lon="5.63119">
        <ele>533.2</ele>
        <time>2019-10-01T21:50:35Z</time>
      </trkpt>
      <trkpt lat="46.68763" lon="5.63128">
        <ele>532.3</ele>
        <time>2019-10-01T21:50:55Z</time>
      </trkpt>
      <trkpt lat="46.68809" lon="5.63141">
        <ele>531.8</ele>
        <time>2019-10-01T21:51:04Z</time>
      </trkpt>
      <trkpt lat="46.68839" lon="5.63152">
        <ele>531.4</ele>
        <time>2019-10-01T21:51:06Z</time>
        <extensions>
          <visugpx:TrkExtension xmlns:visugpx="https://www.visugpx.com/editgpx/">
            <visugpx:node>1</visugpx:node>
            </visugpx:TrkExtension>
        </extensions>
      </trkpt>
      <trkpt lat="46.68843" lon="5.63149">
        <ele>530.4</ele>
      </trkpt>
      <trkpt lat="46.68858" lon="5.63161">
        <ele>530.2</ele>
      </trkpt>
      <trkpt lat="46.68877" lon="5.63175">
        <ele>530</ele>
      </trkpt>
      <trkpt lat="46.68892" lon="5.63185">
        <ele>529.6</ele>
      </trkpt>
      <trkpt lat="46.689" lon="5.63187">
        <ele>529.2</ele>
      </trkpt>
      <trkpt lat="46.68919" lon="5.63193">
        <ele>528.2</ele>
      </trkpt>
      <trkpt lat="46.6893" lon="5.63197">
        <ele>527.7</ele>
      </trkpt>
      <trkpt lat="46.68942" lon="5.63201">
        <ele>527.3</ele>
      </trkpt>
      <trkpt lat="46.68954" lon="5.63207">
        <ele>527.3</ele>
      </trkpt>
      <trkpt lat="46.68967" lon="5.63214">
        <ele>527.5</ele>
      </trkpt>
      <trkpt lat="46.68981" lon="5.63223">
        <ele>527.3</ele>
      </trkpt>
      <trkpt lat="46.68996" lon="5.63234">
        <ele>527.4</ele>
      </trkpt>
      <trkpt lat="46.69006" lon="5.63243">
        <ele>527.5</ele>
      </trkpt>
      <trkpt lat="46.69022" lon="5.63267">
        <ele>526.6</ele>
      </trkpt>
      <trkpt lat="46.69027" lon="5.63275">
        <ele>526.2</ele>
      </trkpt>
      <trkpt lat="46.69054" lon="5.63291">
        <ele>526</ele>
      </trkpt>
      <trkpt lat="46.69102" lon="5.63313">
        <ele>525</ele>
      </trkpt>
      <trkpt lat="46.69117" lon="5.6332">
        <ele>524.1</ele>
      </trkpt>
      <trkpt lat="46.69135" lon="5.63326">
        <ele>522.7</ele>
      </trkpt>
      <trkpt lat="46.69154" lon="5.6333">
        <ele>521.7</ele>
      </trkpt>
      <trkpt lat="46.69177" lon="5.63333">
        <ele>521</ele>
      </trkpt>
      <trkpt lat="46.69202" lon="5.63337">
        <ele>520.7</ele>
      </trkpt>
      <trkpt lat="46.69224" lon="5.63343">
        <ele>520.3</ele>
      </trkpt>
      <trkpt lat="46.69239" lon="5.63348">
        <ele>519.9</ele>
      </trkpt>
      <trkpt lat="46.69253" lon="5.63356">
        <ele>519.3</ele>
      </trkpt>
      <trkpt lat="46.69268" lon="5.63367">
        <ele>518.8</ele>
      </trkpt>
      <trkpt lat="46.69281" lon="5.6338">
        <ele>518.1</ele>
      </trkpt>
      <trkpt lat="46.69295" lon="5.63394">
        <ele>516.6</ele>
      </trkpt>
      <trkpt lat="46.69307" lon="5.63408">
        <ele>515.3</ele>
      </trkpt>
      <trkpt lat="46.69315" lon="5.63418">
        <ele>514.9</ele>
      </trkpt>
      <trkpt lat="46.69326" lon="5.63433">
        <ele>513.8</ele>
      </trkpt>
      <trkpt lat="46.6934" lon="5.63438">
        <ele>513.5</ele>
      </trkpt>
      <trkpt lat="46.69358" lon="5.63448">
        <ele>512.7</ele>
      </trkpt>
      <trkpt lat="46.69378" lon="5.6346">
        <ele>512.5</ele>
      </trkpt>
      <trkpt lat="46.694" lon="5.63471">
        <ele>512.5</ele>
      </trkpt>
      <trkpt lat="46.69421" lon="5.63485">
        <ele>512.2</ele>
      </trkpt>
      <trkpt lat="46.69438" lon="5.63493">
        <ele>512.1</ele>
      </trkpt>
      <trkpt lat="46.6945" lon="5.63496">
        <ele>512</ele>
      </trkpt>
      <trkpt lat="46.69468" lon="5.63498">
        <ele>511.3</ele>
      </trkpt>
      <trkpt lat="46.69479" lon="5.63501">
        <ele>510.7</ele>
      </trkpt>
      <trkpt lat="46.6949" lon="5.63508">
        <ele>510.1</ele>
      </trkpt>
      <trkpt lat="46.69497" lon="5.63516">
        <ele>509.5</ele>
      </trkpt>
      <trkpt lat="46.69505" lon="5.63526">
        <ele>509</ele>
        <extensions>
          <visugpx:TrkExtension xmlns:visugpx="https://www.visugpx.com/editgpx/">
            <visugpx:node>2</visugpx:node>
            </visugpx:TrkExtension>
        </extensions>
      </trkpt>
      <trkpt lat="46.6951" lon="5.63532">
        <ele>509.1</ele>
      </trkpt>
      <trkpt lat="46.6952" lon="5.63547">
        <ele>509.5</ele>
      </trkpt>
      <trkpt lat="46.69527" lon="5.63556">
        <ele>510</ele>
      </trkpt>
      <trkpt lat="46.6954" lon="5.63566">
        <ele>509.3</ele>
      </trkpt>
      <trkpt lat="46.6955" lon="5.63577">
        <ele>509</ele>
      </trkpt>
      <trkpt lat="46.69562" lon="5.63586">
        <ele>507.6</ele>
      </trkpt>
      <trkpt lat="46.69574" lon="5.63597">
        <ele>507.1</ele>
      </trkpt>
      <trkpt lat="46.69583" lon="5.63607">
        <ele>508.8</ele>
      </trkpt>
      <trkpt lat="46.69594" lon="5.63609">
        <ele>508.5</ele>
      </trkpt>
      <trkpt lat="46.6961" lon="5.63617">
        <ele>508.7</ele>
      </trkpt>
      <trkpt lat="46.69628" lon="5.63636">
        <ele>509.2</ele>
        <extensions>
          <visugpx:TrkExtension xmlns:visugpx="https://www.visugpx.com/editgpx/">
            <visugpx:node>3</visugpx:node>
            </visugpx:TrkExtension>
        </extensions>
      </trkpt>
      <trkpt lat="46.6961" lon="5.63617">
        <ele>508.7</ele>
      </trkpt>
      <trkpt lat="46.69661" lon="5.63614">
        <ele>495.2</ele>
      </trkpt>
      <trkpt lat="46.69689" lon="5.63606">
        <ele>485.5</ele>
      </trkpt>
      <trkpt lat="46.69734" lon="5.63642">
        <ele>504</ele>
      </trkpt>
      <trkpt lat="46.69763" lon="5.63662">
        <ele>504.7</ele>
      </trkpt>
      <trkpt lat="46.69817" lon="5.63651">
        <ele>506.8</ele>
      </trkpt>
      <trkpt lat="46.69856" lon="5.63647">
        <ele>507.9</ele>
      </trkpt>
      <trkpt lat="46.69905" lon="5.63646">
        <ele>507.3</ele>
      </trkpt>
      <trkpt lat="46.69925" lon="5.63643">
        <ele>507</ele>
      </trkpt>
      <trkpt lat="46.69943" lon="5.63635">
        <ele>507.1</ele>
      </trkpt>
      <trkpt lat="46.69953" lon="5.63631">
        <ele>507.3</ele>
        <extensions>
          <visugpx:TrkExtension xmlns:visugpx="https://www.visugpx.com/editgpx/">
            <visugpx:node>4</visugpx:node>
            </visugpx:TrkExtension>
        </extensions>
      </trkpt>
      <trkpt lat="46.69964" lon="5.63626">
        <ele>507.5</ele>
      </trkpt>
      <trkpt lat="46.69997" lon="5.63617">
        <ele>506.7</ele>
      </trkpt>
      <trkpt lat="46.70021" lon="5.63586">
        <ele>509</ele>
      </trkpt>
      <trkpt lat="46.70053" lon="5.63513">
        <ele>509.6</ele>
      </trkpt>
      <trkpt lat="46.70091" lon="5.63488">
        <ele>507.7</ele>
      </trkpt>
      <trkpt lat="46.70121" lon="5.63462">
        <ele>505.5</ele>
      </trkpt>
      <trkpt lat="46.70158" lon="5.63444">
        <ele>502.2</ele>
      </trkpt>
      <trkpt lat="46.70222" lon="5.63435">
        <ele>492.6</ele>
      </trkpt>
      <trkpt lat="46.70282" lon="5.63439">
        <ele>484.1</ele>
      </trkpt>
      <trkpt lat="46.70369" lon="5.63442">
        <ele>472.5</ele>
      </trkpt>
      <trkpt lat="46.70461" lon="5.63438">
        <ele>454.6</ele>
      </trkpt>
      <trkpt lat="46.70546" lon="5.63465">
        <ele>446.4</ele>
      </trkpt>
      <trkpt lat="46.70612" lon="5.63467">
        <ele>435.2</ele>
      </trkpt>
      <trkpt lat="46.70684" lon="5.63475">
        <ele>428.9</ele>
      </trkpt>
      <trkpt lat="46.70762" lon="5.63479">
        <ele>418.3</ele>
      </trkpt>
      <trkpt lat="46.70851" lon="5.6348">
        <ele>404.9</ele>
      </trkpt>
      <trkpt lat="46.70922" lon="5.63489">
        <ele>394</ele>
      </trkpt>
      <trkpt lat="46.70961" lon="5.63496">
        <ele>388</ele>
      </trkpt>
      <trkpt lat="46.70962" lon="5.63484">
        <ele>383.7</ele>
      </trkpt>
      <trkpt lat="46.70951" lon="5.63471">
        <ele>381.8</ele>
      </trkpt>
      <trkpt lat="46.70927" lon="5.63449">
        <ele>377.1</ele>
      </trkpt>
      <trkpt lat="46.70926" lon="5.63442">
        <ele>374.6</ele>
      </trkpt>
      <trkpt lat="46.70944" lon="5.63428">
        <ele>367.3</ele>
      </trkpt>
      <trkpt lat="46.70988" lon="5.63418">
        <ele>354.4</ele>
      </trkpt>
      <trkpt lat="46.71006" lon="5.63422">
        <ele>350.6</ele>
        <extensions>
          <visugpx:TrkExtension xmlns:visugpx="https://www.visugpx.com/editgpx/">
            <visugpx:node>5</visugpx:node>
            </visugpx:TrkExtension>
        </extensions>
      </trkpt>
      <trkpt lat="46.7101" lon="5.63423">
        <ele>349.8</ele>
      </trkpt>
      <trkpt lat="46.71017" lon="5.63435">
        <ele>349.3</ele>
      </trkpt>
      <trkpt lat="46.71019" lon="5.63445">
        <ele>349.5</ele>
      </trkpt>
      <trkpt lat="46.71021" lon="5.63457">
        <ele>348</ele>
      </trkpt>
      <trkpt lat="46.71023" lon="5.63472">
        <ele>345.9</ele>
      </trkpt>
      <trkpt lat="46.71029" lon="5.63491">
        <ele>344.6</ele>
      </trkpt>
      <trkpt lat="46.71035" lon="5.63501">
        <ele>343.3</ele>
      </trkpt>
      <trkpt lat="46.71041" lon="5.63507">
        <ele>342.2</ele>
      </trkpt>
      <trkpt lat="46.71047" lon="5.63514">
        <ele>341.1</ele>
      </trkpt>
      <trkpt lat="46.7105" lon="5.63518">
        <ele>340.6</ele>
      </trkpt>
      <trkpt lat="46.7105" lon="5.63524">
        <ele>341.7</ele>
      </trkpt>
      <trkpt lat="46.7105" lon="5.63526">
        <ele>342.1</ele>
      </trkpt>
      <trkpt lat="46.71055" lon="5.63531">
        <ele>342.3</ele>
      </trkpt>
      <trkpt lat="46.71065" lon="5.63538">
        <ele>342.4</ele>
      </trkpt>
      <trkpt lat="46.71076" lon="5.63545">
        <ele>341.2</ele>
      </trkpt>
      <trkpt lat="46.71088" lon="5.63549">
        <ele>337.8</ele>
      </trkpt>
      <trkpt lat="46.711" lon="5.63555">
        <ele>335.6</ele>
      </trkpt>
      <trkpt lat="46.71116" lon="5.63565">
        <ele>330.9</ele>
      </trkpt>
      <trkpt lat="46.71127" lon="5.63575">
        <ele>326.8</ele>
      </trkpt>
      <trkpt lat="46.71131" lon="5.63585">
        <ele>326.6</ele>
      </trkpt>
      <trkpt lat="46.71134" lon="5.63594">
        <ele>325.2</ele>
      </trkpt>
      <trkpt lat="46.71136" lon="5.63612">
        <ele>325.1</ele>
      </trkpt>
      <trkpt lat="46.71137" lon="5.63636">
        <ele>323.5</ele>
      </trkpt>
      <trkpt lat="46.71136" lon="5.63658">
        <ele>320.7</ele>
      </trkpt>
      <trkpt lat="46.71133" lon="5.63675">
        <ele>320</ele>
      </trkpt>
      <trkpt lat="46.71129" lon="5.63698">
        <ele>318.9</ele>
      </trkpt>
      <trkpt lat="46.71126" lon="5.63718">
        <ele>317.6</ele>
      </trkpt>
      <trkpt lat="46.71125" lon="5.63734">
        <ele>316</ele>
      </trkpt>
      <trkpt lat="46.71125" lon="5.63758">
        <ele>313</ele>
      </trkpt>
      <trkpt lat="46.71122" lon="5.6379">
        <ele>311</ele>
      </trkpt>
      <trkpt lat="46.71122" lon="5.63821">
        <ele>307.9</ele>
      </trkpt>
      <trkpt lat="46.7112" lon="5.63844">
        <ele>308.2</ele>
      </trkpt>
      <trkpt lat="46.71118" lon="5.63859">
        <ele>308.9</ele>
      </trkpt>
      <trkpt lat="46.71118" lon="5.63866">
        <ele>308.6</ele>
      </trkpt>
      <trkpt lat="46.7112" lon="5.63881">
        <ele>306.8</ele>
      </trkpt>
      <trkpt lat="46.71121" lon="5.63889">
        <ele>305.9</ele>
      </trkpt>
      <trkpt lat="46.71121" lon="5.63899">
        <ele>305.6</ele>
      </trkpt>
      <trkpt lat="46.7112" lon="5.63936">
        <ele>304.6</ele>
      </trkpt>
      <trkpt lat="46.7112" lon="5.63995">
        <ele>302.8</ele>
      </trkpt>
      <trkpt lat="46.71122" lon="5.64051">
        <ele>302.7</ele>
      </trkpt>
      <trkpt lat="46.71125" lon="5.64091">
        <ele>303</ele>
      </trkpt>
      <trkpt lat="46.71132" lon="5.64121">
        <ele>299.5</ele>
      </trkpt>
      <trkpt lat="46.71133" lon="5.64102">
        <ele>299.5</ele>
      </trkpt>
      <trkpt lat="46.71131" lon="5.64064">
        <ele>299.5</ele>
        <extensions>
          <visugpx:TrkExtension xmlns:visugpx="https://www.visugpx.com/editgpx/">
            <visugpx:node>6</visugpx:node>
            </visugpx:TrkExtension>
        </extensions>
      </trkpt>
      <trkpt lat="46.71133" lon="5.64102">
        <ele>299.5</ele>
      </trkpt>
      <trkpt lat="46.71132" lon="5.64121">
        <ele>299.5</ele>
      </trkpt>
      <trkpt lat="46.71129" lon="5.64143">
        <ele>299.7</ele>
      </trkpt>
      <trkpt lat="46.71123" lon="5.64169">
        <ele>300.1</ele>
      </trkpt>
      <trkpt lat="46.71119" lon="5.6419">
        <ele>300.2</ele>
      </trkpt>
      <trkpt lat="46.71116" lon="5.64215">
        <ele>300.3</ele>
      </trkpt>
      <trkpt lat="46.71113" lon="5.64242">
        <ele>299.3</ele>
      </trkpt>
      <trkpt lat="46.71108" lon="5.64269">
        <ele>300.7</ele>
      </trkpt>
      <trkpt lat="46.71102" lon="5.64291">
        <ele>302.5</ele>
      </trkpt>
      <trkpt lat="46.71094" lon="5.64313">
        <ele>303.3</ele>
      </trkpt>
      <trkpt lat="46.71083" lon="5.64335">
        <ele>303</ele>
      </trkpt>
      <trkpt lat="46.71069" lon="5.64359">
        <ele>304.6</ele>
      </trkpt>
      <trkpt lat="46.7105" lon="5.6439">
        <ele>306.7</ele>
      </trkpt>
      <trkpt lat="46.71038" lon="5.64409">
        <ele>307.7</ele>
      </trkpt>
      <trkpt lat="46.71029" lon="5.64424">
        <ele>306.2</ele>
      </trkpt>
      <trkpt lat="46.71022" lon="5.64434">
        <ele>306.3</ele>
      </trkpt>
      <trkpt lat="46.71014" lon="5.64443">
        <ele>306</ele>
      </trkpt>
      <trkpt lat="46.71005" lon="5.64451">
        <ele>306.1</ele>
      </trkpt>
      <trkpt lat="46.71004" lon="5.64455">
        <ele>305.2</ele>
      </trkpt>
      <trkpt lat="46.71002" lon="5.64461">
        <ele>303.9</ele>
      </trkpt>
      <trkpt lat="46.70995" lon="5.64472">
        <ele>302.2</ele>
      </trkpt>
      <trkpt lat="46.70989" lon="5.64482">
        <ele>301.8</ele>
      </trkpt>
      <trkpt lat="46.70983" lon="5.64489">
        <ele>301.2</ele>
      </trkpt>
      <trkpt lat="46.70979" lon="5.64494">
        <ele>300.4</ele>
      </trkpt>
      <trkpt lat="46.70978" lon="5.64495">
        <ele>300.2</ele>
      </trkpt>
      <trkpt lat="46.70979" lon="5.64499">
        <ele>299.2</ele>
      </trkpt>
      <trkpt lat="46.70982" lon="5.64508">
        <ele>299.3</ele>
      </trkpt>
      <trkpt lat="46.70983" lon="5.64518">
        <ele>299.8</ele>
      </trkpt>
      <trkpt lat="46.70981" lon="5.64524">
        <ele>299.8</ele>
      </trkpt>
      <trkpt lat="46.7098" lon="5.64531">
        <ele>300.1</ele>
      </trkpt>
      <trkpt lat="46.70981" lon="5.64539">
        <ele>300.9</ele>
      </trkpt>
      <trkpt lat="46.70982" lon="5.6455">
        <ele>301.9</ele>
      </trkpt>
      <trkpt lat="46.70982" lon="5.64557">
        <ele>302.7</ele>
      </trkpt>
      <trkpt lat="46.70968" lon="5.64581">
        <ele>304.7</ele>
      </trkpt>
      <trkpt lat="46.70964" lon="5.64589">
        <ele>305</ele>
      </trkpt>
      <trkpt lat="46.70965" lon="5.64594">
        <ele>306</ele>
      </trkpt>
      <trkpt lat="46.70974" lon="5.64612">
        <ele>310.2</ele>
      </trkpt>
      <trkpt lat="46.70987" lon="5.64638">
        <ele>312.9</ele>
      </trkpt>
      <trkpt lat="46.70991" lon="5.64644">
        <ele>313.5</ele>
      </trkpt>
      <trkpt lat="46.70985" lon="5.64651">
        <ele>313.8</ele>
      </trkpt>
      <trkpt lat="46.70985" lon="5.64652">
        <ele>313.9</ele>
        <extensions>
          <visugpx:TrkExtension xmlns:visugpx="https://www.visugpx.com/editgpx/">
            <visugpx:node>7</visugpx:node>
            </visugpx:TrkExtension>
        </extensions>
      </trkpt>
      <trkpt lat="46.70979" lon="5.64658">
        <ele>313.7</ele>
      </trkpt>
      <trkpt lat="46.70969" lon="5.64671">
        <ele>312.9</ele>
      </trkpt>
      <trkpt lat="46.70965" lon="5.64673">
        <ele>312.8</ele>
      </trkpt>
      <trkpt lat="46.70959" lon="5.64679">
        <ele>312.7</ele>
      </trkpt>
      <trkpt lat="46.70945" lon="5.64689">
        <ele>312.6</ele>
      </trkpt>
      <trkpt lat="46.70938" lon="5.64694">
        <ele>313</ele>
      </trkpt>
      <trkpt lat="46.70931" lon="5.64696">
        <ele>313.1</ele>
      </trkpt>
      <trkpt lat="46.70922" lon="5.647">
        <ele>313.5</ele>
      </trkpt>
      <trkpt lat="46.70909" lon="5.64708">
        <ele>313.2</ele>
      </trkpt>
      <trkpt lat="46.70897" lon="5.64717">
        <ele>312.9</ele>
      </trkpt>
      <trkpt lat="46.70889" lon="5.64721">
        <ele>312.7</ele>
      </trkpt>
      <trkpt lat="46.70878" lon="5.64726">
        <ele>311.5</ele>
      </trkpt>
      <trkpt lat="46.70867" lon="5.6473">
        <ele>310</ele>
      </trkpt>
      <trkpt lat="46.70858" lon="5.64733">
        <ele>309.1</ele>
      </trkpt>
      <trkpt lat="46.70842" lon="5.64742">
        <ele>309.6</ele>
      </trkpt>
      <trkpt lat="46.70813" lon="5.64759">
        <ele>309.3</ele>
      </trkpt>
      <trkpt lat="46.70806" lon="5.64761">
        <ele>309</ele>
        <extensions>
          <visugpx:TrkExtension xmlns:visugpx="https://www.visugpx.com/editgpx/">
            <visugpx:node>8</visugpx:node>
            </visugpx:TrkExtension>
        </extensions>
      </trkpt>
      <trkpt lat="46.70798" lon="5.64761">
        <ele>308.1</ele>
      </trkpt>
      <trkpt lat="46.70792" lon="5.64759">
        <ele>307.2</ele>
      </trkpt>
      <trkpt lat="46.70786" lon="5.64754">
        <ele>306</ele>
      </trkpt>
      <trkpt lat="46.70783" lon="5.6475">
        <ele>305.4</ele>
      </trkpt>
      <trkpt lat="46.70781" lon="5.64744">
        <ele>304.8</ele>
      </trkpt>
      <trkpt lat="46.7078" lon="5.64737">
        <ele>304.3</ele>
      </trkpt>
      <trkpt lat="46.7078" lon="5.64727">
        <ele>303.6</ele>
      </trkpt>
      <trkpt lat="46.70781" lon="5.64714">
        <ele>302.6</ele>
      </trkpt>
      <trkpt lat="46.70782" lon="5.64705">
        <ele>301.9</ele>
      </trkpt>
      <trkpt lat="46.70782" lon="5.647">
        <ele>301.4</ele>
      </trkpt>
      <trkpt lat="46.70779" lon="5.64687">
        <ele>300.7</ele>
      </trkpt>
      <trkpt lat="46.70777" lon="5.64678">
        <ele>301.2</ele>
      </trkpt>
      <trkpt lat="46.70775" lon="5.64664">
        <ele>302</ele>
      </trkpt>
      <trkpt lat="46.70772" lon="5.64648">
        <ele>302.3</ele>
      </trkpt>
      <trkpt lat="46.70769" lon="5.64633">
        <ele>303.5</ele>
      </trkpt>
      <trkpt lat="46.70767" lon="5.64626">
        <ele>304.8</ele>
      </trkpt>
      <trkpt lat="46.70764" lon="5.64627">
        <ele>304.9</ele>
        <extensions>
          <visugpx:TrkExtension xmlns:visugpx="https://www.visugpx.com/editgpx/">
            <visugpx:node>9</visugpx:node>
            </visugpx:TrkExtension>
        </extensions>
      </trkpt>
      <trkpt lat="46.70755" lon="5.64631">
        <ele>305</ele>
      </trkpt>
      <trkpt lat="46.70748" lon="5.64636">
        <ele>304.8</ele>
      </trkpt>
      <trkpt lat="46.70731" lon="5.64646">
        <ele>306</ele>
      </trkpt>
      <trkpt lat="46.70719" lon="5.64653">
        <ele>306.7</ele>
      </trkpt>
      <trkpt lat="46.70707" lon="5.64657">
        <ele>306.9</ele>
      </trkpt>
      <trkpt lat="46.70687" lon="5.64662">
        <ele>307.4</ele>
      </trkpt>
      <trkpt lat="46.70668" lon="5.64664">
        <ele>307.3</ele>
      </trkpt>
      <trkpt lat="46.70661" lon="5.64664">
        <ele>307.1</ele>
      </trkpt>
      <trkpt lat="46.70656" lon="5.64662">
        <ele>307.2</ele>
      </trkpt>
      <trkpt lat="46.70652" lon="5.64661">
        <ele>307.2</ele>
      </trkpt>
      <trkpt lat="46.70643" lon="5.64658">
        <ele>307.3</ele>
      </trkpt>
      <trkpt lat="46.70632" lon="5.64654">
        <ele>308</ele>
      </trkpt>
      <trkpt lat="46.7062" lon="5.64651">
        <ele>308.5</ele>
      </trkpt>
      <trkpt lat="46.70611" lon="5.6465">
        <ele>308.6</ele>
      </trkpt>
      <trkpt lat="46.706" lon="5.64652">
        <ele>309.8</ele>
      </trkpt>
      <trkpt lat="46.70595" lon="5.64653">
        <ele>310.2</ele>
      </trkpt>
      <trkpt lat="46.70592" lon="5.64653">
        <ele>310.5</ele>
      </trkpt>
      <trkpt lat="46.70561" lon="5.6466">
        <ele>311.3</ele>
      </trkpt>
      <trkpt lat="46.70547" lon="5.64664">
        <ele>310.1</ele>
      </trkpt>
      <trkpt lat="46.7054" lon="5.64668">
        <ele>309.4</ele>
      </trkpt>
      <trkpt lat="46.70532" lon="5.64672">
        <ele>309.4</ele>
      </trkpt>
      <trkpt lat="46.70523" lon="5.64672">
        <ele>310.3</ele>
      </trkpt>
      <trkpt lat="46.70518" lon="5.6467">
        <ele>310.8</ele>
      </trkpt>
      <trkpt lat="46.70506" lon="5.64664">
        <ele>312.2</ele>
      </trkpt>
      <trkpt lat="46.70499" lon="5.64661">
        <ele>313.1</ele>
      </trkpt>
      <trkpt lat="46.70488" lon="5.64656">
        <ele>314.1</ele>
      </trkpt>
      <trkpt lat="46.70472" lon="5.64649">
        <ele>315.4</ele>
      </trkpt>
      <trkpt lat="46.7046" lon="5.64644">
        <ele>315.2</ele>
      </trkpt>
      <trkpt lat="46.70445" lon="5.64636">
        <ele>315</ele>
      </trkpt>
      <trkpt lat="46.7043" lon="5.64625">
        <ele>315</ele>
      </trkpt>
      <trkpt lat="46.70418" lon="5.64616">
        <ele>314.4</ele>
      </trkpt>
      <trkpt lat="46.70408" lon="5.64608">
        <ele>314.4</ele>
      </trkpt>
      <trkpt lat="46.70402" lon="5.64603">
        <ele>314.5</ele>
      </trkpt>
      <trkpt lat="46.70401" lon="5.64602">
        <ele>314.4</ele>
        <extensions>
          <visugpx:TrkExtension xmlns:visugpx="https://www.visugpx.com/editgpx/">
            <visugpx:node>10</visugpx:node>
            </visugpx:TrkExtension>
        </extensions>
      </trkpt>
      <trkpt lat="46.70399" lon="5.646">
        <ele>314.4</ele>
      </trkpt>
      <trkpt lat="46.70388" lon="5.64592">
        <ele>314</ele>
      </trkpt>
      <trkpt lat="46.70371" lon="5.64577">
        <ele>314.2</ele>
      </trkpt>
      <trkpt lat="46.7036" lon="5.64569">
        <ele>314.5</ele>
      </trkpt>
      <trkpt lat="46.70354" lon="5.64567">
        <ele>314.4</ele>
      </trkpt>
      <trkpt lat="46.70344" lon="5.64563">
        <ele>314.3</ele>
      </trkpt>
      <trkpt lat="46.70332" lon="5.6456">
        <ele>314.2</ele>
      </trkpt>
      <trkpt lat="46.70324" lon="5.64557">
        <ele>314.4</ele>
      </trkpt>
      <trkpt lat="46.70316" lon="5.64555">
        <ele>314.6</ele>
      </trkpt>
      <trkpt lat="46.703" lon="5.64548">
        <ele>314.7</ele>
      </trkpt>
      <trkpt lat="46.70287" lon="5.64542">
        <ele>314.5</ele>
      </trkpt>
      <trkpt lat="46.70265" lon="5.64532">
        <ele>314.5</ele>
      </trkpt>
      <trkpt lat="46.7024" lon="5.64522">
        <ele>314.9</ele>
      </trkpt>
      <trkpt lat="46.70227" lon="5.64517">
        <ele>314.9</ele>
      </trkpt>
      <trkpt lat="46.70219" lon="5.64514">
        <ele>315.2</ele>
      </trkpt>
      <trkpt lat="46.7019" lon="5.64503">
        <ele>315.9</ele>
      </trkpt>
      <trkpt lat="46.70183" lon="5.645">
        <ele>316.2</ele>
      </trkpt>
      <trkpt lat="46.70171" lon="5.64495">
        <ele>317.1</ele>
      </trkpt>
      <trkpt lat="46.70157" lon="5.64487">
        <ele>318.4</ele>
      </trkpt>
      <trkpt lat="46.70144" lon="5.64477">
        <ele>318</ele>
      </trkpt>
      <trkpt lat="46.70131" lon="5.64465">
        <ele>318.6</ele>
      </trkpt>
      <trkpt lat="46.70119" lon="5.64452">
        <ele>318.9</ele>
      </trkpt>
      <trkpt lat="46.70105" lon="5.64435">
        <ele>318.6</ele>
      </trkpt>
      <trkpt lat="46.70086" lon="5.64413">
        <ele>318.3</ele>
      </trkpt>
      <trkpt lat="46.70067" lon="5.6439">
        <ele>318.6</ele>
      </trkpt>
      <trkpt lat="46.70053" lon="5.64375">
        <ele>318.5</ele>
      </trkpt>
      <trkpt lat="46.70039" lon="5.64363">
        <ele>318.3</ele>
      </trkpt>
      <trkpt lat="46.70022" lon="5.64351">
        <ele>319</ele>
      </trkpt>
      <trkpt lat="46.70003" lon="5.64337">
        <ele>318.8</ele>
      </trkpt>
      <trkpt lat="46.69985" lon="5.64324">
        <ele>319.7</ele>
      </trkpt>
      <trkpt lat="46.6995" lon="5.64303">
        <ele>319.9</ele>
      </trkpt>
      <trkpt lat="46.69934" lon="5.64293">
        <ele>320.2</ele>
      </trkpt>
      <trkpt lat="46.69918" lon="5.64287">
        <ele>320.2</ele>
      </trkpt>
      <trkpt lat="46.699" lon="5.64281">
        <ele>319.1</ele>
      </trkpt>
      <trkpt lat="46.69879" lon="5.64275">
        <ele>318.9</ele>
      </trkpt>
      <trkpt lat="46.69861" lon="5.64271">
        <ele>320.3</ele>
      </trkpt>
      <trkpt lat="46.69826" lon="5.64264">
        <ele>320.7</ele>
      </trkpt>
      <trkpt lat="46.69811" lon="5.64261">
        <ele>320.3</ele>
      </trkpt>
      <trkpt lat="46.69793" lon="5.64257">
        <ele>320.5</ele>
      </trkpt>
      <trkpt lat="46.69781" lon="5.64256">
        <ele>321.3</ele>
      </trkpt>
      <trkpt lat="46.69768" lon="5.64258">
        <ele>321.6</ele>
      </trkpt>
      <trkpt lat="46.69757" lon="5.6426">
        <ele>321.5</ele>
      </trkpt>
      <trkpt lat="46.69738" lon="5.64263">
        <ele>321.8</ele>
      </trkpt>
      <trkpt lat="46.69712" lon="5.64266">
        <ele>322.7</ele>
      </trkpt>
      <trkpt lat="46.6966" lon="5.64254">
        <ele>323.1</ele>
      </trkpt>
      <trkpt lat="46.69633" lon="5.64246">
        <ele>325.1</ele>
      </trkpt>
      <trkpt lat="46.69606" lon="5.64231">
        <ele>327.2</ele>
      </trkpt>
      <trkpt lat="46.69585" lon="5.64219">
        <ele>329.7</ele>
      </trkpt>
      <trkpt lat="46.69566" lon="5.64209">
        <ele>330.3</ele>
      </trkpt>
      <trkpt lat="46.6953" lon="5.64187">
        <ele>334.2</ele>
      </trkpt>
      <trkpt lat="46.69515" lon="5.64174">
        <ele>336</ele>
      </trkpt>
      <trkpt lat="46.69493" lon="5.64156">
        <ele>338.5</ele>
      </trkpt>
      <trkpt lat="46.69479" lon="5.64145">
        <ele>340</ele>
      </trkpt>
      <trkpt lat="46.69457" lon="5.64128">
        <ele>342.6</ele>
      </trkpt>
      <trkpt lat="46.69444" lon="5.64118">
        <ele>343.9</ele>
      </trkpt>
      <trkpt lat="46.69427" lon="5.64108">
        <ele>345.5</ele>
      </trkpt>
      <trkpt lat="46.69393" lon="5.64092">
        <ele>349</ele>
      </trkpt>
      <trkpt lat="46.69372" lon="5.64082">
        <ele>349.7</ele>
      </trkpt>
      <trkpt lat="46.69355" lon="5.64075">
        <ele>351.4</ele>
      </trkpt>
      <trkpt lat="46.69338" lon="5.64066">
        <ele>353</ele>
      </trkpt>
      <trkpt lat="46.69322" lon="5.64058">
        <ele>353.6</ele>
      </trkpt>
      <trkpt lat="46.69304" lon="5.64051">
        <ele>354.7</ele>
      </trkpt>
      <trkpt lat="46.69266" lon="5.64035">
        <ele>359.2</ele>
      </trkpt>
      <trkpt lat="46.69249" lon="5.64029">
        <ele>360.9</ele>
      </trkpt>
      <trkpt lat="46.69235" lon="5.64023">
        <ele>362.2</ele>
      </trkpt>
      <trkpt lat="46.69217" lon="5.64016">
        <ele>363.9</ele>
      </trkpt>
      <trkpt lat="46.69194" lon="5.64009">
        <ele>368</ele>
      </trkpt>
      <trkpt lat="46.69179" lon="5.64006">
        <ele>369.1</ele>
      </trkpt>
      <trkpt lat="46.69164" lon="5.64005">
        <ele>370.6</ele>
      </trkpt>
      <trkpt lat="46.69148" lon="5.64002">
        <ele>371</ele>
      </trkpt>
      <trkpt lat="46.69137" lon="5.64">
        <ele>371.3</ele>
      </trkpt>
      <trkpt lat="46.69125" lon="5.63995">
        <ele>373.1</ele>
      </trkpt>
      <trkpt lat="46.69111" lon="5.63986">
        <ele>374</ele>
      </trkpt>
      <trkpt lat="46.69095" lon="5.63973">
        <ele>373.4</ele>
      </trkpt>
      <trkpt lat="46.69097" lon="5.63949">
        <ele>373</ele>
      </trkpt>
      <trkpt lat="46.69096" lon="5.6393">
        <ele>373.3</ele>
      </trkpt>
      <trkpt lat="46.69088" lon="5.63915">
        <ele>373.8</ele>
      </trkpt>
      <trkpt lat="46.69081" lon="5.63899">
        <ele>373.4</ele>
      </trkpt>
      <trkpt lat="46.69082" lon="5.63892">
        <ele>373.2</ele>
      </trkpt>
      <trkpt lat="46.69085" lon="5.63886">
        <ele>373.5</ele>
      </trkpt>
      <trkpt lat="46.69087" lon="5.63882">
        <ele>374.2</ele>
      </trkpt>
      <trkpt lat="46.69087" lon="5.63878">
        <ele>374.9</ele>
      </trkpt>
      <trkpt lat="46.69086" lon="5.63874">
        <ele>375.8</ele>
      </trkpt>
      <trkpt lat="46.69086" lon="5.63865">
        <ele>377.6</ele>
      </trkpt>
      <trkpt lat="46.69086" lon="5.63862">
        <ele>378.2</ele>
      </trkpt>
      <trkpt lat="46.69086" lon="5.6386">
        <ele>379</ele>
      </trkpt>
      <trkpt lat="46.69085" lon="5.6386">
        <ele>379.3</ele>
      </trkpt>
      <trkpt lat="46.69083" lon="5.6386">
        <ele>379.9</ele>
      </trkpt>
      <trkpt lat="46.69082" lon="5.63861">
        <ele>379.6</ele>
      </trkpt>
      <trkpt lat="46.6908" lon="5.63861">
        <ele>380.5</ele>
      </trkpt>
      <trkpt lat="46.69079" lon="5.63861">
        <ele>380.9</ele>
      </trkpt>
      <trkpt lat="46.69078" lon="5.6386">
        <ele>382</ele>
      </trkpt>
      <trkpt lat="46.69075" lon="5.63862">
        <ele>382.3</ele>
      </trkpt>
      <trkpt lat="46.69071" lon="5.63861">
        <ele>384.4</ele>
      </trkpt>
      <trkpt lat="46.69068" lon="5.63859">
        <ele>386.6</ele>
      </trkpt>
      <trkpt lat="46.69061" lon="5.63858">
        <ele>389.9</ele>
      </trkpt>
      <trkpt lat="46.69056" lon="5.63857">
        <ele>392.2</ele>
      </trkpt>
      <trkpt lat="46.69052" lon="5.63858">
        <ele>392.6</ele>
      </trkpt>
      <trkpt lat="46.6905" lon="5.63858">
        <ele>392.9</ele>
      </trkpt>
      <trkpt lat="46.69049" lon="5.63857">
        <ele>393.3</ele>
      </trkpt>
      <trkpt lat="46.69046" lon="5.63855">
        <ele>394.2</ele>
      </trkpt>
      <trkpt lat="46.69043" lon="5.63855">
        <ele>394.6</ele>
      </trkpt>
      <trkpt lat="46.6904" lon="5.63854">
        <ele>395.2</ele>
      </trkpt>
      <trkpt lat="46.69038" lon="5.63853">
        <ele>395.7</ele>
      </trkpt>
      <trkpt lat="46.69034" lon="5.6385">
        <ele>396.6</ele>
      </trkpt>
      <trkpt lat="46.6903" lon="5.63848">
        <ele>397.2</ele>
      </trkpt>
      <trkpt lat="46.69027" lon="5.63847">
        <ele>397.3</ele>
      </trkpt>
      <trkpt lat="46.69022" lon="5.63844">
        <ele>396.9</ele>
      </trkpt>
      <trkpt lat="46.69017" lon="5.6384">
        <ele>397.5</ele>
      </trkpt>
      <trkpt lat="46.69014" lon="5.63838">
        <ele>398.1</ele>
      </trkpt>
      <trkpt lat="46.69012" lon="5.63834">
        <ele>399.8</ele>
      </trkpt>
      <trkpt lat="46.6901" lon="5.6383">
        <ele>400.5</ele>
      </trkpt>
      <trkpt lat="46.69007" lon="5.63822">
        <ele>401.4</ele>
      </trkpt>
      <trkpt lat="46.69003" lon="5.63808">
        <ele>403.2</ele>
      </trkpt>
      <trkpt lat="46.69" lon="5.63798">
        <ele>403.5</ele>
      </trkpt>
      <trkpt lat="46.68998" lon="5.63793">
        <ele>403.1</ele>
      </trkpt>
      <trkpt lat="46.68995" lon="5.63786">
        <ele>402.8</ele>
      </trkpt>
      <trkpt lat="46.68991" lon="5.6378">
        <ele>402.7</ele>
      </trkpt>
      <trkpt lat="46.68988" lon="5.63774">
        <ele>403.1</ele>
      </trkpt>
      <trkpt lat="46.68984" lon="5.63769">
        <ele>403.8</ele>
      </trkpt>
      <trkpt lat="46.6898" lon="5.63762">
        <ele>404.6</ele>
      </trkpt>
      <trkpt lat="46.68978" lon="5.63759">
        <ele>404.9</ele>
      </trkpt>
      <trkpt lat="46.68976" lon="5.63756">
        <ele>405.3</ele>
      </trkpt>
      <trkpt lat="46.68972" lon="5.63753">
        <ele>405.8</ele>
        <extensions>
          <visugpx:TrkExtension xmlns:visugpx="https://www.visugpx.com/editgpx/">
            <visugpx:node>11</visugpx:node>
            </visugpx:TrkExtension>
        </extensions>
      </trkpt>
      <trkpt lat="46.68972" lon="5.63752">
        <ele>405.8</ele>
      </trkpt>
      <trkpt lat="46.68968" lon="5.63749">
        <ele>405.8</ele>
      </trkpt>
      <trkpt lat="46.68965" lon="5.63749">
        <ele>405.7</ele>
      </trkpt>
      <trkpt lat="46.68959" lon="5.63747">
        <ele>405.9</ele>
      </trkpt>
      <trkpt lat="46.68952" lon="5.63738">
        <ele>409.2</ele>
      </trkpt>
      <trkpt lat="46.68938" lon="5.6375">
        <ele>406.8</ele>
      </trkpt>
      <trkpt lat="46.68919" lon="5.63758">
        <ele>412</ele>
      </trkpt>
      <trkpt lat="46.68902" lon="5.63766">
        <ele>418.3</ele>
      </trkpt>
      <trkpt lat="46.68884" lon="5.63779">
        <ele>423.8</ele>
      </trkpt>
      <trkpt lat="46.68873" lon="5.63798">
        <ele>425.2</ele>
      </trkpt>
      <trkpt lat="46.68864" lon="5.63815">
        <ele>426.7</ele>
      </trkpt>
      <trkpt lat="46.6886" lon="5.63846">
        <ele>423.5</ele>
      </trkpt>
      <trkpt lat="46.68858" lon="5.63878">
        <ele>424</ele>
      </trkpt>
      <trkpt lat="46.68857" lon="5.6391">
        <ele>429.7</ele>
      </trkpt>
      <trkpt lat="46.68862" lon="5.63938">
        <ele>432.7</ele>
      </trkpt>
      <trkpt lat="46.68869" lon="5.63964">
        <ele>435</ele>
      </trkpt>
      <trkpt lat="46.6888" lon="5.63984">
        <ele>436.1</ele>
      </trkpt>
      <trkpt lat="46.6889" lon="5.64007">
        <ele>439.6</ele>
      </trkpt>
      <trkpt lat="46.6889" lon="5.64009">
        <ele>440.6</ele>
      </trkpt>
      <trkpt lat="46.68892" lon="5.64017">
        <ele>443.1</ele>
      </trkpt>
      <trkpt lat="46.68895" lon="5.6403">
        <ele>449.8</ele>
      </trkpt>
      <trkpt lat="46.68894" lon="5.64033">
        <ele>455.5</ele>
      </trkpt>
      <trkpt lat="46.68892" lon="5.64034">
        <ele>459</ele>
      </trkpt>
      <trkpt lat="46.68888" lon="5.64031">
        <ele>456.5</ele>
      </trkpt>
      <trkpt lat="46.68886" lon="5.64028">
        <ele>452</ele>
      </trkpt>
      <trkpt lat="46.6888" lon="5.64022">
        <ele>452.3</ele>
      </trkpt>
      <trkpt lat="46.68875" lon="5.64016">
        <ele>452.6</ele>
      </trkpt>
      <trkpt lat="46.6887" lon="5.64011">
        <ele>453.6</ele>
      </trkpt>
      <trkpt lat="46.68863" lon="5.64005">
        <ele>455.6</ele>
      </trkpt>
      <trkpt lat="46.68857" lon="5.64005">
        <ele>463.6</ele>
      </trkpt>
      <trkpt lat="46.68854" lon="5.64007">
        <ele>469.1</ele>
      </trkpt>
      <trkpt lat="46.68855" lon="5.64009">
        <ele>468</ele>
      </trkpt>
      <trkpt lat="46.68856" lon="5.64014">
        <ele>467.9</ele>
      </trkpt>
      <trkpt lat="46.68859" lon="5.64018">
        <ele>464.6</ele>
      </trkpt>
      <trkpt lat="46.6886" lon="5.64023">
        <ele>464.8</ele>
      </trkpt>
      <trkpt lat="46.68859" lon="5.64025">
        <ele>466.9</ele>
      </trkpt>
      <trkpt lat="46.68857" lon="5.64025">
        <ele>469.6</ele>
      </trkpt>
      <trkpt lat="46.68855" lon="5.64027">
        <ele>472.9</ele>
      </trkpt>
      <trkpt lat="46.68855" lon="5.6403">
        <ele>474.2</ele>
      </trkpt>
      <trkpt lat="46.68859" lon="5.64039">
        <ele>474.2</ele>
      </trkpt>
      <trkpt lat="46.68861" lon="5.64047">
        <ele>476.9</ele>
      </trkpt>
      <trkpt lat="46.68863" lon="5.64051">
        <ele>480.2</ele>
      </trkpt>
      <trkpt lat="46.68865" lon="5.64054">
        <ele>483.7</ele>
      </trkpt>
      <trkpt lat="46.68864" lon="5.64059">
        <ele>486.6</ele>
      </trkpt>
      <trkpt lat="46.68862" lon="5.6406">
        <ele>485.9</ele>
      </trkpt>
      <trkpt lat="46.68858" lon="5.64058">
        <ele>485.9</ele>
      </trkpt>
      <trkpt lat="46.68855" lon="5.64056">
        <ele>486.7</ele>
      </trkpt>
      <trkpt lat="46.68852" lon="5.64052">
        <ele>487.1</ele>
      </trkpt>
      <trkpt lat="46.68851" lon="5.64048">
        <ele>486.3</ele>
      </trkpt>
      <trkpt lat="46.68852" lon="5.64042">
        <ele>483</ele>
      </trkpt>
      <trkpt lat="46.68853" lon="5.64033">
        <ele>478.1</ele>
      </trkpt>
      <trkpt lat="46.68853" lon="5.64027">
        <ele>475.6</ele>
      </trkpt>
      <trkpt lat="46.68851" lon="5.64028">
        <ele>478.6</ele>
      </trkpt>
      <trkpt lat="46.68849" lon="5.64034">
        <ele>483.3</ele>
      </trkpt>
      <trkpt lat="46.68848" lon="5.6404">
        <ele>486.4</ele>
      </trkpt>
      <trkpt lat="46.68847" lon="5.64047">
        <ele>489.6</ele>
      </trkpt>
      <trkpt lat="46.68846" lon="5.64051">
        <ele>491.6</ele>
      </trkpt>
      <trkpt lat="46.68844" lon="5.64053">
        <ele>493.7</ele>
      </trkpt>
      <trkpt lat="46.68843" lon="5.64049">
        <ele>493.6</ele>
      </trkpt>
      <trkpt lat="46.68842" lon="5.64039">
        <ele>492.6</ele>
      </trkpt>
      <trkpt lat="46.68843" lon="5.64031">
        <ele>489.8</ele>
      </trkpt>
      <trkpt lat="46.68845" lon="5.64024">
        <ele>486</ele>
      </trkpt>
      <trkpt lat="46.68845" lon="5.64017">
        <ele>485.1</ele>
      </trkpt>
      <trkpt lat="46.68844" lon="5.64006">
        <ele>485.3</ele>
      </trkpt>
      <trkpt lat="46.68842" lon="5.64004">
        <ele>488.4</ele>
      </trkpt>
      <trkpt lat="46.6884" lon="5.64003">
        <ele>491.7</ele>
      </trkpt>
      <trkpt lat="46.68838" lon="5.64003">
        <ele>495</ele>
      </trkpt>
      <trkpt lat="46.68835" lon="5.64001">
        <ele>500.1</ele>
      </trkpt>
      <trkpt lat="46.68833" lon="5.63998">
        <ele>501.8</ele>
      </trkpt>
      <trkpt lat="46.68832" lon="5.63987">
        <ele>495.5</ele>
      </trkpt>
      <trkpt lat="46.68833" lon="5.63979">
        <ele>490.3</ele>
      </trkpt>
      <trkpt lat="46.68829" lon="5.63982">
        <ele>493.8</ele>
      </trkpt>
      <trkpt lat="46.68824" lon="5.63983">
        <ele>496.4</ele>
      </trkpt>
      <trkpt lat="46.68818" lon="5.63982">
        <ele>498.5</ele>
      </trkpt>
      <trkpt lat="46.6881" lon="5.63981">
        <ele>501.7</ele>
      </trkpt>
      <trkpt lat="46.68805" lon="5.6398">
        <ele>503.6</ele>
      </trkpt>
      <trkpt lat="46.68798" lon="5.63978">
        <ele>504.1</ele>
      </trkpt>
      <trkpt lat="46.68793" lon="5.63976">
        <ele>504.5</ele>
      </trkpt>
      <trkpt lat="46.68788" lon="5.63974">
        <ele>504.9</ele>
      </trkpt>
      <trkpt lat="46.68787" lon="5.63964">
        <ele>504.2</ele>
      </trkpt>
      <trkpt lat="46.68788" lon="5.63946">
        <ele>502.1</ele>
      </trkpt>
      <trkpt lat="46.6879" lon="5.63937">
        <ele>502.6</ele>
      </trkpt>
      <trkpt lat="46.68793" lon="5.63925">
        <ele>504.5</ele>
      </trkpt>
      <trkpt lat="46.68799" lon="5.63903">
        <ele>506.6</ele>
        <extensions>
          <visugpx:TrkExtension xmlns:visugpx="https://www.visugpx.com/editgpx/">
            <visugpx:node>12</visugpx:node>
            </visugpx:TrkExtension>
        </extensions>
      </trkpt>
      <trkpt lat="46.68793" lon="5.63925">
        <ele>504.5</ele>
      </trkpt>
      <trkpt lat="46.6879" lon="5.63937">
        <ele>502.6</ele>
      </trkpt>
      <trkpt lat="46.68788" lon="5.63946">
        <ele>502.1</ele>
      </trkpt>
      <trkpt lat="46.68787" lon="5.63964">
        <ele>504.2</ele>
      </trkpt>
      <trkpt lat="46.68788" lon="5.63974">
        <ele>504.9</ele>
      </trkpt>
      <trkpt lat="46.6879" lon="5.63982">
        <ele>505</ele>
      </trkpt>
      <trkpt lat="46.68796" lon="5.6401">
        <ele>505.2</ele>
      </trkpt>
      <trkpt lat="46.68801" lon="5.64036">
        <ele>504.7</ele>
      </trkpt>
      <trkpt lat="46.68805" lon="5.64055">
        <ele>504</ele>
      </trkpt>
      <trkpt lat="46.68808" lon="5.6407">
        <ele>503.3</ele>
      </trkpt>
      <trkpt lat="46.68818" lon="5.64124">
        <ele>502.8</ele>
      </trkpt>
      <trkpt lat="46.68822" lon="5.6415">
        <ele>503.2</ele>
      </trkpt>
      <trkpt lat="46.68827" lon="5.64177">
        <ele>504.1</ele>
      </trkpt>
      <trkpt lat="46.68829" lon="5.642">
        <ele>504.8</ele>
      </trkpt>
      <trkpt lat="46.68829" lon="5.64222">
        <ele>504.8</ele>
      </trkpt>
      <trkpt lat="46.68827" lon="5.64229">
        <ele>505</ele>
      </trkpt>
      <trkpt lat="46.68846" lon="5.64238">
        <ele>506.5</ele>
      </trkpt>
      <trkpt lat="46.68861" lon="5.64248">
        <ele>507.9</ele>
      </trkpt>
      <trkpt lat="46.6887" lon="5.64257">
        <ele>508.6</ele>
      </trkpt>
      <trkpt lat="46.68878" lon="5.64268">
        <ele>509.2</ele>
      </trkpt>
      <trkpt lat="46.68881" lon="5.64289">
        <ele>509.4</ele>
      </trkpt>
      <trkpt lat="46.68885" lon="5.64313">
        <ele>509.7</ele>
      </trkpt>
      <trkpt lat="46.6889" lon="5.64349">
        <ele>510.1</ele>
      </trkpt>
      <trkpt lat="46.68896" lon="5.64384">
        <ele>510.3</ele>
      </trkpt>
      <trkpt lat="46.68914" lon="5.64404">
        <ele>510.9</ele>
      </trkpt>
      <trkpt lat="46.68922" lon="5.64409">
        <ele>511</ele>
      </trkpt>
      <trkpt lat="46.6893" lon="5.64411">
        <ele>511</ele>
      </trkpt>
      <trkpt lat="46.68942" lon="5.64414">
        <ele>511</ele>
      </trkpt>
      <trkpt lat="46.68951" lon="5.64416">
        <ele>511.5</ele>
      </trkpt>
      <trkpt lat="46.68967" lon="5.64423">
        <ele>512.4</ele>
      </trkpt>
      <trkpt lat="46.68971" lon="5.64424">
        <ele>512.7</ele>
      </trkpt>
      <trkpt lat="46.6898" lon="5.64429">
        <ele>513</ele>
      </trkpt>
      <trkpt lat="46.68984" lon="5.64433">
        <ele>513.1</ele>
      </trkpt>
      <trkpt lat="46.68992" lon="5.64443">
        <ele>513.4</ele>
      </trkpt>
      <trkpt lat="46.69" lon="5.64458">
        <ele>513.5</ele>
      </trkpt>
      <trkpt lat="46.69013" lon="5.64494">
        <ele>513.9</ele>
      </trkpt>
      <trkpt lat="46.69018" lon="5.64505">
        <ele>514.3</ele>
      </trkpt>
      <trkpt lat="46.69026" lon="5.64529">
        <ele>514.8</ele>
      </trkpt>
      <trkpt lat="46.69029" lon="5.6454">
        <ele>514.6</ele>
      </trkpt>
      <trkpt lat="46.69034" lon="5.64547">
        <ele>514.3</ele>
      </trkpt>
      <trkpt lat="46.69038" lon="5.64554">
        <ele>514.1</ele>
      </trkpt>
      <trkpt lat="46.69062" lon="5.64577">
        <ele>513.8</ele>
      </trkpt>
      <trkpt lat="46.6907" lon="5.64583">
        <ele>513.5</ele>
      </trkpt>
      <trkpt lat="46.69075" lon="5.6459">
        <ele>513</ele>
      </trkpt>
      <trkpt lat="46.69079" lon="5.64596">
        <ele>512.6</ele>
      </trkpt>
      <trkpt lat="46.69087" lon="5.64615">
        <ele>512</ele>
      </trkpt>
      <trkpt lat="46.69095" lon="5.64646">
        <ele>511.7</ele>
      </trkpt>
      <trkpt lat="46.69096" lon="5.64662">
        <ele>511.2</ele>
        <extensions>
          <visugpx:TrkExtension xmlns:visugpx="https://www.visugpx.com/editgpx/">
            <visugpx:node>13</visugpx:node>
            </visugpx:TrkExtension>
        </extensions>
      </trkpt>
      <trkpt lat="46.69096" lon="5.64668">
        <ele>511</ele>
      </trkpt>
      <trkpt lat="46.69095" lon="5.64692">
        <ele>510.1</ele>
      </trkpt>
      <trkpt lat="46.69095" lon="5.647">
        <ele>510</ele>
      </trkpt>
      <trkpt lat="46.69096" lon="5.64708">
        <ele>510</ele>
      </trkpt>
      <trkpt lat="46.69098" lon="5.64717">
        <ele>510</ele>
      </trkpt>
      <trkpt lat="46.69103" lon="5.64725">
        <ele>510</ele>
      </trkpt>
      <trkpt lat="46.69121" lon="5.64742">
        <ele>509.2</ele>
      </trkpt>
      <trkpt lat="46.69148" lon="5.64769">
        <ele>507.5</ele>
      </trkpt>
      <trkpt lat="46.69154" lon="5.64779">
        <ele>507.6</ele>
      </trkpt>
      <trkpt lat="46.69158" lon="5.64787">
        <ele>508</ele>
      </trkpt>
      <trkpt lat="46.69163" lon="5.6479">
        <ele>508.3</ele>
      </trkpt>
      <trkpt lat="46.69166" lon="5.64793">
        <ele>508.5</ele>
      </trkpt>
      <trkpt lat="46.69167" lon="5.64796">
        <ele>508.7</ele>
      </trkpt>
      <trkpt lat="46.6917" lon="5.64801">
        <ele>508.9</ele>
      </trkpt>
      <trkpt lat="46.69179" lon="5.64805">
        <ele>509</ele>
      </trkpt>
      <trkpt lat="46.69188" lon="5.64811">
        <ele>509.2</ele>
      </trkpt>
      <trkpt lat="46.69196" lon="5.6482">
        <ele>509.5</ele>
      </trkpt>
      <trkpt lat="46.69205" lon="5.64829">
        <ele>509.5</ele>
      </trkpt>
      <trkpt lat="46.69214" lon="5.64839">
        <ele>509.2</ele>
      </trkpt>
      <trkpt lat="46.69222" lon="5.64849">
        <ele>508.4</ele>
      </trkpt>
      <trkpt lat="46.69228" lon="5.64853">
        <ele>507.9</ele>
      </trkpt>
      <trkpt lat="46.69233" lon="5.64858">
        <ele>507.4</ele>
      </trkpt>
      <trkpt lat="46.69242" lon="5.64869">
        <ele>506.5</ele>
      </trkpt>
      <trkpt lat="46.69247" lon="5.64873">
        <ele>505.9</ele>
      </trkpt>
      <trkpt lat="46.69251" lon="5.64875">
        <ele>505.5</ele>
      </trkpt>
      <trkpt lat="46.6926" lon="5.64874">
        <ele>505.5</ele>
      </trkpt>
      <trkpt lat="46.6927" lon="5.64874">
        <ele>505.5</ele>
      </trkpt>
      <trkpt lat="46.69279" lon="5.64876">
        <ele>505.5</ele>
      </trkpt>
      <trkpt lat="46.69287" lon="5.64877">
        <ele>505.6</ele>
      </trkpt>
      <trkpt lat="46.69293" lon="5.6488">
        <ele>505.7</ele>
      </trkpt>
      <trkpt lat="46.69298" lon="5.64886">
        <ele>505.8</ele>
      </trkpt>
      <trkpt lat="46.69303" lon="5.64891">
        <ele>505.8</ele>
      </trkpt>
      <trkpt lat="46.69308" lon="5.64899">
        <ele>505.4</ele>
      </trkpt>
      <trkpt lat="46.69313" lon="5.64909">
        <ele>504.9</ele>
      </trkpt>
      <trkpt lat="46.69317" lon="5.64914">
        <ele>504.6</ele>
      </trkpt>
      <trkpt lat="46.6932" lon="5.64917">
        <ele>504.5</ele>
      </trkpt>
      <trkpt lat="46.69333" lon="5.64928">
        <ele>504</ele>
      </trkpt>
      <trkpt lat="46.69353" lon="5.64947">
        <ele>504</ele>
      </trkpt>
      <trkpt lat="46.69362" lon="5.64954">
        <ele>504</ele>
      </trkpt>
      <trkpt lat="46.69371" lon="5.64963">
        <ele>504.1</ele>
      </trkpt>
      <trkpt lat="46.69377" lon="5.64971">
        <ele>504</ele>
      </trkpt>
      <trkpt lat="46.69383" lon="5.64978">
        <ele>504</ele>
      </trkpt>
      <trkpt lat="46.69397" lon="5.6499">
        <ele>504.3</ele>
      </trkpt>
      <trkpt lat="46.6941" lon="5.65002">
        <ele>504.8</ele>
      </trkpt>
      <trkpt lat="46.69432" lon="5.65019">
        <ele>506.2</ele>
      </trkpt>
      <trkpt lat="46.69457" lon="5.65039">
        <ele>507.2</ele>
      </trkpt>
      <trkpt lat="46.69467" lon="5.65078">
        <ele>507.8</ele>
      </trkpt>
      <trkpt lat="46.69486" lon="5.65129">
        <ele>507.5</ele>
      </trkpt>
      <trkpt lat="46.69512" lon="5.65161">
        <ele>506.5</ele>
      </trkpt>
      <trkpt lat="46.69526" lon="5.65182">
        <ele>505.6</ele>
      </trkpt>
      <trkpt lat="46.69533" lon="5.65204">
        <ele>506.5</ele>
      </trkpt>
      <trkpt lat="46.6954" lon="5.65222">
        <ele>507</ele>
      </trkpt>
      <trkpt lat="46.69559" lon="5.653">
        <ele>506.4</ele>
      </trkpt>
      <trkpt lat="46.69563" lon="5.65344">
        <ele>497.7</ele>
      </trkpt>
      <trkpt lat="46.69568" lon="5.6533">
        <ele>493.9</ele>
        <extensions>
          <visugpx:TrkExtension xmlns:visugpx="https://www.visugpx.com/editgpx/">
            <visugpx:node>14</visugpx:node>
            </visugpx:TrkExtension>
        </extensions>
      </trkpt>
      <trkpt lat="46.69563" lon="5.65344">
        <ele>497.7</ele>
      </trkpt>
      <trkpt lat="46.69551" lon="5.65435">
        <ele>500.6</ele>
      </trkpt>
      <trkpt lat="46.69566" lon="5.65512">
        <ele>503</ele>
      </trkpt>
      <trkpt lat="46.69566" lon="5.65542">
        <ele>495.8</ele>
      </trkpt>
      <trkpt lat="46.69555" lon="5.6558">
        <ele>508.9</ele>
      </trkpt>
      <trkpt lat="46.69548" lon="5.65599">
        <ele>509.4</ele>
      </trkpt>
      <trkpt lat="46.69549" lon="5.65633">
        <ele>503</ele>
      </trkpt>
      <trkpt lat="46.69544" lon="5.65736">
        <ele>506.7</ele>
      </trkpt>
      <trkpt lat="46.69542" lon="5.65802">
        <ele>495.5</ele>
      </trkpt>
      <trkpt lat="46.6954" lon="5.65879">
        <ele>497.3</ele>
      </trkpt>
      <trkpt lat="46.69557" lon="5.6595">
        <ele>506.1</ele>
      </trkpt>
      <trkpt lat="46.69597" lon="5.66001">
        <ele>506.5</ele>
      </trkpt>
      <trkpt lat="46.69646" lon="5.66025">
        <ele>508.7</ele>
      </trkpt>
      <trkpt lat="46.69683" lon="5.66049">
        <ele>511.4</ele>
      </trkpt>
      <trkpt lat="46.69749" lon="5.66121">
        <ele>509.4</ele>
      </trkpt>
      <trkpt lat="46.69797" lon="5.66097">
        <ele>506.3</ele>
      </trkpt>
      <trkpt lat="46.69807" lon="5.66097">
        <ele>506</ele>
        <extensions>
          <visugpx:TrkExtension xmlns:visugpx="https://www.visugpx.com/editgpx/">
            <visugpx:node>15</visugpx:node>
            </visugpx:TrkExtension>
        </extensions>
      </trkpt>
      <trkpt lat="46.69842" lon="5.66094">
        <ele>506.8</ele>
      </trkpt>
      <trkpt lat="46.69868" lon="5.66097">
        <ele>508.4</ele>
      </trkpt>
      <trkpt lat="46.69897" lon="5.66103">
        <ele>510</ele>
      </trkpt>
      <trkpt lat="46.69911" lon="5.66106">
        <ele>510.6</ele>
        <extensions>
          <visugpx:TrkExtension xmlns:visugpx="https://www.visugpx.com/editgpx/">
            <visugpx:node>16</visugpx:node>
            </visugpx:TrkExtension>
        </extensions>
      </trkpt>
      <trkpt lat="46.69897" lon="5.66103">
        <ele>510</ele>
      </trkpt>
      <trkpt lat="46.69916" lon="5.6609">
        <ele>510.2</ele>
      </trkpt>
      <trkpt lat="46.69939" lon="5.66062">
        <ele>510.2</ele>
      </trkpt>
      <trkpt lat="46.69956" lon="5.66046">
        <ele>510.4</ele>
      </trkpt>
      <trkpt lat="46.69976" lon="5.6603">
        <ele>511</ele>
      </trkpt>
      <trkpt lat="46.70009" lon="5.66011">
        <ele>511.5</ele>
      </trkpt>
      <trkpt lat="46.70027" lon="5.66008">
        <ele>512.3</ele>
        <extensions>
          <visugpx:TrkExtension xmlns:visugpx="https://www.visugpx.com/editgpx/">
            <visugpx:node>17</visugpx:node>
            </visugpx:TrkExtension>
        </extensions>
      </trkpt>
      <trkpt lat="46.70009" lon="5.66011">
        <ele>511.5</ele>
      </trkpt>
      <trkpt lat="46.70008" lon="5.66002">
        <ele>511.3</ele>
      </trkpt>
      <trkpt lat="46.70008" lon="5.65988">
        <ele>510.9</ele>
      </trkpt>
      <trkpt lat="46.70008" lon="5.65977">
        <ele>510.5</ele>
      </trkpt>
      <trkpt lat="46.7001" lon="5.65961">
        <ele>510.1</ele>
      </trkpt>
      <trkpt lat="46.70011" lon="5.65948">
        <ele>509.9</ele>
      </trkpt>
      <trkpt lat="46.70013" lon="5.65935">
        <ele>510.3</ele>
      </trkpt>
      <trkpt lat="46.70018" lon="5.65919">
        <ele>510.9</ele>
      </trkpt>
      <trkpt lat="46.70022" lon="5.65908">
        <ele>511.1</ele>
      </trkpt>
      <trkpt lat="46.70025" lon="5.65899">
        <ele>511.1</ele>
      </trkpt>
      <trkpt lat="46.70028" lon="5.65895">
        <ele>511</ele>
        <extensions>
          <visugpx:TrkExtension xmlns:visugpx="https://www.visugpx.com/editgpx/">
            <visugpx:node>18</visugpx:node>
            </visugpx:TrkExtension>
        </extensions>
      </trkpt>
      <trkpt lat="46.7003" lon="5.65892">
        <ele>511.2</ele>
      </trkpt>
      <trkpt lat="46.70033" lon="5.65887">
        <ele>511.5</ele>
      </trkpt>
      <trkpt lat="46.70038" lon="5.65882">
        <ele>512.1</ele>
      </trkpt>
      <trkpt lat="46.70046" lon="5.65876">
        <ele>512.9</ele>
      </trkpt>
      <trkpt lat="46.70054" lon="5.65871">
        <ele>513.6</ele>
      </trkpt>
      <trkpt lat="46.70061" lon="5.65864">
        <ele>514.1</ele>
      </trkpt>
      <trkpt lat="46.70069" lon="5.65857">
        <ele>514.6</ele>
      </trkpt>
      <trkpt lat="46.70076" lon="5.65853">
        <ele>514.8</ele>
      </trkpt>
      <trkpt lat="46.70081" lon="5.65851">
        <ele>514.9</ele>
      </trkpt>
      <trkpt lat="46.70088" lon="5.65849">
        <ele>515</ele>
      </trkpt>
      <trkpt lat="46.70093" lon="5.65847">
        <ele>515</ele>
      </trkpt>
      <trkpt lat="46.70099" lon="5.65843">
        <ele>515</ele>
      </trkpt>
      <trkpt lat="46.70102" lon="5.6584">
        <ele>515</ele>
      </trkpt>
      <trkpt lat="46.70106" lon="5.65839">
        <ele>515</ele>
      </trkpt>
      <trkpt lat="46.70109" lon="5.65839">
        <ele>515</ele>
      </trkpt>
      <trkpt lat="46.70114" lon="5.65838">
        <ele>514.5</ele>
      </trkpt>
      <trkpt lat="46.70116" lon="5.65837">
        <ele>514.2</ele>
      </trkpt>
      <trkpt lat="46.70121" lon="5.65833">
        <ele>513.6</ele>
      </trkpt>
      <trkpt lat="46.70129" lon="5.65827">
        <ele>512.4</ele>
      </trkpt>
      <trkpt lat="46.70135" lon="5.65821">
        <ele>511.2</ele>
      </trkpt>
      <trkpt lat="46.70138" lon="5.65816">
        <ele>510.5</ele>
      </trkpt>
      <trkpt lat="46.7014" lon="5.65811">
        <ele>510.1</ele>
      </trkpt>
      <trkpt lat="46.70141" lon="5.65807">
        <ele>509.9</ele>
      </trkpt>
      <trkpt lat="46.70143" lon="5.65802">
        <ele>509.6</ele>
      </trkpt>
      <trkpt lat="46.70149" lon="5.65792">
        <ele>508.8</ele>
      </trkpt>
      <trkpt lat="46.70152" lon="5.65785">
        <ele>508.3</ele>
      </trkpt>
      <trkpt lat="46.70158" lon="5.65778">
        <ele>507.6</ele>
      </trkpt>
      <trkpt lat="46.70163" lon="5.65767">
        <ele>506.9</ele>
      </trkpt>
      <trkpt lat="46.70169" lon="5.6576">
        <ele>506.2</ele>
      </trkpt>
      <trkpt lat="46.70175" lon="5.65757">
        <ele>505.7</ele>
      </trkpt>
      <trkpt lat="46.70179" lon="5.65756">
        <ele>505.4</ele>
      </trkpt>
      <trkpt lat="46.70186" lon="5.65756">
        <ele>505</ele>
      </trkpt>
      <trkpt lat="46.7019" lon="5.65756">
        <ele>504.7</ele>
      </trkpt>
      <trkpt lat="46.70193" lon="5.65754">
        <ele>504.4</ele>
      </trkpt>
      <trkpt lat="46.70196" lon="5.6575">
        <ele>504</ele>
      </trkpt>
      <trkpt lat="46.702" lon="5.65742">
        <ele>503.9</ele>
      </trkpt>
      <trkpt lat="46.70206" lon="5.65735">
        <ele>503.8</ele>
      </trkpt>
      <trkpt lat="46.70211" lon="5.65727">
        <ele>503.5</ele>
      </trkpt>
      <trkpt lat="46.70221" lon="5.65711">
        <ele>503.1</ele>
      </trkpt>
      <trkpt lat="46.70226" lon="5.65702">
        <ele>503.1</ele>
      </trkpt>
      <trkpt lat="46.70231" lon="5.65694">
        <ele>503</ele>
      </trkpt>
      <trkpt lat="46.70235" lon="5.65687">
        <ele>503.2</ele>
      </trkpt>
      <trkpt lat="46.7024" lon="5.65678">
        <ele>503</ele>
      </trkpt>
      <trkpt lat="46.70244" lon="5.65674">
        <ele>502.7</ele>
      </trkpt>
      <trkpt lat="46.7025" lon="5.65666">
        <ele>502</ele>
      </trkpt>
      <trkpt lat="46.70256" lon="5.65661">
        <ele>502</ele>
      </trkpt>
      <trkpt lat="46.7026" lon="5.65659">
        <ele>502</ele>
      </trkpt>
      <trkpt lat="46.70267" lon="5.65658">
        <ele>502.1</ele>
      </trkpt>
      <trkpt lat="46.70273" lon="5.65657">
        <ele>502.2</ele>
      </trkpt>
      <trkpt lat="46.70278" lon="5.65654">
        <ele>502.1</ele>
      </trkpt>
      <trkpt lat="46.70283" lon="5.65651">
        <ele>502.2</ele>
      </trkpt>
      <trkpt lat="46.70291" lon="5.65648">
        <ele>502.6</ele>
      </trkpt>
      <trkpt lat="46.70295" lon="5.65647">
        <ele>502.8</ele>
        <extensions>
          <visugpx:TrkExtension xmlns:visugpx="https://www.visugpx.com/editgpx/">
            <visugpx:node>19</visugpx:node>
            </visugpx:TrkExtension>
        </extensions>
      </trkpt>
      <trkpt lat="46.70323" lon="5.65444">
        <ele>505.8</ele>
      </trkpt>
      <trkpt lat="46.70394" lon="5.65341">
        <ele>503.6</ele>
      </trkpt>
      <trkpt lat="46.70426" lon="5.65266">
        <ele>495.6</ele>
        <extensions>
          <visugpx:TrkExtension xmlns:visugpx="https://www.visugpx.com/editgpx/">
            <visugpx:node>20</visugpx:node>
            </visugpx:TrkExtension>
        </extensions>
      </trkpt>
      <trkpt lat="46.7043" lon="5.65264">
        <ele>495.7</ele>
      </trkpt>
      <trkpt lat="46.70432" lon="5.65271">
        <ele>497.7</ele>
      </trkpt>
      <trkpt lat="46.70432" lon="5.65276">
        <ele>498.9</ele>
      </trkpt>
      <trkpt lat="46.70433" lon="5.65282">
        <ele>499.3</ele>
      </trkpt>
      <trkpt lat="46.70438" lon="5.65292">
        <ele>498.8</ele>
      </trkpt>
      <trkpt lat="46.70442" lon="5.65298">
        <ele>498.3</ele>
      </trkpt>
      <trkpt lat="46.70448" lon="5.65304">
        <ele>498</ele>
      </trkpt>
      <trkpt lat="46.70451" lon="5.65311">
        <ele>498.2</ele>
      </trkpt>
      <trkpt lat="46.70454" lon="5.65319">
        <ele>498.5</ele>
      </trkpt>
      <trkpt lat="46.70454" lon="5.6533">
        <ele>498.9</ele>
      </trkpt>
      <trkpt lat="46.70453" lon="5.6534">
        <ele>499</ele>
      </trkpt>
      <trkpt lat="46.7045" lon="5.65359">
        <ele>499</ele>
      </trkpt>
      <trkpt lat="46.70448" lon="5.65377">
        <ele>498.5</ele>
      </trkpt>
      <trkpt lat="46.70446" lon="5.6539">
        <ele>498.1</ele>
      </trkpt>
      <trkpt lat="46.70444" lon="5.65398">
        <ele>498</ele>
      </trkpt>
      <trkpt lat="46.70444" lon="5.65405">
        <ele>498</ele>
      </trkpt>
      <trkpt lat="46.70443" lon="5.65418">
        <ele>498.1</ele>
      </trkpt>
      <trkpt lat="46.70442" lon="5.65438">
        <ele>498.8</ele>
      </trkpt>
      <trkpt lat="46.70441" lon="5.65446">
        <ele>499.1</ele>
      </trkpt>
      <trkpt lat="46.70441" lon="5.65454">
        <ele>499.3</ele>
      </trkpt>
      <trkpt lat="46.70445" lon="5.65468">
        <ele>499.9</ele>
      </trkpt>
      <trkpt lat="46.70446" lon="5.65487">
        <ele>501.1</ele>
      </trkpt>
      <trkpt lat="46.70449" lon="5.65497">
        <ele>501.7</ele>
      </trkpt>
      <trkpt lat="46.70452" lon="5.65507">
        <ele>501.8</ele>
      </trkpt>
      <trkpt lat="46.70455" lon="5.6552">
        <ele>501.5</ele>
      </trkpt>
      <trkpt lat="46.70455" lon="5.6553">
        <ele>501.6</ele>
      </trkpt>
      <trkpt lat="46.70455" lon="5.65542">
        <ele>502.2</ele>
      </trkpt>
      <trkpt lat="46.70459" lon="5.65548">
        <ele>502</ele>
      </trkpt>
      <trkpt lat="46.70463" lon="5.65553">
        <ele>501.8</ele>
      </trkpt>
      <trkpt lat="46.70468" lon="5.65558">
        <ele>501.5</ele>
      </trkpt>
      <trkpt lat="46.70473" lon="5.65561">
        <ele>501.2</ele>
      </trkpt>
      <trkpt lat="46.70478" lon="5.65566">
        <ele>501.6</ele>
      </trkpt>
      <trkpt lat="46.70485" lon="5.65572">
        <ele>502.1</ele>
      </trkpt>
      <trkpt lat="46.70488" lon="5.6558">
        <ele>502.4</ele>
      </trkpt>
      <trkpt lat="46.70491" lon="5.65588">
        <ele>502.6</ele>
      </trkpt>
      <trkpt lat="46.70493" lon="5.65595">
        <ele>502.6</ele>
      </trkpt>
      <trkpt lat="46.70495" lon="5.65602">
        <ele>502.7</ele>
      </trkpt>
      <trkpt lat="46.70497" lon="5.6561">
        <ele>502.8</ele>
      </trkpt>
      <trkpt lat="46.70497" lon="5.65614">
        <ele>502.8</ele>
      </trkpt>
      <trkpt lat="46.70497" lon="5.65622">
        <ele>502.8</ele>
      </trkpt>
      <trkpt lat="46.70496" lon="5.6563">
        <ele>502.8</ele>
      </trkpt>
      <trkpt lat="46.70496" lon="5.65639">
        <ele>502.9</ele>
      </trkpt>
      <trkpt lat="46.70495" lon="5.65651">
        <ele>503.1</ele>
      </trkpt>
      <trkpt lat="46.70494" lon="5.65661">
        <ele>503.3</ele>
      </trkpt>
      <trkpt lat="46.70495" lon="5.65669">
        <ele>503.5</ele>
      </trkpt>
      <trkpt lat="46.70495" lon="5.65676">
        <ele>503.8</ele>
      </trkpt>
      <trkpt lat="46.70497" lon="5.65681">
        <ele>503.8</ele>
      </trkpt>
      <trkpt lat="46.705" lon="5.65684">
        <ele>503.6</ele>
      </trkpt>
      <trkpt lat="46.70504" lon="5.65688">
        <ele>503.3</ele>
      </trkpt>
      <trkpt lat="46.70506" lon="5.65691">
        <ele>503.1</ele>
      </trkpt>
      <trkpt lat="46.70508" lon="5.65694">
        <ele>502.9</ele>
      </trkpt>
      <trkpt lat="46.70512" lon="5.65698">
        <ele>502.2</ele>
      </trkpt>
      <trkpt lat="46.70516" lon="5.65701">
        <ele>501.8</ele>
      </trkpt>
      <trkpt lat="46.70518" lon="5.65705">
        <ele>501.6</ele>
      </trkpt>
      <trkpt lat="46.70543" lon="5.65709">
        <ele>501.6</ele>
      </trkpt>
      <trkpt lat="46.70563" lon="5.65724">
        <ele>501</ele>
      </trkpt>
      <trkpt lat="46.70584" lon="5.6574">
        <ele>498.8</ele>
      </trkpt>
      <trkpt lat="46.70598" lon="5.65763">
        <ele>495.3</ele>
      </trkpt>
      <trkpt lat="46.70613" lon="5.65793">
        <ele>497.3</ele>
      </trkpt>
      <trkpt lat="46.70618" lon="5.65814">
        <ele>497.6</ele>
      </trkpt>
      <trkpt lat="46.70622" lon="5.65837">
        <ele>497.4</ele>
      </trkpt>
      <trkpt lat="46.70628" lon="5.65855">
        <ele>497.6</ele>
      </trkpt>
      <trkpt lat="46.70632" lon="5.65869">
        <ele>497.5</ele>
      </trkpt>
      <trkpt lat="46.70639" lon="5.65887">
        <ele>497.1</ele>
      </trkpt>
      <trkpt lat="46.70645" lon="5.65905">
        <ele>496.9</ele>
      </trkpt>
      <trkpt lat="46.70649" lon="5.65915">
        <ele>497.3</ele>
      </trkpt>
      <trkpt lat="46.70644" lon="5.65923">
        <ele>497.2</ele>
      </trkpt>
      <trkpt lat="46.70643" lon="5.65925">
        <ele>497.1</ele>
        <extensions>
          <visugpx:TrkExtension xmlns:visugpx="https://www.visugpx.com/editgpx/">
            <visugpx:node>21</visugpx:node>
            </visugpx:TrkExtension>
        </extensions>
      </trkpt>
      <trkpt lat="46.70644" lon="5.65923">
        <ele>497.2</ele>
      </trkpt>
      <trkpt lat="46.70649" lon="5.65915">
        <ele>497.3</ele>
      </trkpt>
      <trkpt lat="46.7066" lon="5.659">
        <ele>495.9</ele>
      </trkpt>
      <trkpt lat="46.7067" lon="5.65892">
        <ele>494</ele>
      </trkpt>
      <trkpt lat="46.70687" lon="5.65883">
        <ele>489.7</ele>
      </trkpt>
      <trkpt lat="46.70708" lon="5.65881">
        <ele>482.7</ele>
      </trkpt>
      <trkpt lat="46.70739" lon="5.65882">
        <ele>473.5</ele>
      </trkpt>
      <trkpt lat="46.70768" lon="5.65873">
        <ele>466</ele>
      </trkpt>
      <trkpt lat="46.70793" lon="5.65862">
        <ele>463.4</ele>
      </trkpt>
      <trkpt lat="46.70817" lon="5.65832">
        <ele>454.9</ele>
      </trkpt>
      <trkpt lat="46.70845" lon="5.65786">
        <ele>446.9</ele>
      </trkpt>
      <trkpt lat="46.7086" lon="5.65735">
        <ele>436.4</ele>
      </trkpt>
      <trkpt lat="46.7087" lon="5.657">
        <ele>431.9</ele>
      </trkpt>
      <trkpt lat="46.70876" lon="5.65671">
        <ele>427.9</ele>
      </trkpt>
      <trkpt lat="46.70881" lon="5.6563">
        <ele>424</ele>
      </trkpt>
      <trkpt lat="46.70874" lon="5.65586">
        <ele>414.9</ele>
      </trkpt>
      <trkpt lat="46.70855" lon="5.65521">
        <ele>401.1</ele>
      </trkpt>
      <trkpt lat="46.70842" lon="5.6548">
        <ele>391.4</ele>
      </trkpt>
      <trkpt lat="46.70835" lon="5.65446">
        <ele>388.3</ele>
      </trkpt>
      <trkpt lat="46.70837" lon="5.65412">
        <ele>393</ele>
      </trkpt>
      <trkpt lat="46.70833" lon="5.65371">
        <ele>389.1</ele>
      </trkpt>
      <trkpt lat="46.70821" lon="5.65322">
        <ele>383.1</ele>
      </trkpt>
      <trkpt lat="46.70795" lon="5.6525">
        <ele>370.9</ele>
      </trkpt>
      <trkpt lat="46.70791" lon="5.65184">
        <ele>363.3</ele>
      </trkpt>
      <trkpt lat="46.70795" lon="5.65177">
        <ele>363</ele>
      </trkpt>
      <trkpt lat="46.70799" lon="5.65169">
        <ele>362</ele>
      </trkpt>
      <trkpt lat="46.70803" lon="5.6516">
        <ele>361.7</ele>
      </trkpt>
      <trkpt lat="46.70807" lon="5.65151">
        <ele>362</ele>
      </trkpt>
      <trkpt lat="46.70809" lon="5.65144">
        <ele>361.9</ele>
      </trkpt>
      <trkpt lat="46.70812" lon="5.65138">
        <ele>362</ele>
      </trkpt>
      <trkpt lat="46.70815" lon="5.65128">
        <ele>361.9</ele>
      </trkpt>
      <trkpt lat="46.70817" lon="5.65118">
        <ele>361.1</ele>
      </trkpt>
      <trkpt lat="46.7082" lon="5.65105">
        <ele>360.1</ele>
      </trkpt>
      <trkpt lat="46.70823" lon="5.65091">
        <ele>359.3</ele>
      </trkpt>
      <trkpt lat="46.70825" lon="5.65077">
        <ele>358.5</ele>
      </trkpt>
      <trkpt lat="46.70826" lon="5.65065">
        <ele>358.2</ele>
      </trkpt>
      <trkpt lat="46.70828" lon="5.65057">
        <ele>358.3</ele>
      </trkpt>
      <trkpt lat="46.70831" lon="5.65041">
        <ele>357.5</ele>
      </trkpt>
      <trkpt lat="46.70832" lon="5.65023">
        <ele>356.2</ele>
      </trkpt>
      <trkpt lat="46.70832" lon="5.65001">
        <ele>353.6</ele>
      </trkpt>
      <trkpt lat="46.70836" lon="5.64978">
        <ele>350.2</ele>
      </trkpt>
      <trkpt lat="46.70838" lon="5.6497">
        <ele>348.6</ele>
      </trkpt>
      <trkpt lat="46.70839" lon="5.64959">
        <ele>344.7</ele>
        <extensions>
          <visugpx:TrkExtension xmlns:visugpx="https://www.visugpx.com/editgpx/">
            <visugpx:node>22</visugpx:node>
            </visugpx:TrkExtension>
        </extensions>
      </trkpt>
      <trkpt lat="46.70833" lon="5.6495">
        <ele>339.1</ele>
      </trkpt>
      <trkpt lat="46.70824" lon="5.64934">
        <ele>332.4</ele>
      </trkpt>
      <trkpt lat="46.70829" lon="5.64925">
        <ele>331.5</ele>
      </trkpt>
      <trkpt lat="46.70833" lon="5.64932">
        <ele>334.2</ele>
      </trkpt>
      <trkpt lat="46.70839" lon="5.64937">
        <ele>337.3</ele>
      </trkpt>
      <trkpt lat="46.70845" lon="5.64936">
        <ele>339.1</ele>
      </trkpt>
      <trkpt lat="46.70852" lon="5.6493">
        <ele>339.9</ele>
      </trkpt>
      <trkpt lat="46.70857" lon="5.64923">
        <ele>339.6</ele>
      </trkpt>
      <trkpt lat="46.70861" lon="5.64915">
        <ele>338.8</ele>
      </trkpt>
      <trkpt lat="46.70863" lon="5.64906">
        <ele>338.7</ele>
      </trkpt>
      <trkpt lat="46.70864" lon="5.64904">
        <ele>338.8</ele>
        <extensions>
          <visugpx:TrkExtension xmlns:visugpx="https://www.visugpx.com/editgpx/">
            <visugpx:node>23</visugpx:node>
            </visugpx:TrkExtension>
        </extensions>
      </trkpt>
      <trkpt lat="46.70867" lon="5.64892">
        <ele>338.5</ele>
      </trkpt>
      <trkpt lat="46.70872" lon="5.64883">
        <ele>338.9</ele>
      </trkpt>
      <trkpt lat="46.7088" lon="5.64875">
        <ele>340.1</ele>
      </trkpt>
      <trkpt lat="46.70889" lon="5.64868">
        <ele>341.5</ele>
      </trkpt>
      <trkpt lat="46.70903" lon="5.64859">
        <ele>342.6</ele>
      </trkpt>
      <trkpt lat="46.70913" lon="5.64851">
        <ele>343.6</ele>
      </trkpt>
      <trkpt lat="46.70924" lon="5.64843">
        <ele>344.9</ele>
      </trkpt>
      <trkpt lat="46.7094" lon="5.6483">
        <ele>345.4</ele>
      </trkpt>
      <trkpt lat="46.70951" lon="5.64825">
        <ele>346.3</ele>
      </trkpt>
      <trkpt lat="46.70962" lon="5.64822">
        <ele>347.5</ele>
      </trkpt>
      <trkpt lat="46.70975" lon="5.64821">
        <ele>349.1</ele>
      </trkpt>
      <trkpt lat="46.70985" lon="5.6482">
        <ele>349.6</ele>
      </trkpt>
      <trkpt lat="46.7099" lon="5.64824">
        <ele>351.1</ele>
      </trkpt>
      <trkpt lat="46.70999" lon="5.64825">
        <ele>352.2</ele>
      </trkpt>
      <trkpt lat="46.71004" lon="5.64823">
        <ele>352.8</ele>
      </trkpt>
      <trkpt lat="46.71007" lon="5.64823">
        <ele>353.6</ele>
        <extensions>
          <visugpx:TrkExtension xmlns:visugpx="https://www.visugpx.com/editgpx/">
            <visugpx:node>24</visugpx:node>
            </visugpx:TrkExtension>
        </extensions>
      </trkpt>
      <trkpt lat="46.7101" lon="5.64824">
        <ele>354.7</ele>
      </trkpt>
      <trkpt lat="46.7101" lon="5.6483">
        <ele>356.8</ele>
      </trkpt>
      <trkpt lat="46.71002" lon="5.64835">
        <ele>356.1</ele>
      </trkpt>
      <trkpt lat="46.71" lon="5.64838">
        <ele>356.3</ele>
      </trkpt>
      <trkpt lat="46.70998" lon="5.64844">
        <ele>357.8</ele>
      </trkpt>
      <trkpt lat="46.70998" lon="5.6485">
        <ele>359.5</ele>
      </trkpt>
      <trkpt lat="46.71003" lon="5.6485">
        <ele>360.7</ele>
      </trkpt>
      <trkpt lat="46.71003" lon="5.64852">
        <ele>361.3</ele>
      </trkpt>
      <trkpt lat="46.71003" lon="5.64859">
        <ele>363.4</ele>
      </trkpt>
      <trkpt lat="46.71006" lon="5.64859">
        <ele>364.3</ele>
      </trkpt>
      <trkpt lat="46.7101" lon="5.64859">
        <ele>365.6</ele>
      </trkpt>
      <trkpt lat="46.71012" lon="5.64861">
        <ele>366.9</ele>
      </trkpt>
      <trkpt lat="46.71012" lon="5.64871">
        <ele>369.7</ele>
      </trkpt>
      <trkpt lat="46.71011" lon="5.6488">
        <ele>371.9</ele>
      </trkpt>
      <trkpt lat="46.7101" lon="5.64885">
        <ele>372.9</ele>
      </trkpt>
      <trkpt lat="46.71013" lon="5.64886">
        <ele>374.3</ele>
      </trkpt>
      <trkpt lat="46.71023" lon="5.64883">
        <ele>377.3</ele>
      </trkpt>
      <trkpt lat="46.71031" lon="5.64881">
        <ele>380.2</ele>
      </trkpt>
      <trkpt lat="46.71043" lon="5.64878">
        <ele>385.4</ele>
      </trkpt>
      <trkpt lat="46.71051" lon="5.64874">
        <ele>387.8</ele>
      </trkpt>
      <trkpt lat="46.71064" lon="5.64866">
        <ele>390.8</ele>
      </trkpt>
      <trkpt lat="46.71071" lon="5.64861">
        <ele>392.3</ele>
      </trkpt>
      <trkpt lat="46.71077" lon="5.64854">
        <ele>392.8</ele>
      </trkpt>
      <trkpt lat="46.71089" lon="5.64843">
        <ele>394.7</ele>
      </trkpt>
      <trkpt lat="46.71101" lon="5.64832">
        <ele>395.8</ele>
      </trkpt>
      <trkpt lat="46.71108" lon="5.64827">
        <ele>397.2</ele>
      </trkpt>
      <trkpt lat="46.71103" lon="5.64834">
        <ele>397.5</ele>
        <extensions>
          <visugpx:TrkExtension xmlns:visugpx="https://www.visugpx.com/editgpx/">
            <visugpx:node>25</visugpx:node>
            </visugpx:TrkExtension>
        </extensions>
      </trkpt>
      <trkpt lat="46.71108" lon="5.64827">
        <ele>397.2</ele>
      </trkpt>
      <trkpt lat="46.71109" lon="5.64826">
        <ele>397.4</ele>
      </trkpt>
      <trkpt lat="46.71115" lon="5.6482">
        <ele>398.2</ele>
      </trkpt>
      <trkpt lat="46.71122" lon="5.64816">
        <ele>400.2</ele>
      </trkpt>
      <trkpt lat="46.71129" lon="5.64812">
        <ele>402.3</ele>
      </trkpt>
      <trkpt lat="46.71137" lon="5.64804">
        <ele>403.5</ele>
      </trkpt>
      <trkpt lat="46.71145" lon="5.64795">
        <ele>404.9</ele>
      </trkpt>
      <trkpt lat="46.71153" lon="5.64788">
        <ele>407.3</ele>
      </trkpt>
      <trkpt lat="46.71161" lon="5.64781">
        <ele>409.7</ele>
      </trkpt>
      <trkpt lat="46.71172" lon="5.64771">
        <ele>413.5</ele>
      </trkpt>
      <trkpt lat="46.71179" lon="5.64762">
        <ele>415</ele>
      </trkpt>
      <trkpt lat="46.71184" lon="5.64757">
        <ele>416.3</ele>
      </trkpt>
      <trkpt lat="46.7119" lon="5.64756">
        <ele>419.8</ele>
      </trkpt>
      <trkpt lat="46.71196" lon="5.64753">
        <ele>422.5</ele>
      </trkpt>
      <trkpt lat="46.712" lon="5.6475">
        <ele>424.2</ele>
      </trkpt>
      <trkpt lat="46.71203" lon="5.64744">
        <ele>424.3</ele>
      </trkpt>
      <trkpt lat="46.7121" lon="5.64735">
        <ele>425.7</ele>
      </trkpt>
      <trkpt lat="46.71215" lon="5.64728">
        <ele>426.1</ele>
      </trkpt>
      <trkpt lat="46.71224" lon="5.64721">
        <ele>428.7</ele>
      </trkpt>
      <trkpt lat="46.71232" lon="5.64714">
        <ele>431.4</ele>
      </trkpt>
      <trkpt lat="46.71239" lon="5.64708">
        <ele>433.8</ele>
      </trkpt>
      <trkpt lat="46.71245" lon="5.64705">
        <ele>436.6</ele>
      </trkpt>
      <trkpt lat="46.71249" lon="5.64699">
        <ele>437</ele>
      </trkpt>
      <trkpt lat="46.71253" lon="5.64692">
        <ele>437.5</ele>
      </trkpt>
      <trkpt lat="46.71257" lon="5.64687">
        <ele>438.9</ele>
      </trkpt>
      <trkpt lat="46.71262" lon="5.64682">
        <ele>441.1</ele>
      </trkpt>
      <trkpt lat="46.71266" lon="5.6468">
        <ele>443.4</ele>
      </trkpt>
      <trkpt lat="46.71272" lon="5.64675">
        <ele>446.2</ele>
      </trkpt>
      <trkpt lat="46.71278" lon="5.64669">
        <ele>448.8</ele>
      </trkpt>
      <trkpt lat="46.71283" lon="5.64662">
        <ele>450.8</ele>
      </trkpt>
      <trkpt lat="46.71289" lon="5.64652">
        <ele>453</ele>
      </trkpt>
      <trkpt lat="46.71299" lon="5.64634">
        <ele>456.6</ele>
      </trkpt>
      <trkpt lat="46.71308" lon="5.64622">
        <ele>461.3</ele>
      </trkpt>
      <trkpt lat="46.71314" lon="5.64612">
        <ele>464.2</ele>
      </trkpt>
      <trkpt lat="46.71318" lon="5.64607">
        <ele>466.9</ele>
      </trkpt>
      <trkpt lat="46.71323" lon="5.64599">
        <ele>469.7</ele>
      </trkpt>
      <trkpt lat="46.71326" lon="5.6459">
        <ele>470.1</ele>
      </trkpt>
      <trkpt lat="46.71326" lon="5.64582">
        <ele>469.1</ele>
      </trkpt>
      <trkpt lat="46.71324" lon="5.64574">
        <ele>471.4</ele>
      </trkpt>
      <trkpt lat="46.71321" lon="5.64567">
        <ele>472.6</ele>
      </trkpt>
      <trkpt lat="46.71319" lon="5.64561">
        <ele>474</ele>
      </trkpt>
      <trkpt lat="46.71316" lon="5.64557">
        <ele>473.8</ele>
      </trkpt>
      <trkpt lat="46.71311" lon="5.64551">
        <ele>473.1</ele>
      </trkpt>
      <trkpt lat="46.71304" lon="5.64544">
        <ele>471.6</ele>
      </trkpt>
      <trkpt lat="46.71295" lon="5.64533">
        <ele>470.7</ele>
      </trkpt>
      <trkpt lat="46.71287" lon="5.64523">
        <ele>472.2</ele>
      </trkpt>
      <trkpt lat="46.71271" lon="5.64499">
        <ele>477.1</ele>
      </trkpt>
      <trkpt lat="46.71267" lon="5.64488">
        <ele>477.4</ele>
      </trkpt>
      <trkpt lat="46.71266" lon="5.64483">
        <ele>478.2</ele>
      </trkpt>
      <trkpt lat="46.71266" lon="5.64472">
        <ele>481.4</ele>
      </trkpt>
      <trkpt lat="46.7127" lon="5.64465">
        <ele>480.9</ele>
      </trkpt>
      <trkpt lat="46.71274" lon="5.64459">
        <ele>481.5</ele>
      </trkpt>
      <trkpt lat="46.71279" lon="5.6446">
        <ele>484.9</ele>
      </trkpt>
      <trkpt lat="46.71281" lon="5.64463">
        <ele>486.3</ele>
      </trkpt>
      <trkpt lat="46.71283" lon="5.64474">
        <ele>488.4</ele>
      </trkpt>
      <trkpt lat="46.71287" lon="5.64481">
        <ele>488.7</ele>
      </trkpt>
      <trkpt lat="46.71295" lon="5.64485">
        <ele>491.1</ele>
      </trkpt>
      <trkpt lat="46.71306" lon="5.64489">
        <ele>494.8</ele>
      </trkpt>
      <trkpt lat="46.71307" lon="5.6449">
        <ele>494.8</ele>
      </trkpt>
      <trkpt lat="46.71308" lon="5.64492">
        <ele>494.6</ele>
      </trkpt>
      <trkpt lat="46.71309" lon="5.64495">
        <ele>494.5</ele>
      </trkpt>
      <trkpt lat="46.71311" lon="5.64498">
        <ele>494.3</ele>
      </trkpt>
      <trkpt lat="46.71313" lon="5.64501">
        <ele>493.9</ele>
      </trkpt>
      <trkpt lat="46.71314" lon="5.64504">
        <ele>493</ele>
      </trkpt>
      <trkpt lat="46.71316" lon="5.64507">
        <ele>492.3</ele>
      </trkpt>
      <trkpt lat="46.71318" lon="5.6451">
        <ele>491.7</ele>
      </trkpt>
      <trkpt lat="46.7132" lon="5.64511">
        <ele>491.8</ele>
      </trkpt>
      <trkpt lat="46.71322" lon="5.64512">
        <ele>492</ele>
      </trkpt>
      <trkpt lat="46.71326" lon="5.64509">
        <ele>493.2</ele>
      </trkpt>
      <trkpt lat="46.71328" lon="5.64503">
        <ele>494.4</ele>
      </trkpt>
      <trkpt lat="46.71333" lon="5.64503">
        <ele>494.8</ele>
      </trkpt>
      <trkpt lat="46.71339" lon="5.64503">
        <ele>495</ele>
      </trkpt>
      <trkpt lat="46.71345" lon="5.64501">
        <ele>495.4</ele>
      </trkpt>
      <trkpt lat="46.71351" lon="5.645">
        <ele>495.6</ele>
      </trkpt>
      <trkpt lat="46.7136" lon="5.64494">
        <ele>496</ele>
      </trkpt>
      <trkpt lat="46.71361" lon="5.64472">
        <ele>496</ele>
      </trkpt>
      <trkpt lat="46.71377" lon="5.64482">
        <ele>495.6</ele>
      </trkpt>
      <trkpt lat="46.71382" lon="5.64472">
        <ele>496</ele>
      </trkpt>
      <trkpt lat="46.71389" lon="5.64457">
        <ele>496.5</ele>
      </trkpt>
      <trkpt lat="46.71395" lon="5.6444">
        <ele>497.2</ele>
      </trkpt>
      <trkpt lat="46.71398" lon="5.64432">
        <ele>497.4</ele>
      </trkpt>
      <trkpt lat="46.71407" lon="5.64422">
        <ele>497.8</ele>
      </trkpt>
      <trkpt lat="46.71413" lon="5.64416">
        <ele>498</ele>
      </trkpt>
      <trkpt lat="46.71428" lon="5.64409">
        <ele>497.9</ele>
      </trkpt>
      <trkpt lat="46.71442" lon="5.64402">
        <ele>497.6</ele>
      </trkpt>
      <trkpt lat="46.71456" lon="5.64397">
        <ele>497.4</ele>
      </trkpt>
      <trkpt lat="46.71466" lon="5.64396">
        <ele>497.2</ele>
      </trkpt>
      <trkpt lat="46.71479" lon="5.64394">
        <ele>496.7</ele>
      </trkpt>
      <trkpt lat="46.71497" lon="5.64396">
        <ele>495.9</ele>
      </trkpt>
      <trkpt lat="46.71517" lon="5.64402">
        <ele>494.9</ele>
      </trkpt>
      <trkpt lat="46.71527" lon="5.64406">
        <ele>494.4</ele>
      </trkpt>
      <trkpt lat="46.71539" lon="5.64413">
        <ele>494.1</ele>
      </trkpt>
      <trkpt lat="46.71551" lon="5.64423">
        <ele>493.8</ele>
      </trkpt>
      <trkpt lat="46.71563" lon="5.64435">
        <ele>493.5</ele>
      </trkpt>
      <trkpt lat="46.71568" lon="5.6444">
        <ele>493.5</ele>
      </trkpt>
      <trkpt lat="46.71572" lon="5.64442">
        <ele>493.6</ele>
      </trkpt>
      <trkpt lat="46.71599" lon="5.64454">
        <ele>493.9</ele>
      </trkpt>
      <trkpt lat="46.71616" lon="5.64463">
        <ele>494.1</ele>
      </trkpt>
      <trkpt lat="46.71631" lon="5.64471">
        <ele>494</ele>
      </trkpt>
      <trkpt lat="46.71652" lon="5.64483">
        <ele>494.1</ele>
      </trkpt>
      <trkpt lat="46.71665" lon="5.64489">
        <ele>494.3</ele>
      </trkpt>
      <trkpt lat="46.71675" lon="5.6449">
        <ele>494.7</ele>
      </trkpt>
      <trkpt lat="46.71685" lon="5.64489">
        <ele>495.1</ele>
      </trkpt>
      <trkpt lat="46.71708" lon="5.64487">
        <ele>495.5</ele>
      </trkpt>
      <trkpt lat="46.71729" lon="5.64484">
        <ele>495.6</ele>
      </trkpt>
      <trkpt lat="46.71744" lon="5.6448">
        <ele>495.7</ele>
      </trkpt>
      <trkpt lat="46.71766" lon="5.64474">
        <ele>495.9</ele>
      </trkpt>
      <trkpt lat="46.71773" lon="5.64472">
        <ele>496</ele>
      </trkpt>
      <trkpt lat="46.71778" lon="5.64469">
        <ele>496.2</ele>
      </trkpt>
      <trkpt lat="46.71784" lon="5.64463">
        <ele>497</ele>
      </trkpt>
      <trkpt lat="46.71787" lon="5.64454">
        <ele>497.8</ele>
      </trkpt>
      <trkpt lat="46.7179" lon="5.6444">
        <ele>498.4</ele>
      </trkpt>
      <trkpt lat="46.71792" lon="5.64425">
        <ele>498.5</ele>
      </trkpt>
      <trkpt lat="46.71794" lon="5.64413">
        <ele>498.5</ele>
      </trkpt>
      <trkpt lat="46.71796" lon="5.64402">
        <ele>498.1</ele>
      </trkpt>
      <trkpt lat="46.71801" lon="5.6439">
        <ele>497.9</ele>
      </trkpt>
      <trkpt lat="46.71803" lon="5.64387">
        <ele>497.8</ele>
        <extensions>
          <visugpx:TrkExtension xmlns:visugpx="https://www.visugpx.com/editgpx/">
            <visugpx:node>26</visugpx:node>
            </visugpx:TrkExtension>
        </extensions>
      </trkpt>
      <trkpt lat="46.71809" lon="5.6438">
        <ele>497.7</ele>
      </trkpt>
      <trkpt lat="46.71811" lon="5.64361">
        <ele>497.2</ele>
      </trkpt>
      <trkpt lat="46.71814" lon="5.6435">
        <ele>496.5</ele>
      </trkpt>
      <trkpt lat="46.71817" lon="5.6434">
        <ele>495.9</ele>
      </trkpt>
      <trkpt lat="46.71822" lon="5.64323">
        <ele>495.6</ele>
      </trkpt>
      <trkpt lat="46.71823" lon="5.64304">
        <ele>495.6</ele>
      </trkpt>
      <trkpt lat="46.71824" lon="5.64285">
        <ele>494.9</ele>
      </trkpt>
      <trkpt lat="46.71826" lon="5.64271">
        <ele>494.1</ele>
      </trkpt>
      <trkpt lat="46.71834" lon="5.64246">
        <ele>491.7</ele>
      </trkpt>
      <trkpt lat="46.71838" lon="5.64239">
        <ele>491.1</ele>
      </trkpt>
      <trkpt lat="46.71841" lon="5.64235">
        <ele>490.8</ele>
      </trkpt>
      <trkpt lat="46.71856" lon="5.64225">
        <ele>489.5</ele>
      </trkpt>
      <trkpt lat="46.71872" lon="5.64222">
        <ele>488.6</ele>
      </trkpt>
      <trkpt lat="46.71888" lon="5.64221">
        <ele>487.9</ele>
      </trkpt>
      <trkpt lat="46.71894" lon="5.64219">
        <ele>487.6</ele>
      </trkpt>
      <trkpt lat="46.71898" lon="5.64207">
        <ele>486.6</ele>
      </trkpt>
      <trkpt lat="46.71901" lon="5.64195">
        <ele>485.6</ele>
      </trkpt>
      <trkpt lat="46.71909" lon="5.64161">
        <ele>484.1</ele>
      </trkpt>
      <trkpt lat="46.71911" lon="5.64154">
        <ele>483.7</ele>
      </trkpt>
      <trkpt lat="46.71919" lon="5.64122">
        <ele>482.1</ele>
      </trkpt>
      <trkpt lat="46.71926" lon="5.64075">
        <ele>479</ele>
      </trkpt>
      <trkpt lat="46.71935" lon="5.6404">
        <ele>477.1</ele>
      </trkpt>
      <trkpt lat="46.71947" lon="5.64005">
        <ele>475</ele>
      </trkpt>
      <trkpt lat="46.7197" lon="5.63974">
        <ele>468.5</ele>
      </trkpt>
      <trkpt lat="46.72011" lon="5.63965">
        <ele>462.6</ele>
      </trkpt>
      <trkpt lat="46.72047" lon="5.63966">
        <ele>457.5</ele>
      </trkpt>
      <trkpt lat="46.72064" lon="5.63963">
        <ele>454.4</ele>
      </trkpt>
      <trkpt lat="46.72061" lon="5.63951">
        <ele>450.8</ele>
      </trkpt>
      <trkpt lat="46.71937" lon="5.63843">
        <ele>421.9</ele>
      </trkpt>
      <trkpt lat="46.71861" lon="5.63774">
        <ele>399.2</ele>
      </trkpt>
      <trkpt lat="46.71812" lon="5.63736">
        <ele>387.8</ele>
      </trkpt>
      <trkpt lat="46.71786" lon="5.63714">
        <ele>380.6</ele>
      </trkpt>
      <trkpt lat="46.71753" lon="5.6369">
        <ele>373.9</ele>
      </trkpt>
      <trkpt lat="46.7172" lon="5.63673">
        <ele>367.4</ele>
      </trkpt>
      <trkpt lat="46.71699" lon="5.63653">
        <ele>363.1</ele>
      </trkpt>
      <trkpt lat="46.71671" lon="5.63624">
        <ele>357</ele>
      </trkpt>
      <trkpt lat="46.71647" lon="5.63613">
        <ele>352.2</ele>
      </trkpt>
      <trkpt lat="46.71608" lon="5.63594">
        <ele>345.8</ele>
      </trkpt>
      <trkpt lat="46.71562" lon="5.63575">
        <ele>336.4</ele>
      </trkpt>
      <trkpt lat="46.71547" lon="5.63566">
        <ele>332.8</ele>
      </trkpt>
      <trkpt lat="46.71539" lon="5.63553">
        <ele>328.7</ele>
      </trkpt>
      <trkpt lat="46.71535" lon="5.63534">
        <ele>324.7</ele>
        <extensions>
          <visugpx:TrkExtension xmlns:visugpx="https://www.visugpx.com/editgpx/">
            <visugpx:node>27</visugpx:node>
            </visugpx:TrkExtension>
        </extensions>
      </trkpt>
      <trkpt lat="46.71534" lon="5.63532">
        <ele>324.2</ele>
      </trkpt>
      <trkpt lat="46.71533" lon="5.63511">
        <ele>321.1</ele>
      </trkpt>
      <trkpt lat="46.71523" lon="5.63513">
        <ele>320.3</ele>
      </trkpt>
      <trkpt lat="46.71496" lon="5.63524">
        <ele>318.2</ele>
      </trkpt>
      <trkpt lat="46.71486" lon="5.63526">
        <ele>317.4</ele>
      </trkpt>
      <trkpt lat="46.71464" lon="5.63535">
        <ele>315.6</ele>
      </trkpt>
      <trkpt lat="46.71442" lon="5.63543">
        <ele>312.9</ele>
      </trkpt>
      <trkpt lat="46.71428" lon="5.63547">
        <ele>309.1</ele>
      </trkpt>
      <trkpt lat="46.71411" lon="5.63553">
        <ele>305.3</ele>
      </trkpt>
      <trkpt lat="46.71395" lon="5.63558">
        <ele>302.7</ele>
      </trkpt>
      <trkpt lat="46.7138" lon="5.63562">
        <ele>300.1</ele>
      </trkpt>
      <trkpt lat="46.71367" lon="5.63566">
        <ele>298.1</ele>
      </trkpt>
      <trkpt lat="46.71356" lon="5.63572">
        <ele>297.3</ele>
      </trkpt>
      <trkpt lat="46.71345" lon="5.63573">
        <ele>296.1</ele>
      </trkpt>
      <trkpt lat="46.71332" lon="5.63572">
        <ele>294.5</ele>
      </trkpt>
      <trkpt lat="46.71321" lon="5.63572">
        <ele>293.4</ele>
      </trkpt>
      <trkpt lat="46.71315" lon="5.63571">
        <ele>292.9</ele>
      </trkpt>
      <trkpt lat="46.71298" lon="5.63606">
        <ele>292.5</ele>
      </trkpt>
      <trkpt lat="46.71273" lon="5.63595">
        <ele>291.5</ele>
      </trkpt>
      <trkpt lat="46.71255" lon="5.63588">
        <ele>291.9</ele>
      </trkpt>
      <trkpt lat="46.71249" lon="5.63585">
        <ele>292</ele>
      </trkpt>
      <trkpt lat="46.71245" lon="5.63583">
        <ele>291.8</ele>
        <extensions>
          <visugpx:TrkExtension xmlns:visugpx="https://www.visugpx.com/editgpx/">
            <visugpx:node>28</visugpx:node>
            </visugpx:TrkExtension>
        </extensions>
      </trkpt>
      <trkpt lat="46.71245" lon="5.63572">
        <ele>293.2</ele>
        <time>2019-10-01T23:42:48Z</time>
      </trkpt>
      <trkpt lat="46.71246" lon="5.6357">
        <ele>293.4</ele>
        <time>2019-10-01T23:43:00Z</time>
      </trkpt>
      <trkpt lat="46.71246" lon="5.6354">
        <ele>295</ele>
        <time>2019-10-01T23:43:18Z</time>
      </trkpt>
      <trkpt lat="46.71248" lon="5.63536">
        <ele>294.9</ele>
        <time>2019-10-01T23:43:25Z</time>
      </trkpt>
      <trkpt lat="46.7125" lon="5.63502">
        <ele>289.9</ele>
        <time>2019-10-01T23:43:42Z</time>
      </trkpt>
      <trkpt lat="46.71248" lon="5.63468">
        <ele>294.5</ele>
        <time>2019-10-01T23:43:55Z</time>
      </trkpt>
      <trkpt lat="46.71231" lon="5.63425">
        <ele>294.7</ele>
        <time>2019-10-01T23:44:04Z</time>
      </trkpt>
      <trkpt lat="46.71218" lon="5.63388">
        <ele>296.2</ele>
        <time>2019-10-01T23:44:13Z</time>
      </trkpt>
      <trkpt lat="46.7121" lon="5.63356">
        <ele>296.6</ele>
        <time>2019-10-01T23:44:26Z</time>
      </trkpt>
      <trkpt lat="46.71206" lon="5.63317">
        <ele>294.2</ele>
        <time>2019-10-01T23:44:28Z</time>
      </trkpt>
      <trkpt lat="46.71206" lon="5.63279">
        <ele>293.3</ele>
        <time>2019-10-01T23:44:45Z</time>
      </trkpt>
      <trkpt lat="46.71199" lon="5.63232">
        <ele>294.3</ele>
        <time>2019-10-01T23:44:59Z</time>
      </trkpt>
      <trkpt lat="46.7118" lon="5.632">
        <ele>296</ele>
        <time>2019-10-01T23:45:13Z</time>
      </trkpt>
      <trkpt lat="46.71158" lon="5.63181">
        <ele>299.3</ele>
        <time>2019-10-01T23:45:24Z</time>
      </trkpt>
      <trkpt lat="46.71152" lon="5.63171">
        <ele>299.5</ele>
        <time>2019-10-01T23:45:40Z</time>
      </trkpt>
      <trkpt lat="46.71152" lon="5.63166">
        <ele>302.8</ele>
        <time>2019-10-01T23:45:50Z</time>
      </trkpt>
      <trkpt lat="46.71158" lon="5.63151">
        <ele>303.7</ele>
        <time>2019-10-01T23:46:04Z</time>
      </trkpt>
      <trkpt lat="46.71159" lon="5.63148">
        <ele>304.1</ele>
        <time>2019-10-01T23:46:07Z</time>
      </trkpt>
      <trkpt lat="46.71179" lon="5.63118">
        <ele>308.1</ele>
        <time>2019-10-01T23:46:22Z</time>
      </trkpt>
      <trkpt lat="46.7118" lon="5.63117">
        <ele>308.3</ele>
        <time>2019-10-01T23:46:40Z</time>
      </trkpt>
      <trkpt lat="46.71183" lon="5.63109">
        <ele>309.1</ele>
        <time>2019-10-01T23:46:53Z</time>
      </trkpt>
      <trkpt lat="46.71184" lon="5.63109">
        <ele>309.2</ele>
        <time>2019-10-01T23:46:59Z</time>
      </trkpt>
      <trkpt lat="46.71199" lon="5.63108">
        <ele>308.6</ele>
        <time>2019-10-01T23:47:03Z</time>
      </trkpt>
      <trkpt lat="46.712" lon="5.63108">
        <ele>308.5</ele>
        <time>2019-10-01T23:47:10Z</time>
      </trkpt>
      <trkpt lat="46.71207" lon="5.63106">
        <ele>308.6</ele>
        <time>2019-10-01T23:47:20Z</time>
      </trkpt>
      <trkpt lat="46.71213" lon="5.63097">
        <ele>309.2</ele>
        <time>2019-10-01T23:47:40Z</time>
      </trkpt>
      <trkpt lat="46.71215" lon="5.6309">
        <ele>309.6</ele>
        <time>2019-10-01T23:47:48Z</time>
      </trkpt>
      <trkpt lat="46.71213" lon="5.63082">
        <ele>321.6</ele>
        <time>2019-10-01T23:48:07Z</time>
      </trkpt>
      <trkpt lat="46.71212" lon="5.63078">
        <ele>321.8</ele>
        <time>2019-10-01T23:48:09Z</time>
      </trkpt>
      <trkpt lat="46.71204" lon="5.63063">
        <ele>323.2</ele>
        <time>2019-10-01T23:48:14Z</time>
      </trkpt>
      <trkpt lat="46.71203" lon="5.63062">
        <ele>323.3</ele>
        <time>2019-10-01T23:48:33Z</time>
      </trkpt>
      <trkpt lat="46.71198" lon="5.6305">
        <ele>324.6</ele>
        <time>2019-10-01T23:48:36Z</time>
      </trkpt>
      <trkpt lat="46.71198" lon="5.63048">
        <ele>324.9</ele>
        <time>2019-10-01T23:48:47Z</time>
      </trkpt>
      <trkpt lat="46.71198" lon="5.63045">
        <ele>325.4</ele>
        <time>2019-10-01T23:49:00Z</time>
      </trkpt>
      <trkpt lat="46.71201" lon="5.63043">
        <ele>325.5</ele>
        <time>2019-10-01T23:49:17Z</time>
      </trkpt>
      <trkpt lat="46.71204" lon="5.63044">
        <ele>325.5</ele>
        <time>2019-10-01T23:49:28Z</time>
      </trkpt>
      <trkpt lat="46.71207" lon="5.63041">
        <ele>325.8</ele>
        <time>2019-10-01T23:49:38Z</time>
      </trkpt>
      <trkpt lat="46.71209" lon="5.63035">
        <ele>326.6</ele>
        <time>2019-10-01T23:49:47Z</time>
      </trkpt>
      <trkpt lat="46.71211" lon="5.63033">
        <ele>326.8</ele>
        <time>2019-10-01T23:49:49Z</time>
      </trkpt>
      <trkpt lat="46.71212" lon="5.63032">
        <ele>327.1</ele>
        <time>2019-10-01T23:49:56Z</time>
      </trkpt>
      <trkpt lat="46.71213" lon="5.63025">
        <ele>327.8</ele>
        <time>2019-10-01T23:50:10Z</time>
      </trkpt>
      <trkpt lat="46.71221" lon="5.63005">
        <ele>330.1</ele>
        <time>2019-10-01T23:50:25Z</time>
      </trkpt>
      <trkpt lat="46.71219" lon="5.62994">
        <ele>339.9</ele>
        <time>2019-10-01T23:50:27Z</time>
      </trkpt>
      <trkpt lat="46.71224" lon="5.62963">
        <ele>341.6</ele>
        <time>2019-10-01T23:50:29Z</time>
      </trkpt>
      <trkpt lat="46.71223" lon="5.6296">
        <ele>341.8</ele>
        <time>2019-10-01T23:50:47Z</time>
      </trkpt>
      <trkpt lat="46.71222" lon="5.62957">
        <ele>342</ele>
        <time>2019-10-01T23:50:55Z</time>
      </trkpt>
      <trkpt lat="46.71219" lon="5.62953">
        <ele>342.3</ele>
        <time>2019-10-01T23:51:04Z</time>
      </trkpt>
      <trkpt lat="46.71219" lon="5.62928">
        <ele>343.9</ele>
        <time>2019-10-01T23:51:21Z</time>
      </trkpt>
      <trkpt lat="46.71217" lon="5.62892">
        <ele>351.7</ele>
        <time>2019-10-01T23:51:36Z</time>
      </trkpt>
      <trkpt lat="46.71218" lon="5.6289">
        <ele>351.8</ele>
        <time>2019-10-01T23:51:42Z</time>
      </trkpt>
      <trkpt lat="46.71227" lon="5.62863">
        <ele>353.8</ele>
        <time>2019-10-01T23:51:44Z</time>
      </trkpt>
      <trkpt lat="46.7124" lon="5.62807">
        <ele>364.2</ele>
        <time>2019-10-01T23:51:56Z</time>
      </trkpt>
      <trkpt lat="46.71237" lon="5.62768">
        <ele>369.5</ele>
        <time>2019-10-01T23:51:59Z</time>
      </trkpt>
      <trkpt lat="46.71235" lon="5.62766">
        <ele>369.6</ele>
        <time>2019-10-01T23:52:16Z</time>
      </trkpt>
      <trkpt lat="46.71233" lon="5.6276">
        <ele>370</ele>
        <time>2019-10-01T23:52:20Z</time>
      </trkpt>
      <trkpt lat="46.71232" lon="5.62758">
        <ele>370.2</ele>
        <time>2019-10-01T23:52:24Z</time>
      </trkpt>
      <trkpt lat="46.71232" lon="5.62756">
        <ele>370.4</ele>
        <time>2019-10-01T23:52:40Z</time>
      </trkpt>
      <trkpt lat="46.71221" lon="5.62747">
        <ele>378.4</ele>
        <time>2019-10-01T23:52:58Z</time>
      </trkpt>
      <trkpt lat="46.71213" lon="5.62707">
        <ele>381.3</ele>
        <time>2019-10-01T23:53:14Z</time>
      </trkpt>
      <trkpt lat="46.71219" lon="5.62674">
        <ele>383.6</ele>
        <time>2019-10-01T23:53:20Z</time>
      </trkpt>
      <trkpt lat="46.71224" lon="5.6264">
        <ele>393.2</ele>
        <time>2019-10-01T23:53:40Z</time>
      </trkpt>
      <trkpt lat="46.71224" lon="5.62622">
        <ele>394.8</ele>
        <time>2019-10-01T23:53:58Z</time>
      </trkpt>
      <trkpt lat="46.71224" lon="5.62619">
        <ele>395.1</ele>
        <time>2019-10-01T23:54:13Z</time>
      </trkpt>
      <trkpt lat="46.71225" lon="5.62595">
        <ele>396.9</ele>
        <time>2019-10-01T23:54:28Z</time>
      </trkpt>
      <trkpt lat="46.71231" lon="5.62553">
        <ele>406.8</ele>
        <time>2019-10-01T23:54:32Z</time>
      </trkpt>
      <trkpt lat="46.71227" lon="5.62538">
        <ele>408.5</ele>
        <time>2019-10-01T23:54:41Z</time>
      </trkpt>
      <trkpt lat="46.71233" lon="5.62518">
        <ele>410.6</ele>
        <time>2019-10-01T23:54:49Z</time>
      </trkpt>
      <trkpt lat="46.71243" lon="5.62472">
        <ele>421.5</ele>
        <time>2019-10-01T23:54:58Z</time>
      </trkpt>
      <trkpt lat="46.7126" lon="5.62427">
        <ele>424.4</ele>
        <time>2019-10-01T23:55:07Z</time>
      </trkpt>
      <trkpt lat="46.71266" lon="5.62413">
        <ele>432.4</ele>
        <time>2019-10-01T23:55:21Z</time>
      </trkpt>
      <trkpt lat="46.71275" lon="5.62389">
        <ele>434.3</ele>
        <time>2019-10-01T23:55:23Z</time>
      </trkpt>
      <trkpt lat="46.71285" lon="5.62354">
        <ele>438.2</ele>
        <time>2019-10-01T23:55:42Z</time>
      </trkpt>
      <trkpt lat="46.713" lon="5.62323">
        <ele>453.4</ele>
        <time>2019-10-01T23:55:59Z</time>
      </trkpt>
      <trkpt lat="46.71316" lon="5.62293">
        <ele>456.8</ele>
        <time>2019-10-01T23:56:08Z</time>
      </trkpt>
      <trkpt lat="46.71325" lon="5.62287">
        <ele>457.6</ele>
        <time>2019-10-01T23:56:20Z</time>
      </trkpt>
      <trkpt lat="46.71349" lon="5.6226">
        <ele>455.9</ele>
        <time>2019-10-01T23:56:33Z</time>
      </trkpt>
      <trkpt lat="46.71377" lon="5.62213">
        <ele>467.5</ele>
        <time>2019-10-01T23:56:43Z</time>
      </trkpt>
      <trkpt lat="46.714" lon="5.62173">
        <ele>470</ele>
        <time>2019-10-01T23:56:46Z</time>
      </trkpt>
      <trkpt lat="46.71405" lon="5.62167">
        <ele>470.3</ele>
        <time>2019-10-01T23:57:04Z</time>
      </trkpt>
      <trkpt lat="46.71407" lon="5.6216">
        <ele>476.1</ele>
        <time>2019-10-01T23:57:13Z</time>
      </trkpt>
      <trkpt lat="46.71402" lon="5.62153">
        <ele>478.3</ele>
        <time>2019-10-01T23:57:25Z</time>
      </trkpt>
      <trkpt lat="46.714" lon="5.62153">
        <ele>478.8</ele>
        <time>2019-10-01T23:57:45Z</time>
      </trkpt>
      <trkpt lat="46.71392" lon="5.62147">
        <ele>480.7</ele>
        <time>2019-10-01T23:57:47Z</time>
      </trkpt>
      <trkpt lat="46.71391" lon="5.62145">
        <ele>481</ele>
        <time>2019-10-01T23:58:02Z</time>
      </trkpt>
      <trkpt lat="46.71385" lon="5.62145">
        <ele>481.6</ele>
        <time>2019-10-01T23:58:20Z</time>
      </trkpt>
      <trkpt lat="46.71364" lon="5.62157">
        <ele>483.4</ele>
        <time>2019-10-01T23:58:31Z</time>
      </trkpt>
      <trkpt lat="46.71345" lon="5.62178">
        <ele>478.1</ele>
        <time>2019-10-01T23:58:40Z</time>
      </trkpt>
      <trkpt lat="46.71316" lon="5.62186">
        <ele>483.3</ele>
        <time>2019-10-01T23:58:44Z</time>
      </trkpt>
      <trkpt lat="46.71279" lon="5.62194">
        <ele>484.4</ele>
        <time>2019-10-01T23:58:54Z</time>
      </trkpt>
      <trkpt lat="46.71281" lon="5.6217">
        <ele>486.9</ele>
        <time>2019-10-01T23:59:08Z</time>
      </trkpt>
      <trkpt lat="46.71279" lon="5.62162">
        <ele>494.3</ele>
        <time>2019-10-01T23:59:12Z</time>
      </trkpt>
      <trkpt lat="46.7128" lon="5.62155">
        <ele>494.2</ele>
        <time>2019-10-01T23:59:28Z</time>
      </trkpt>
      <trkpt lat="46.7128" lon="5.62148">
        <ele>494.2</ele>
        <time>2019-10-01T23:59:33Z</time>
      </trkpt>
      <trkpt lat="46.71286" lon="5.6211">
        <ele>494.1</ele>
        <time>2019-10-01T23:59:50Z</time>
      </trkpt>
      <trkpt lat="46.71329" lon="5.62105">
        <ele>491.7</ele>
        <time>2019-10-02T00:00:03Z</time>
      </trkpt>
      <trkpt lat="46.71361" lon="5.62104">
        <ele>485.5</ele>
        <time>2019-10-02T00:00:05Z</time>
      </trkpt>
      <trkpt lat="46.71372" lon="5.62105">
        <ele>485</ele>
        <time>2019-10-02T00:00:09Z</time>
      </trkpt>
      <trkpt lat="46.71372" lon="5.62104">
        <ele>485</ele>
        <time>2019-10-02T00:00:11Z</time>
      </trkpt>
      <trkpt lat="46.71371" lon="5.6209">
        <ele>485.6</ele>
        <time>2019-10-02T00:00:23Z</time>
      </trkpt>
      <trkpt lat="46.71376" lon="5.62071">
        <ele>488.3</ele>
        <time>2019-10-02T00:00:25Z</time>
      </trkpt>
      <trkpt lat="46.71374" lon="5.62028">
        <ele>488.2</ele>
        <time>2019-10-02T00:00:36Z</time>
      </trkpt>
      <trkpt lat="46.71366" lon="5.61997">
        <ele>486</ele>
        <time>2019-10-02T00:00:56Z</time>
      </trkpt>
      <trkpt lat="46.71327" lon="5.6195">
        <ele>481.9</ele>
        <time>2019-10-02T00:00:58Z</time>
      </trkpt>
      <trkpt lat="46.71294" lon="5.61917">
        <ele>475.7</ele>
        <time>2019-10-02T00:01:12Z</time>
      </trkpt>
      <trkpt lat="46.71249" lon="5.61898">
        <ele>472.1</ele>
        <time>2019-10-02T00:01:23Z</time>
      </trkpt>
      <trkpt lat="46.71231" lon="5.61881">
        <ele>470.4</ele>
        <time>2019-10-02T00:01:35Z</time>
      </trkpt>
      <trkpt lat="46.71219" lon="5.61831">
        <ele>467.4</ele>
        <time>2019-10-02T00:01:49Z</time>
      </trkpt>
      <trkpt lat="46.71204" lon="5.61773">
        <ele>468.5</ele>
        <time>2019-10-02T00:01:58Z</time>
      </trkpt>
      <trkpt lat="46.71192" lon="5.61728">
        <ele>478</ele>
        <time>2019-10-02T00:02:13Z</time>
      </trkpt>
      <trkpt lat="46.71195" lon="5.61717">
        <ele>479.1</ele>
        <time>2019-10-02T00:02:21Z</time>
      </trkpt>
      <trkpt lat="46.71194" lon="5.61707">
        <ele>480.4</ele>
        <time>2019-10-02T00:02:31Z</time>
      </trkpt>
      <trkpt lat="46.71193" lon="5.61703">
        <ele>481</ele>
        <time>2019-10-02T00:02:33Z</time>
      </trkpt>
      <trkpt lat="46.71191" lon="5.61695">
        <ele>482.3</ele>
        <time>2019-10-02T00:02:49Z</time>
      </trkpt>
      <trkpt lat="46.7119" lon="5.61692">
        <ele>482.9</ele>
        <time>2019-10-02T00:03:02Z</time>
      </trkpt>
      <trkpt lat="46.71189" lon="5.61692">
        <ele>482.9</ele>
        <time>2019-10-02T00:03:16Z</time>
      </trkpt>
      <trkpt lat="46.7119" lon="5.61691">
        <ele>483.1</ele>
        <time>2019-10-02T00:03:27Z</time>
      </trkpt>
      <trkpt lat="46.71192" lon="5.61686">
        <ele>483.5</ele>
        <time>2019-10-02T00:03:40Z</time>
      </trkpt>
      <trkpt lat="46.71195" lon="5.61686">
        <ele>483.3</ele>
        <time>2019-10-02T00:03:56Z</time>
      </trkpt>
      <trkpt lat="46.71197" lon="5.61684">
        <ele>483.2</ele>
        <time>2019-10-02T00:04:12Z</time>
      </trkpt>
      <trkpt lat="46.71196" lon="5.61674">
        <ele>484.3</ele>
        <time>2019-10-02T00:04:16Z</time>
      </trkpt>
      <trkpt lat="46.71197" lon="5.61674">
        <ele>484.3</ele>
        <time>2019-10-02T00:04:35Z</time>
      </trkpt>
      <trkpt lat="46.71197" lon="5.61655">
        <ele>493.4</ele>
        <time>2019-10-02T00:04:42Z</time>
      </trkpt>
      <trkpt lat="46.71196" lon="5.61648">
        <ele>493.7</ele>
        <time>2019-10-02T00:04:59Z</time>
      </trkpt>
      <trkpt lat="46.71197" lon="5.61646">
        <ele>493.7</ele>
        <time>2019-10-02T00:05:04Z</time>
      </trkpt>
      <trkpt lat="46.71184" lon="5.61597">
        <ele>497.1</ele>
        <time>2019-10-02T00:05:11Z</time>
      </trkpt>
      <trkpt lat="46.71184" lon="5.61595">
        <ele>497.3</ele>
        <time>2019-10-02T00:05:27Z</time>
      </trkpt>
      <trkpt lat="46.71186" lon="5.61592">
        <ele>497.3</ele>
        <time>2019-10-02T00:05:41Z</time>
      </trkpt>
      <trkpt lat="46.71205" lon="5.61584">
        <ele>496.2</ele>
        <time>2019-10-02T00:05:49Z</time>
      </trkpt>
      <trkpt lat="46.71236" lon="5.61583">
        <ele>495.9</ele>
        <time>2019-10-02T00:05:57Z</time>
      </trkpt>
      <trkpt lat="46.71278" lon="5.61571">
        <ele>494.1</ele>
        <time>2019-10-02T00:06:08Z</time>
      </trkpt>
      <trkpt lat="46.71301" lon="5.61563">
        <ele>492.7</ele>
        <time>2019-10-02T00:06:20Z</time>
      </trkpt>
      <trkpt lat="46.71322" lon="5.61548">
        <ele>492.3</ele>
        <time>2019-10-02T00:06:28Z</time>
      </trkpt>
      <trkpt lat="46.71346" lon="5.61539">
        <ele>487.4</ele>
        <time>2019-10-02T00:06:47Z</time>
      </trkpt>
      <trkpt lat="46.71379" lon="5.61517">
        <ele>487.5</ele>
        <time>2019-10-02T00:06:52Z</time>
      </trkpt>
      <trkpt lat="46.71399" lon="5.615">
        <ele>489</ele>
        <time>2019-10-02T00:06:58Z</time>
      </trkpt>
      <trkpt lat="46.71414" lon="5.61472">
        <ele>494.5</ele>
        <time>2019-10-02T00:07:02Z</time>
      </trkpt>
      <trkpt lat="46.71416" lon="5.61458">
        <ele>495.3</ele>
        <time>2019-10-02T00:07:20Z</time>
      </trkpt>
      <trkpt lat="46.71414" lon="5.61389">
        <ele>500.3</ele>
        <time>2019-10-02T00:07:37Z</time>
      </trkpt>
      <trkpt lat="46.71413" lon="5.61385">
        <ele>500.4</ele>
        <time>2019-10-02T00:07:56Z</time>
      </trkpt>
      <trkpt lat="46.71421" lon="5.61372">
        <ele>500.4</ele>
        <time>2019-10-02T00:08:03Z</time>
      </trkpt>
      <trkpt lat="46.7143" lon="5.61368">
        <ele>500.5</ele>
        <time>2019-10-02T00:08:19Z</time>
      </trkpt>
      <trkpt lat="46.71432" lon="5.61365">
        <ele>500.6</ele>
        <time>2019-10-02T00:08:31Z</time>
      </trkpt>
      <trkpt lat="46.7148" lon="5.61359">
        <ele>499.9</ele>
        <time>2019-10-02T00:08:41Z</time>
      </trkpt>
      <trkpt lat="46.71525" lon="5.61353">
        <ele>495</ele>
        <time>2019-10-02T00:08:53Z</time>
      </trkpt>
      <trkpt lat="46.71555" lon="5.61309">
        <ele>500.3</ele>
        <time>2019-10-02T00:09:07Z</time>
      </trkpt>
      <trkpt lat="46.71577" lon="5.61246">
        <ele>502.4</ele>
        <time>2019-10-02T00:09:19Z</time>
      </trkpt>
      <trkpt lat="46.71583" lon="5.61231">
        <ele>502.7</ele>
        <time>2019-10-02T00:09:28Z</time>
      </trkpt>
      <trkpt lat="46.7159" lon="5.61196">
        <ele>503.2</ele>
        <time>2019-10-02T00:09:40Z</time>
      </trkpt>
      <trkpt lat="46.71592" lon="5.61193">
        <ele>503.3</ele>
        <time>2019-10-02T00:09:59Z</time>
      </trkpt>
      <trkpt lat="46.71623" lon="5.61182">
        <ele>503.3</ele>
        <time>2019-10-02T00:10:18Z</time>
      </trkpt>
      <trkpt lat="46.7165" lon="5.61169">
        <ele>503.5</ele>
        <time>2019-10-02T00:10:38Z</time>
      </trkpt>
      <trkpt lat="46.7169" lon="5.61161">
        <ele>499.8</ele>
        <time>2019-10-02T00:10:57Z</time>
      </trkpt>
      <trkpt lat="46.71734" lon="5.61173">
        <ele>495.8</ele>
        <time>2019-10-02T00:11:08Z</time>
      </trkpt>
      <trkpt lat="46.71757" lon="5.61171">
        <ele>491.1</ele>
        <time>2019-10-02T00:11:14Z</time>
      </trkpt>
      <trkpt lat="46.7178" lon="5.61163">
        <ele>487.7</ele>
        <time>2019-10-02T00:11:30Z</time>
      </trkpt>
      <trkpt lat="46.71801" lon="5.61161">
        <ele>484.8</ele>
        <time>2019-10-02T00:11:42Z</time>
      </trkpt>
      <trkpt lat="46.71821" lon="5.61152">
        <ele>482.6</ele>
        <time>2019-10-02T00:11:51Z</time>
      </trkpt>
      <trkpt lat="46.71857" lon="5.61134">
        <ele>472.8</ele>
        <time>2019-10-02T00:12:08Z</time>
      </trkpt>
      <trkpt lat="46.71879" lon="5.61117">
        <ele>471.2</ele>
        <time>2019-10-02T00:12:17Z</time>
      </trkpt>
      <trkpt lat="46.71914" lon="5.61116">
        <ele>469.1</ele>
        <time>2019-10-02T00:12:30Z</time>
      </trkpt>
      <trkpt lat="46.71921" lon="5.61117">
        <ele>465.1</ele>
        <time>2019-10-02T00:12:36Z</time>
      </trkpt>
      <trkpt lat="46.71936" lon="5.61105">
        <ele>466</ele>
        <time>2019-10-02T00:12:44Z</time>
      </trkpt>
      <trkpt lat="46.71939" lon="5.61051">
        <ele>469.4</ele>
        <time>2019-10-02T00:12:46Z</time>
      </trkpt>
      <trkpt lat="46.71938" lon="5.60984">
        <ele>470.2</ele>
        <time>2019-10-02T00:12:48Z</time>
      </trkpt>
      <trkpt lat="46.71933" lon="5.60929">
        <ele>470.6</ele>
        <time>2019-10-02T00:13:04Z</time>
      </trkpt>
      <trkpt lat="46.71931" lon="5.60889">
        <ele>471.4</ele>
        <time>2019-10-02T00:13:22Z</time>
      </trkpt>
      <trkpt lat="46.71927" lon="5.60854">
        <ele>472.3</ele>
        <time>2019-10-02T00:13:31Z</time>
      </trkpt>
      <trkpt lat="46.71929" lon="5.60839">
        <ele>472.8</ele>
        <time>2019-10-02T00:13:51Z</time>
      </trkpt>
      <trkpt lat="46.71929" lon="5.60838">
        <ele>472.9</ele>
        <time>2019-10-02T00:14:08Z</time>
      </trkpt>
      <trkpt lat="46.71927" lon="5.60834">
        <ele>473.1</ele>
        <time>2019-10-02T00:14:27Z</time>
      </trkpt>
      <trkpt lat="46.71927" lon="5.60829">
        <ele>473.7</ele>
        <time>2019-10-02T00:14:36Z</time>
      </trkpt>
      <trkpt lat="46.71929" lon="5.60823">
        <ele>473.7</ele>
        <time>2019-10-02T00:14:53Z</time>
      </trkpt>
      <trkpt lat="46.71934" lon="5.60816">
        <ele>473.6</ele>
        <time>2019-10-02T00:15:06Z</time>
      </trkpt>
      <trkpt lat="46.71947" lon="5.60773">
        <ele>474.1</ele>
        <time>2019-10-02T00:15:14Z</time>
      </trkpt>
      <trkpt lat="46.71955" lon="5.6074">
        <ele>474</ele>
        <time>2019-10-02T00:15:33Z</time>
      </trkpt>
      <trkpt lat="46.71963" lon="5.6072">
        <ele>473.3</ele>
        <time>2019-10-02T00:15:51Z</time>
      </trkpt>
      <trkpt lat="46.71964" lon="5.60691">
        <ele>472.8</ele>
        <time>2019-10-02T00:16:09Z</time>
      </trkpt>
      <trkpt lat="46.71962" lon="5.60636">
        <ele>464.5</ele>
        <time>2019-10-02T00:16:27Z</time>
      </trkpt>
      <trkpt lat="46.71959" lon="5.60618">
        <ele>463</ele>
        <time>2019-10-02T00:16:34Z</time>
      </trkpt>
      <trkpt lat="46.71947" lon="5.60603">
        <ele>463.1</ele>
        <time>2019-10-02T00:16:46Z</time>
      </trkpt>
      <trkpt lat="46.7191" lon="5.60566">
        <ele>461.1</ele>
        <time>2019-10-02T00:16:51Z</time>
      </trkpt>
      <trkpt lat="46.71879" lon="5.60536">
        <ele>457.5</ele>
        <time>2019-10-02T00:16:59Z</time>
      </trkpt>
      <trkpt lat="46.71875" lon="5.60534">
        <ele>457.5</ele>
        <time>2019-10-02T00:17:05Z</time>
      </trkpt>
      <trkpt lat="46.71871" lon="5.60529">
        <ele>457.1</ele>
        <time>2019-10-02T00:17:23Z</time>
      </trkpt>
      <trkpt lat="46.71857" lon="5.6052">
        <ele>457</ele>
        <time>2019-10-02T00:17:31Z</time>
      </trkpt>
      <trkpt lat="46.71836" lon="5.60502">
        <ele>454.7</ele>
        <time>2019-10-02T00:17:49Z</time>
      </trkpt>
      <trkpt lat="46.71797" lon="5.60464">
        <ele>448.4</ele>
        <time>2019-10-02T00:18:07Z</time>
      </trkpt>
      <trkpt lat="46.71782" lon="5.60453">
        <ele>448.1</ele>
        <time>2019-10-02T00:18:12Z</time>
      </trkpt>
      <trkpt lat="46.71779" lon="5.60448">
        <ele>447.5</ele>
        <time>2019-10-02T00:18:21Z</time>
      </trkpt>
      <trkpt lat="46.71752" lon="5.60427">
        <ele>445</ele>
        <time>2019-10-02T00:18:36Z</time>
      </trkpt>
      <trkpt lat="46.71719" lon="5.604">
        <ele>438.1</ele>
        <time>2019-10-02T00:18:43Z</time>
      </trkpt>
      <trkpt lat="46.71689" lon="5.60377">
        <ele>436.5</ele>
        <time>2019-10-02T00:18:55Z</time>
      </trkpt>
      <trkpt lat="46.7166" lon="5.6035">
        <ele>437</ele>
        <time>2019-10-02T00:19:13Z</time>
      </trkpt>
      <trkpt lat="46.71602" lon="5.60307">
        <ele>422.9</ele>
        <time>2019-10-02T00:19:17Z</time>
      </trkpt>
      <trkpt lat="46.71571" lon="5.60281">
        <ele>428.3</ele>
        <time>2019-10-02T00:19:30Z</time>
      </trkpt>
      <trkpt lat="46.71544" lon="5.60251">
        <ele>427.9</ele>
        <time>2019-10-02T00:19:38Z</time>
      </trkpt>
      <trkpt lat="46.71522" lon="5.60217">
        <ele>409</ele>
        <time>2019-10-02T00:19:43Z</time>
      </trkpt>
      <trkpt lat="46.71491" lon="5.60179">
        <ele>412.9</ele>
        <time>2019-10-02T00:19:56Z</time>
      </trkpt>
      <trkpt lat="46.71484" lon="5.60175">
        <ele>414.5</ele>
        <time>2019-10-02T00:19:59Z</time>
      </trkpt>
      <trkpt lat="46.71477" lon="5.60162">
        <ele>403.1</ele>
        <time>2019-10-02T00:20:02Z</time>
      </trkpt>
      <trkpt lat="46.71451" lon="5.6014">
        <ele>405</ele>
        <time>2019-10-02T00:20:09Z</time>
      </trkpt>
      <trkpt lat="46.71419" lon="5.60118">
        <ele>403.8</ele>
        <time>2019-10-02T00:20:20Z</time>
      </trkpt>
      <trkpt lat="46.71371" lon="5.60077">
        <ele>397.3</ele>
        <time>2019-10-02T00:20:40Z</time>
      </trkpt>
      <trkpt lat="46.71347" lon="5.6005">
        <ele>396.4</ele>
        <time>2019-10-02T00:20:54Z</time>
      </trkpt>
      <trkpt lat="46.71343" lon="5.60042">
        <ele>395.2</ele>
        <time>2019-10-02T00:21:12Z</time>
      </trkpt>
      <trkpt lat="46.7133" lon="5.60027">
        <ele>400.9</ele>
        <time>2019-10-02T00:21:26Z</time>
      </trkpt>
      <trkpt lat="46.71331" lon="5.60022">
        <ele>399.4</ele>
        <time>2019-10-02T00:21:35Z</time>
      </trkpt>
      <trkpt lat="46.7133" lon="5.6">
        <ele>390.3</ele>
        <time>2019-10-02T00:21:50Z</time>
      </trkpt>
      <trkpt lat="46.71324" lon="5.59981">
        <ele>386.1</ele>
        <time>2019-10-02T00:21:58Z</time>
      </trkpt>
      <trkpt lat="46.71319" lon="5.59973">
        <ele>385.4</ele>
        <time>2019-10-02T00:22:18Z</time>
      </trkpt>
      <trkpt lat="46.71315" lon="5.59961">
        <ele>384.3</ele>
        <time>2019-10-02T00:22:38Z</time>
      </trkpt>
      <trkpt lat="46.71292" lon="5.59931">
        <ele>382.9</ele>
        <time>2019-10-02T00:22:58Z</time>
      </trkpt>
      <trkpt lat="46.71262" lon="5.59917">
        <ele>382.3</ele>
        <time>2019-10-02T00:23:17Z</time>
      </trkpt>
      <trkpt lat="46.71244" lon="5.59883">
        <ele>375.1</ele>
        <time>2019-10-02T00:23:20Z</time>
      </trkpt>
      <trkpt lat="46.7123" lon="5.59864">
        <ele>372.9</ele>
        <time>2019-10-02T00:23:36Z</time>
      </trkpt>
      <trkpt lat="46.71227" lon="5.59855">
        <ele>371.9</ele>
        <time>2019-10-02T00:23:52Z</time>
      </trkpt>
      <trkpt lat="46.71204" lon="5.59834">
        <ele>371.8</ele>
        <time>2019-10-02T00:23:54Z</time>
      </trkpt>
      <trkpt lat="46.71154" lon="5.59825">
        <ele>364.4</ele>
        <time>2019-10-02T00:24:00Z</time>
      </trkpt>
      <trkpt lat="46.71119" lon="5.59812">
        <ele>360.9</ele>
        <time>2019-10-02T00:24:19Z</time>
      </trkpt>
      <trkpt lat="46.71097" lon="5.598">
        <ele>360</ele>
        <time>2019-10-02T00:24:33Z</time>
      </trkpt>
      <trkpt lat="46.71072" lon="5.59771">
        <ele>356.5</ele>
        <time>2019-10-02T00:24:37Z</time>
      </trkpt>
      <trkpt lat="46.71056" lon="5.59741">
        <ele>349.2</ele>
        <time>2019-10-02T00:24:43Z</time>
      </trkpt>
      <trkpt lat="46.71053" lon="5.59709">
        <ele>347</ele>
        <time>2019-10-02T00:24:46Z</time>
      </trkpt>
      <trkpt lat="46.71056" lon="5.59694">
        <ele>345.6</ele>
        <time>2019-10-02T00:25:04Z</time>
      </trkpt>
      <trkpt lat="46.71063" lon="5.59678">
        <ele>343.6</ele>
        <time>2019-10-02T00:25:14Z</time>
      </trkpt>
      <trkpt lat="46.71047" lon="5.5966">
        <ele>337.2</ele>
        <time>2019-10-02T00:25:29Z</time>
      </trkpt>
      <trkpt lat="46.71017" lon="5.59666">
        <ele>339.9</ele>
        <time>2019-10-02T00:25:44Z</time>
      </trkpt>
      <trkpt lat="46.70989" lon="5.59675">
        <ele>344.8</ele>
        <time>2019-10-02T00:25:57Z</time>
      </trkpt>
      <trkpt lat="46.70942" lon="5.59705">
        <ele>345</ele>
        <time>2019-10-02T00:26:03Z</time>
      </trkpt>
      <trkpt lat="46.70923" lon="5.59724">
        <ele>346.4</ele>
        <time>2019-10-02T00:26:06Z</time>
      </trkpt>
      <trkpt lat="46.7089" lon="5.59757">
        <ele>349.1</ele>
        <time>2019-10-02T00:26:10Z</time>
      </trkpt>
      <trkpt lat="46.70857" lon="5.59795">
        <ele>350.2</ele>
        <time>2019-10-02T00:26:15Z</time>
      </trkpt>
      <trkpt lat="46.70817" lon="5.59816">
        <ele>347.1</ele>
        <time>2019-10-02T00:26:18Z</time>
      </trkpt>
      <trkpt lat="46.70792" lon="5.59829">
        <ele>344.9</ele>
        <time>2019-10-02T00:26:27Z</time>
      </trkpt>
      <trkpt lat="46.70755" lon="5.59872">
        <ele>358.8</ele>
        <time>2019-10-02T00:26:44Z</time>
      </trkpt>
      <trkpt lat="46.70744" lon="5.59879">
        <ele>357.7</ele>
        <time>2019-10-02T00:26:49Z</time>
      </trkpt>
      <trkpt lat="46.7072" lon="5.59872">
        <ele>356.5</ele>
        <time>2019-10-02T00:27:05Z</time>
      </trkpt>
      <trkpt lat="46.70674" lon="5.59872">
        <ele>356.6</ele>
        <time>2019-10-02T00:27:10Z</time>
      </trkpt>
      <trkpt lat="46.70636" lon="5.5989">
        <ele>361.2</ele>
        <time>2019-10-02T00:27:14Z</time>
      </trkpt>
      <trkpt lat="46.70592" lon="5.59921">
        <ele>374.9</ele>
        <time>2019-10-02T00:27:33Z</time>
      </trkpt>
      <trkpt lat="46.70568" lon="5.59934">
        <ele>373.7</ele>
        <time>2019-10-02T00:27:49Z</time>
      </trkpt>
      <trkpt lat="46.70564" lon="5.59943">
        <ele>374.7</ele>
        <time>2019-10-02T00:28:03Z</time>
      </trkpt>
      <trkpt lat="46.7055" lon="5.59952">
        <ele>375.1</ele>
        <time>2019-10-02T00:28:14Z</time>
      </trkpt>
      <trkpt lat="46.70526" lon="5.59969">
        <ele>375.4</ele>
        <time>2019-10-02T00:28:29Z</time>
      </trkpt>
      <trkpt lat="46.70502" lon="5.59985">
        <ele>376.8</ele>
        <time>2019-10-02T00:28:34Z</time>
      </trkpt>
      <trkpt lat="46.70491" lon="5.59982">
        <ele>368.7</ele>
        <time>2019-10-02T00:28:39Z</time>
      </trkpt>
      <trkpt lat="46.70479" lon="5.59991">
        <ele>368.1</ele>
        <time>2019-10-02T00:28:48Z</time>
      </trkpt>
      <trkpt lat="46.70459" lon="5.60012">
        <ele>379.7</ele>
        <time>2019-10-02T00:28:56Z</time>
      </trkpt>
      <trkpt lat="46.70438" lon="5.60024">
        <ele>378.1</ele>
        <time>2019-10-02T00:28:59Z</time>
      </trkpt>
      <trkpt lat="46.70427" lon="5.60032">
        <ele>378.6</ele>
        <time>2019-10-02T00:29:02Z</time>
      </trkpt>
      <trkpt lat="46.7041" lon="5.60028">
        <ele>367.4</ele>
        <time>2019-10-02T00:29:06Z</time>
      </trkpt>
      <trkpt lat="46.70403" lon="5.60028">
        <ele>367.3</ele>
        <time>2019-10-02T00:29:17Z</time>
      </trkpt>
      <trkpt lat="46.704" lon="5.60031">
        <ele>367.5</ele>
        <time>2019-10-02T00:29:31Z</time>
      </trkpt>
      <trkpt lat="46.70394" lon="5.60029">
        <ele>367</ele>
        <time>2019-10-02T00:29:48Z</time>
      </trkpt>
      <trkpt lat="46.70394" lon="5.60031">
        <ele>367.2</ele>
        <time>2019-10-02T00:30:07Z</time>
      </trkpt>
      <trkpt lat="46.7039" lon="5.60042">
        <ele>368.6</ele>
        <time>2019-10-02T00:30:19Z</time>
      </trkpt>
      <trkpt lat="46.70388" lon="5.60046">
        <ele>369</ele>
        <time>2019-10-02T00:30:34Z</time>
      </trkpt>
      <trkpt lat="46.70364" lon="5.60057">
        <ele>368.1</ele>
        <time>2019-10-02T00:30:39Z</time>
      </trkpt>
      <trkpt lat="46.70363" lon="5.60058">
        <ele>368.1</ele>
        <time>2019-10-02T00:30:49Z</time>
      </trkpt>
      <trkpt lat="46.70341" lon="5.6006">
        <ele>367.1</ele>
        <time>2019-10-02T00:31:02Z</time>
      </trkpt>
      <trkpt lat="46.70324" lon="5.60074">
        <ele>363.3</ele>
        <time>2019-10-02T00:31:22Z</time>
      </trkpt>
      <trkpt lat="46.70297" lon="5.6007">
        <ele>357.9</ele>
        <time>2019-10-02T00:31:25Z</time>
      </trkpt>
      <trkpt lat="46.70278" lon="5.60073">
        <ele>356.2</ele>
        <time>2019-10-02T00:31:38Z</time>
      </trkpt>
      <trkpt lat="46.70259" lon="5.60087">
        <ele>361.6</ele>
        <time>2019-10-02T00:31:44Z</time>
      </trkpt>
      <trkpt lat="46.70236" lon="5.60107">
        <ele>360.9</ele>
        <time>2019-10-02T00:32:03Z</time>
      </trkpt>
      <trkpt lat="46.70226" lon="5.6011">
        <ele>361.3</ele>
        <time>2019-10-02T00:32:18Z</time>
      </trkpt>
      <trkpt lat="46.7021" lon="5.60121">
        <ele>362.1</ele>
        <time>2019-10-02T00:32:36Z</time>
      </trkpt>
      <trkpt lat="46.70181" lon="5.6014">
        <ele>362.6</ele>
        <time>2019-10-02T00:32:50Z</time>
      </trkpt>
      <trkpt lat="46.70166" lon="5.60141">
        <ele>360.1</ele>
        <time>2019-10-02T00:33:02Z</time>
      </trkpt>
      <trkpt lat="46.70152" lon="5.60134">
        <ele>359.4</ele>
        <time>2019-10-02T00:33:07Z</time>
      </trkpt>
      <trkpt lat="46.70129" lon="5.60113">
        <ele>358.4</ele>
        <time>2019-10-02T00:33:13Z</time>
      </trkpt>
      <trkpt lat="46.70106" lon="5.60074">
        <ele>358.3</ele>
        <time>2019-10-02T00:33:31Z</time>
      </trkpt>
      <trkpt lat="46.70096" lon="5.60058">
        <ele>358.7</ele>
        <time>2019-10-02T00:33:33Z</time>
      </trkpt>
      <trkpt lat="46.7009" lon="5.60053">
        <ele>358.9</ele>
        <time>2019-10-02T00:33:47Z</time>
      </trkpt>
      <trkpt lat="46.70087" lon="5.60051">
        <ele>359</ele>
        <time>2019-10-02T00:33:49Z</time>
      </trkpt>
      <trkpt lat="46.70086" lon="5.60052">
        <ele>359.1</ele>
        <time>2019-10-02T00:34:03Z</time>
      </trkpt>
      <trkpt lat="46.70082" lon="5.6005">
        <ele>365.5</ele>
        <time>2019-10-02T00:34:22Z</time>
      </trkpt>
      <trkpt lat="46.70082" lon="5.60049">
        <ele>365.5</ele>
        <time>2019-10-02T00:34:31Z</time>
      </trkpt>
      <trkpt lat="46.70076" lon="5.60043">
        <ele>365.9</ele>
        <time>2019-10-02T00:34:37Z</time>
      </trkpt>
      <trkpt lat="46.7007" lon="5.60027">
        <ele>366.4</ele>
        <time>2019-10-02T00:34:39Z</time>
      </trkpt>
      <trkpt lat="46.7007" lon="5.60023">
        <ele>366.4</ele>
        <time>2019-10-02T00:34:52Z</time>
      </trkpt>
      <trkpt lat="46.70067" lon="5.60007">
        <ele>366.4</ele>
        <time>2019-10-02T00:35:12Z</time>
      </trkpt>
      <trkpt lat="46.70052" lon="5.59977">
        <ele>373.1</ele>
        <time>2019-10-02T00:35:31Z</time>
      </trkpt>
      <trkpt lat="46.70049" lon="5.59974">
        <ele>373.6</ele>
        <time>2019-10-02T00:35:34Z</time>
      </trkpt>
      <trkpt lat="46.70046" lon="5.59965">
        <ele>374.4</ele>
        <time>2019-10-02T00:35:47Z</time>
      </trkpt>
      <trkpt lat="46.70043" lon="5.59961">
        <ele>375</ele>
        <time>2019-10-02T00:35:51Z</time>
      </trkpt>
      <trkpt lat="46.70039" lon="5.59943">
        <ele>376.7</ele>
        <time>2019-10-02T00:36:11Z</time>
      </trkpt>
      <trkpt lat="46.70039" lon="5.59938">
        <ele>377</ele>
        <time>2019-10-02T00:36:20Z</time>
      </trkpt>
      <trkpt lat="46.70034" lon="5.59923">
        <ele>378.6</ele>
        <time>2019-10-02T00:36:38Z</time>
      </trkpt>
      <trkpt lat="46.70034" lon="5.59914">
        <ele>384.5</ele>
        <time>2019-10-02T00:36:46Z</time>
      </trkpt>
      <trkpt lat="46.70031" lon="5.59902">
        <ele>385</ele>
        <time>2019-10-02T00:36:50Z</time>
      </trkpt>
      <trkpt lat="46.70032" lon="5.59899">
        <ele>385</ele>
        <time>2019-10-02T00:37:09Z</time>
      </trkpt>
      <trkpt lat="46.70028" lon="5.59897">
        <ele>385.4</ele>
        <time>2019-10-02T00:37:27Z</time>
      </trkpt>
      <trkpt lat="46.70018" lon="5.59878">
        <ele>386.7</ele>
        <time>2019-10-02T00:37:38Z</time>
      </trkpt>
      <trkpt lat="46.70018" lon="5.59874">
        <ele>386.9</ele>
        <time>2019-10-02T00:37:41Z</time>
      </trkpt>
      <trkpt lat="46.7003" lon="5.59815">
        <ele>391.1</ele>
        <time>2019-10-02T00:38:01Z</time>
      </trkpt>
      <trkpt lat="46.70029" lon="5.59801">
        <ele>391.3</ele>
        <time>2019-10-02T00:38:04Z</time>
      </trkpt>
      <trkpt lat="46.70024" lon="5.59789">
        <ele>392</ele>
        <time>2019-10-02T00:38:23Z</time>
      </trkpt>
      <trkpt lat="46.70018" lon="5.59787">
        <ele>392.6</ele>
        <time>2019-10-02T00:38:33Z</time>
      </trkpt>
      <trkpt lat="46.70009" lon="5.5978">
        <ele>393.7</ele>
        <time>2019-10-02T00:38:39Z</time>
      </trkpt>
      <trkpt lat="46.7001" lon="5.59774">
        <ele>394.1</ele>
        <time>2019-10-02T00:38:59Z</time>
      </trkpt>
      <trkpt lat="46.70006" lon="5.59762">
        <ele>396.1</ele>
        <time>2019-10-02T00:39:05Z</time>
      </trkpt>
      <trkpt lat="46.70006" lon="5.59753">
        <ele>397.9</ele>
        <time>2019-10-02T00:39:19Z</time>
      </trkpt>
      <trkpt lat="46.70002" lon="5.59746">
        <ele>398.7</ele>
        <time>2019-10-02T00:39:25Z</time>
      </trkpt>
      <trkpt lat="46.70003" lon="5.59741">
        <ele>397.9</ele>
        <time>2019-10-02T00:39:27Z</time>
      </trkpt>
      <trkpt lat="46.70004" lon="5.59739">
        <ele>397.5</ele>
        <time>2019-10-02T00:39:36Z</time>
      </trkpt>
      <trkpt lat="46.70014" lon="5.59734">
        <ele>396.1</ele>
        <time>2019-10-02T00:39:53Z</time>
      </trkpt>
      <trkpt lat="46.70018" lon="5.59723">
        <ele>395</ele>
        <time>2019-10-02T00:39:55Z</time>
      </trkpt>
      <trkpt lat="46.7002" lon="5.5971">
        <ele>394.6</ele>
        <time>2019-10-02T00:39:57Z</time>
      </trkpt>
      <trkpt lat="46.7002" lon="5.59697">
        <ele>394.5</ele>
        <time>2019-10-02T00:40:26Z</time>
      </trkpt>
      <trkpt lat="46.70019" lon="5.59693">
        <ele>394.5</ele>
        <time>2019-10-02T00:40:44Z</time>
      </trkpt>
      <trkpt lat="46.7002" lon="5.59664">
        <ele>393.7</ele>
        <time>2019-10-02T00:40:56Z</time>
      </trkpt>
      <trkpt lat="46.70022" lon="5.59657">
        <ele>393.3</ele>
        <time>2019-10-02T00:41:01Z</time>
      </trkpt>
      <trkpt lat="46.70022" lon="5.5964">
        <ele>392.4</ele>
        <time>2019-10-02T00:41:12Z</time>
      </trkpt>
      <trkpt lat="46.70013" lon="5.59605">
        <ele>391.5</ele>
        <time>2019-10-02T00:41:25Z</time>
      </trkpt>
      <trkpt lat="46.7001" lon="5.59598">
        <ele>391.5</ele>
        <time>2019-10-02T00:41:44Z</time>
      </trkpt>
      <trkpt lat="46.70011" lon="5.5956">
        <ele>387</ele>
        <time>2019-10-02T00:41:59Z</time>
      </trkpt>
      <trkpt lat="46.70007" lon="5.59544">
        <ele>385.7</ele>
        <time>2019-10-02T00:42:15Z</time>
      </trkpt>
      <trkpt lat="46.70008" lon="5.59541">
        <ele>385.5</ele>
        <time>2019-10-02T00:42:22Z</time>
      </trkpt>
      <trkpt lat="46.70008" lon="5.59533">
        <ele>385</ele>
        <time>2019-10-02T00:42:24Z</time>
      </trkpt>
      <trkpt lat="46.70013" lon="5.59517">
        <ele>384.2</ele>
        <time>2019-10-02T00:42:27Z</time>
      </trkpt>
      <trkpt lat="46.70016" lon="5.59502">
        <ele>383.9</ele>
        <time>2019-10-02T00:42:31Z</time>
      </trkpt>
      <trkpt lat="46.70041" lon="5.59481">
        <ele>377.8</ele>
        <time>2019-10-02T00:42:38Z</time>
      </trkpt>
      <trkpt lat="46.70046" lon="5.59472">
        <ele>377.3</ele>
        <time>2019-10-02T00:42:49Z</time>
      </trkpt>
      <trkpt lat="46.7005" lon="5.59459">
        <ele>376.7</ele>
        <time>2019-10-02T00:43:06Z</time>
      </trkpt>
      <trkpt lat="46.70054" lon="5.59429">
        <ele>375.3</ele>
        <time>2019-10-02T00:43:11Z</time>
      </trkpt>
      <trkpt lat="46.70063" lon="5.59399">
        <ele>372.3</ele>
        <time>2019-10-02T00:43:31Z</time>
      </trkpt>
      <trkpt lat="46.70076" lon="5.59367">
        <ele>372.1</ele>
        <time>2019-10-02T00:43:45Z</time>
      </trkpt>
      <trkpt lat="46.70091" lon="5.59313">
        <ele>368.5</ele>
        <time>2019-10-02T00:44:03Z</time>
      </trkpt>
      <trkpt lat="46.70097" lon="5.59272">
        <ele>367.4</ele>
        <time>2019-10-02T00:44:10Z</time>
      </trkpt>
      <trkpt lat="46.70105" lon="5.59234">
        <ele>366.6</ele>
        <time>2019-10-02T00:44:24Z</time>
      </trkpt>
      <trkpt lat="46.70112" lon="5.59202">
        <ele>366.3</ele>
        <time>2019-10-02T00:44:36Z</time>
      </trkpt>
      <trkpt lat="46.70121" lon="5.59177">
        <ele>366.1</ele>
        <time>2019-10-02T00:44:50Z</time>
      </trkpt>
      <trkpt lat="46.70122" lon="5.59164">
        <ele>366.9</ele>
        <time>2019-10-02T00:45:07Z</time>
      </trkpt>
      <trkpt lat="46.70156" lon="5.5914">
        <ele>366.1</ele>
        <time>2019-10-02T00:45:27Z</time>
      </trkpt>
      <trkpt lat="46.70171" lon="5.59128">
        <ele>364.6</ele>
        <time>2019-10-02T00:45:31Z</time>
      </trkpt>
      <trkpt lat="46.70177" lon="5.59107">
        <ele>365</ele>
        <time>2019-10-02T00:45:46Z</time>
      </trkpt>
      <trkpt lat="46.70186" lon="5.59069">
        <ele>365.4</ele>
        <time>2019-10-02T00:46:02Z</time>
      </trkpt>
      <trkpt lat="46.70191" lon="5.59037">
        <ele>365.1</ele>
        <time>2019-10-02T00:46:07Z</time>
      </trkpt>
      <trkpt lat="46.70193" lon="5.58994">
        <ele>362.9</ele>
        <time>2019-10-02T00:46:24Z</time>
      </trkpt>
      <trkpt lat="46.70188" lon="5.58958">
        <ele>361.6</ele>
        <time>2019-10-02T00:46:33Z</time>
      </trkpt>
      <trkpt lat="46.7018" lon="5.58922">
        <ele>360</ele>
        <time>2019-10-02T00:46:45Z</time>
      </trkpt>
      <trkpt lat="46.70179" lon="5.58899">
        <ele>354.6</ele>
        <time>2019-10-02T00:46:54Z</time>
      </trkpt>
      <trkpt lat="46.70183" lon="5.5888">
        <ele>352</ele>
        <time>2019-10-02T00:47:01Z</time>
      </trkpt>
      <trkpt lat="46.70197" lon="5.58841">
        <ele>348.8</ele>
        <time>2019-10-02T00:47:15Z</time>
      </trkpt>
      <trkpt lat="46.70216" lon="5.58787">
        <ele>340</ele>
        <time>2019-10-02T00:47:33Z</time>
      </trkpt>
      <trkpt lat="46.70234" lon="5.58743">
        <ele>335.7</ele>
        <time>2019-10-02T00:47:44Z</time>
      </trkpt>
      <trkpt lat="46.70249" lon="5.58709">
        <ele>335.5</ele>
        <time>2019-10-02T00:47:57Z</time>
      </trkpt>
      <trkpt lat="46.70263" lon="5.5867">
        <ele>335.4</ele>
        <time>2019-10-02T00:48:05Z</time>
      </trkpt>
      <trkpt lat="46.70275" lon="5.58627">
        <ele>333.5</ele>
        <time>2019-10-02T00:48:22Z</time>
      </trkpt>
      <trkpt lat="46.70277" lon="5.5858">
        <ele>333.1</ele>
        <time>2019-10-02T00:48:30Z</time>
      </trkpt>
      <trkpt lat="46.70288" lon="5.58541">
        <ele>333.3</ele>
        <time>2019-10-02T00:48:37Z</time>
      </trkpt>
      <trkpt lat="46.70303" lon="5.58515">
        <ele>333.3</ele>
        <time>2019-10-02T00:48:48Z</time>
      </trkpt>
      <trkpt lat="46.70314" lon="5.58474">
        <ele>334.6</ele>
        <time>2019-10-02T00:49:04Z</time>
      </trkpt>
      <trkpt lat="46.7032" lon="5.58441">
        <ele>335.5</ele>
        <time>2019-10-02T00:49:12Z</time>
      </trkpt>
      <trkpt lat="46.70334" lon="5.58376">
        <ele>338.3</ele>
        <time>2019-10-02T00:49:18Z</time>
      </trkpt>
      <trkpt lat="46.70341" lon="5.58335">
        <ele>338.9</ele>
        <time>2019-10-02T00:49:29Z</time>
      </trkpt>
      <trkpt lat="46.70349" lon="5.58294">
        <ele>339.7</ele>
        <time>2019-10-02T00:49:36Z</time>
      </trkpt>
      <trkpt lat="46.70344" lon="5.58258">
        <ele>339.9</ele>
        <time>2019-10-02T00:49:56Z</time>
      </trkpt>
      <trkpt lat="46.70343" lon="5.58251">
        <ele>339.9</ele>
        <time>2019-10-02T00:50:14Z</time>
      </trkpt>
      <trkpt lat="46.70325" lon="5.58228">
        <ele>340.1</ele>
        <time>2019-10-02T00:50:30Z</time>
      </trkpt>
      <trkpt lat="46.70313" lon="5.5822">
        <ele>340.1</ele>
        <time>2019-10-02T00:50:48Z</time>
      </trkpt>
      <trkpt lat="46.70304" lon="5.58181">
        <ele>340.3</ele>
        <time>2019-10-02T00:51:00Z</time>
      </trkpt>
      <trkpt lat="46.7029" lon="5.58133">
        <ele>341.9</ele>
        <time>2019-10-02T00:51:10Z</time>
      </trkpt>
      <trkpt lat="46.70291" lon="5.58093">
        <ele>342.4</ele>
        <time>2019-10-02T00:51:26Z</time>
      </trkpt>
      <trkpt lat="46.70274" lon="5.58054">
        <ele>346.1</ele>
        <time>2019-10-02T00:51:36Z</time>
      </trkpt>
      <trkpt lat="46.70264" lon="5.58017">
        <ele>348.2</ele>
        <time>2019-10-02T00:51:39Z</time>
      </trkpt>
      <trkpt lat="46.70239" lon="5.57975">
        <ele>354</ele>
        <time>2019-10-02T00:51:53Z</time>
      </trkpt>
      <trkpt lat="46.70227" lon="5.57946">
        <ele>355.7</ele>
        <time>2019-10-02T00:52:09Z</time>
      </trkpt>
      <trkpt lat="46.70192" lon="5.57888">
        <ele>363.2</ele>
        <time>2019-10-02T00:52:24Z</time>
      </trkpt>
      <trkpt lat="46.70176" lon="5.57862">
        <ele>365.7</ele>
        <time>2019-10-02T00:52:42Z</time>
      </trkpt>
      <trkpt lat="46.70175" lon="5.57855">
        <ele>366.5</ele>
        <time>2019-10-02T00:52:45Z</time>
      </trkpt>
      <trkpt lat="46.70153" lon="5.57815">
        <ele>373.3</ele>
        <time>2019-10-02T00:52:52Z</time>
      </trkpt>
      <trkpt lat="46.70125" lon="5.57773">
        <ele>375.5</ele>
        <time>2019-10-02T00:52:54Z</time>
      </trkpt>
      <trkpt lat="46.70096" lon="5.57744">
        <ele>378.2</ele>
        <time>2019-10-02T00:53:01Z</time>
      </trkpt>
      <trkpt lat="46.70068" lon="5.57722">
        <ele>379.4</ele>
        <time>2019-10-02T00:53:12Z</time>
      </trkpt>
      <trkpt lat="46.7003" lon="5.577">
        <ele>380.3</ele>
        <time>2019-10-02T00:53:30Z</time>
      </trkpt>
      <trkpt lat="46.70009" lon="5.57689">
        <ele>381.1</ele>
        <time>2019-10-02T00:53:43Z</time>
      </trkpt>
      <trkpt lat="46.69983" lon="5.57683">
        <ele>382.3</ele>
        <time>2019-10-02T00:54:03Z</time>
      </trkpt>
      <trkpt lat="46.69978" lon="5.57684">
        <ele>382.3</ele>
        <time>2019-10-02T00:54:17Z</time>
      </trkpt>
      <trkpt lat="46.69951" lon="5.57678">
        <ele>382.6</ele>
        <time>2019-10-02T00:54:26Z</time>
      </trkpt>
      <trkpt lat="46.69902" lon="5.57664">
        <ele>382.9</ele>
        <time>2019-10-02T00:54:30Z</time>
      </trkpt>
      <trkpt lat="46.69879" lon="5.57659">
        <ele>381.1</ele>
        <time>2019-10-02T00:54:40Z</time>
      </trkpt>
      <trkpt lat="46.69824" lon="5.57626">
        <ele>378.3</ele>
        <time>2019-10-02T00:54:55Z</time>
      </trkpt>
      <trkpt lat="46.69787" lon="5.57613">
        <ele>378.9</ele>
        <time>2019-10-02T00:55:01Z</time>
      </trkpt>
      <trkpt lat="46.69743" lon="5.57602">
        <ele>380.1</ele>
        <time>2019-10-02T00:55:10Z</time>
      </trkpt>
      <trkpt lat="46.6974" lon="5.57598">
        <ele>380.5</ele>
        <time>2019-10-02T00:55:13Z</time>
      </trkpt>
      <trkpt lat="46.69739" lon="5.57594">
        <ele>380.9</ele>
        <time>2019-10-02T00:55:33Z</time>
      </trkpt>
      <trkpt lat="46.69733" lon="5.57584">
        <ele>380.8</ele>
        <time>2019-10-02T00:55:48Z</time>
      </trkpt>
      <trkpt lat="46.69741" lon="5.57584">
        <ele>382.3</ele>
        <time>2019-10-02T00:56:07Z</time>
      </trkpt>
      <trkpt lat="46.69767" lon="5.57535">
        <ele>379.7</ele>
        <time>2019-10-02T00:56:17Z</time>
      </trkpt>
      <trkpt lat="46.69764" lon="5.57521">
        <ele>379.8</ele>
        <time>2019-10-02T00:56:30Z</time>
      </trkpt>
      <trkpt lat="46.69757" lon="5.57513">
        <ele>380.4</ele>
        <time>2019-10-02T00:56:35Z</time>
      </trkpt>
      <trkpt lat="46.69756" lon="5.5751">
        <ele>380.6</ele>
        <time>2019-10-02T00:56:51Z</time>
      </trkpt>
      <trkpt lat="46.69752" lon="5.57501">
        <ele>381.7</ele>
        <time>2019-10-02T00:57:09Z</time>
      </trkpt>
      <trkpt lat="46.69745" lon="5.57494">
        <ele>379.1</ele>
        <time>2019-10-02T00:57:12Z</time>
      </trkpt>
      <trkpt lat="46.69744" lon="5.57491">
        <ele>378.4</ele>
        <time>2019-10-02T00:57:26Z</time>
      </trkpt>
      <trkpt lat="46.69741" lon="5.57488">
        <ele>377.3</ele>
        <time>2019-10-02T00:57:37Z</time>
      </trkpt>
      <trkpt lat="46.69723" lon="5.57487">
        <ele>375</ele>
        <time>2019-10-02T00:57:55Z</time>
      </trkpt>
      <trkpt lat="46.69699" lon="5.575">
        <ele>380</ele>
        <time>2019-10-02T00:58:08Z</time>
      </trkpt>
      <trkpt lat="46.69673" lon="5.57513">
        <ele>378.7</ele>
        <time>2019-10-02T00:58:20Z</time>
      </trkpt>
      <trkpt lat="46.69627" lon="5.5753">
        <ele>371.4</ele>
        <time>2019-10-02T00:58:26Z</time>
      </trkpt>
      <trkpt lat="46.69578" lon="5.57523">
        <ele>360.3</ele>
        <time>2019-10-02T00:58:39Z</time>
      </trkpt>
      <trkpt lat="46.69566" lon="5.5753">
        <ele>359.5</ele>
        <time>2019-10-02T00:58:41Z</time>
      </trkpt>
      <trkpt lat="46.69544" lon="5.57526">
        <ele>357.8</ele>
        <time>2019-10-02T00:59:01Z</time>
      </trkpt>
      <trkpt lat="46.69509" lon="5.5752">
        <ele>354.3</ele>
        <time>2019-10-02T00:59:04Z</time>
      </trkpt>
      <trkpt lat="46.69468" lon="5.57503">
        <ele>347.9</ele>
        <time>2019-10-02T00:59:09Z</time>
      </trkpt>
      <trkpt lat="46.69461" lon="5.57501">
        <ele>347.5</ele>
        <time>2019-10-02T00:59:18Z</time>
      </trkpt>
      <trkpt lat="46.69459" lon="5.57503">
        <ele>347.3</ele>
        <time>2019-10-02T00:59:26Z</time>
      </trkpt>
      <trkpt lat="46.69454" lon="5.57511">
        <ele>347.1</ele>
        <time>2019-10-02T00:59:36Z</time>
      </trkpt>
      <trkpt lat="46.69452" lon="5.57528">
        <ele>347.3</ele>
        <time>2019-10-02T00:59:46Z</time>
      </trkpt>
      <trkpt lat="46.69448" lon="5.57533">
        <ele>347.2</ele>
        <time>2019-10-02T01:00:01Z</time>
      </trkpt>
      <trkpt lat="46.69436" lon="5.57533">
        <ele>346.7</ele>
        <time>2019-10-02T01:00:09Z</time>
      </trkpt>
      <trkpt lat="46.69429" lon="5.57539">
        <ele>346.7</ele>
        <time>2019-10-02T01:00:26Z</time>
      </trkpt>
      <trkpt lat="46.69424" lon="5.57549">
        <ele>346.8</ele>
        <time>2019-10-02T01:00:29Z</time>
      </trkpt>
      <trkpt lat="46.69415" lon="5.57594">
        <ele>345.4</ele>
        <time>2019-10-02T01:00:38Z</time>
      </trkpt>
      <trkpt lat="46.69402" lon="5.57627">
        <ele>344.3</ele>
        <time>2019-10-02T01:00:49Z</time>
      </trkpt>
      <trkpt lat="46.69395" lon="5.57636">
        <ele>344</ele>
        <time>2019-10-02T01:01:05Z</time>
      </trkpt>
      <trkpt lat="46.69371" lon="5.57636">
        <ele>343.9</ele>
        <time>2019-10-02T01:01:23Z</time>
      </trkpt>
      <trkpt lat="46.6936" lon="5.57636">
        <ele>343.7</ele>
        <time>2019-10-02T01:01:30Z</time>
      </trkpt>
      <trkpt lat="46.69359" lon="5.57637">
        <ele>343.6</ele>
        <time>2019-10-02T01:01:41Z</time>
      </trkpt>
      <trkpt lat="46.69345" lon="5.57633">
        <ele>343.6</ele>
        <time>2019-10-02T01:01:53Z</time>
      </trkpt>
      <trkpt lat="46.69343" lon="5.57639">
        <ele>343.2</ele>
        <time>2019-10-02T01:02:00Z</time>
      </trkpt>
      <trkpt lat="46.69341" lon="5.57639">
        <ele>343.2</ele>
        <time>2019-10-02T01:02:17Z</time>
      </trkpt>
      <trkpt lat="46.69336" lon="5.57643">
        <ele>342.9</ele>
        <time>2019-10-02T01:02:28Z</time>
      </trkpt>
      <trkpt lat="46.69335" lon="5.57644">
        <ele>342.8</ele>
        <time>2019-10-02T01:02:37Z</time>
      </trkpt>
      <trkpt lat="46.69303" lon="5.57644">
        <ele>342.4</ele>
        <time>2019-10-02T01:02:52Z</time>
      </trkpt>
      <trkpt lat="46.69288" lon="5.5765">
        <ele>342</ele>
        <time>2019-10-02T01:02:56Z</time>
      </trkpt>
      <trkpt lat="46.69273" lon="5.57648">
        <ele>341.7</ele>
        <time>2019-10-02T01:03:04Z</time>
      </trkpt>
      <trkpt lat="46.69233" lon="5.57635">
        <ele>339.3</ele>
        <time>2019-10-02T01:03:15Z</time>
      </trkpt>
      <trkpt lat="46.69204" lon="5.57624">
        <ele>338.9</ele>
        <time>2019-10-02T01:03:33Z</time>
      </trkpt>
      <trkpt lat="46.69164" lon="5.57605">
        <ele>334.6</ele>
        <time>2019-10-02T01:03:42Z</time>
      </trkpt>
      <trkpt lat="46.69123" lon="5.57583">
        <ele>337.6</ele>
        <time>2019-10-02T01:03:47Z</time>
      </trkpt>
      <trkpt lat="46.69091" lon="5.5757">
        <ele>334.4</ele>
        <time>2019-10-02T01:04:00Z</time>
      </trkpt>
      <trkpt lat="46.69068" lon="5.5756">
        <ele>329.7</ele>
        <time>2019-10-02T01:04:11Z</time>
      </trkpt>
      <trkpt lat="46.69044" lon="5.57551">
        <ele>328.7</ele>
        <time>2019-10-02T01:04:23Z</time>
      </trkpt>
      <trkpt lat="46.68988" lon="5.57524">
        <ele>320.3</ele>
        <time>2019-10-02T01:04:38Z</time>
      </trkpt>
      <trkpt lat="46.68967" lon="5.5751">
        <ele>319.3</ele>
        <time>2019-10-02T01:04:42Z</time>
      </trkpt>
      <trkpt lat="46.68941" lon="5.57485">
        <ele>320</ele>
        <time>2019-10-02T01:04:59Z</time>
      </trkpt>
      <trkpt lat="46.68906" lon="5.5747">
        <ele>311.5</ele>
        <time>2019-10-02T01:05:05Z</time>
      </trkpt>
      <trkpt lat="46.68861" lon="5.57497">
        <ele>307.2</ele>
        <time>2019-10-02T01:05:20Z</time>
      </trkpt>
      <trkpt lat="46.68845" lon="5.575">
        <ele>304.2</ele>
        <time>2019-10-02T01:05:30Z</time>
      </trkpt>
      <trkpt lat="46.68835" lon="5.57481">
        <ele>305.7</ele>
        <time>2019-10-02T01:05:32Z</time>
      </trkpt>
      <trkpt lat="46.68803" lon="5.5744">
        <ele>298.5</ele>
        <time>2019-10-02T01:05:47Z</time>
      </trkpt>
      <trkpt lat="46.68784" lon="5.57417">
        <ele>296.9</ele>
        <time>2019-10-02T01:05:50Z</time>
      </trkpt>
      <trkpt lat="46.68765" lon="5.57397">
        <ele>296.8</ele>
        <time>2019-10-02T01:06:10Z</time>
      </trkpt>
      <trkpt lat="46.68741" lon="5.57377">
        <ele>290.9</ele>
        <time>2019-10-02T01:06:21Z</time>
      </trkpt>
      <trkpt lat="46.68701" lon="5.5733">
        <ele>290.6</ele>
        <time>2019-10-02T01:06:30Z</time>
      </trkpt>
      <trkpt lat="46.68667" lon="5.57299">
        <ele>289.2</ele>
        <time>2019-10-02T01:06:33Z</time>
      </trkpt>
      <trkpt lat="46.68649" lon="5.57277">
        <ele>282.5</ele>
        <time>2019-10-02T01:06:40Z</time>
      </trkpt>
      <trkpt lat="46.6861" lon="5.57255">
        <ele>279.3</ele>
        <time>2019-10-02T01:07:00Z</time>
      </trkpt>
      <trkpt lat="46.68586" lon="5.57243">
        <ele>276.2</ele>
        <time>2019-10-02T01:07:16Z</time>
      </trkpt>
      <trkpt lat="46.68565" lon="5.57231">
        <ele>273.9</ele>
        <time>2019-10-02T01:07:28Z</time>
      </trkpt>
      <trkpt lat="46.68549" lon="5.57205">
        <ele>273.3</ele>
        <time>2019-10-02T01:07:42Z</time>
      </trkpt>
      <trkpt lat="46.6853" lon="5.57165">
        <ele>271.9</ele>
        <time>2019-10-02T01:07:56Z</time>
      </trkpt>
      <trkpt lat="46.68505" lon="5.57127">
        <ele>271.5</ele>
        <time>2019-10-02T01:08:00Z</time>
      </trkpt>
      <trkpt lat="46.68493" lon="5.57073">
        <ele>271.1</ele>
        <time>2019-10-02T01:08:09Z</time>
      </trkpt>
      <trkpt lat="46.68472" lon="5.57001">
        <ele>271.7</ele>
        <time>2019-10-02T01:08:14Z</time>
      </trkpt>
      <trkpt lat="46.68455" lon="5.56952">
        <ele>272.2</ele>
        <time>2019-10-02T01:08:26Z</time>
      </trkpt>
      <trkpt lat="46.68443" lon="5.56909">
        <ele>273.1</ele>
        <time>2019-10-02T01:08:36Z</time>
      </trkpt>
      <trkpt lat="46.68427" lon="5.56884">
        <ele>273.5</ele>
        <time>2019-10-02T01:08:51Z</time>
      </trkpt>
      <trkpt lat="46.68425" lon="5.56847">
        <ele>274.3</ele>
        <time>2019-10-02T01:08:58Z</time>
      </trkpt>
      <trkpt lat="46.68421" lon="5.5681">
        <ele>273.8</ele>
        <time>2019-10-02T01:09:08Z</time>
      </trkpt>
      <trkpt lat="46.68404" lon="5.5678">
        <ele>277.1</ele>
        <time>2019-10-02T01:09:26Z</time>
      </trkpt>
      <trkpt lat="46.68396" lon="5.56767">
        <ele>276.9</ele>
        <time>2019-10-02T01:09:40Z</time>
      </trkpt>
      <trkpt lat="46.68385" lon="5.56723">
        <ele>275.4</ele>
        <time>2019-10-02T01:09:51Z</time>
      </trkpt>
      <trkpt lat="46.68372" lon="5.56694">
        <ele>275.4</ele>
        <time>2019-10-02T01:09:58Z</time>
      </trkpt>
      <trkpt lat="46.68364" lon="5.56663">
        <ele>273.6</ele>
        <time>2019-10-02T01:10:00Z</time>
      </trkpt>
      <trkpt lat="46.68343" lon="5.5661">
        <ele>272.2</ele>
        <time>2019-10-02T01:10:16Z</time>
      </trkpt>
      <trkpt lat="46.68319" lon="5.56559">
        <ele>270.2</ele>
        <time>2019-10-02T01:10:22Z</time>
      </trkpt>
      <trkpt lat="46.68301" lon="5.56531">
        <ele>269.5</ele>
        <time>2019-10-02T01:10:41Z</time>
      </trkpt>
      <trkpt lat="46.68285" lon="5.56507">
        <ele>269.5</ele>
        <time>2019-10-02T01:10:53Z</time>
      </trkpt>
      <trkpt lat="46.68268" lon="5.56479">
        <ele>266.4</ele>
        <time>2019-10-02T01:11:08Z</time>
      </trkpt>
      <trkpt lat="46.68247" lon="5.56446">
        <ele>270.2</ele>
        <time>2019-10-02T01:11:26Z</time>
      </trkpt>
      <trkpt lat="46.68241" lon="5.56441">
        <ele>270</ele>
        <time>2019-10-02T01:11:31Z</time>
      </trkpt>
      <trkpt lat="46.68226" lon="5.56411">
        <ele>267.5</ele>
        <time>2019-10-02T01:11:44Z</time>
      </trkpt>
      <trkpt lat="46.68215" lon="5.56357">
        <ele>267.6</ele>
        <time>2019-10-02T01:11:48Z</time>
      </trkpt>
      <trkpt lat="46.68212" lon="5.56347">
        <ele>267.6</ele>
        <time>2019-10-02T01:12:02Z</time>
      </trkpt>
      <trkpt lat="46.68209" lon="5.56343">
        <ele>267.7</ele>
        <time>2019-10-02T01:12:13Z</time>
      </trkpt>
      <trkpt lat="46.68201" lon="5.56323">
        <ele>266</ele>
        <time>2019-10-02T01:12:30Z</time>
      </trkpt>
      <trkpt lat="46.68191" lon="5.56297">
        <ele>265.7</ele>
        <time>2019-10-02T01:12:35Z</time>
      </trkpt>
      <trkpt lat="46.6819" lon="5.56285">
        <ele>265.5</ele>
        <time>2019-10-02T01:12:37Z</time>
      </trkpt>
      <trkpt lat="46.68168" lon="5.56259">
        <ele>265.1</ele>
        <time>2019-10-02T01:12:57Z</time>
      </trkpt>
      <trkpt lat="46.68145" lon="5.56268">
        <ele>268.4</ele>
        <time>2019-10-02T01:13:04Z</time>
      </trkpt>
      <trkpt lat="46.68143" lon="5.56269">
        <ele>268.6</ele>
        <time>2019-10-02T01:13:18Z</time>
      </trkpt>
      <trkpt lat="46.68112" lon="5.56205">
        <ele>266.1</ele>
        <time>2019-10-02T01:13:32Z</time>
      </trkpt>
      <trkpt lat="46.681" lon="5.56158">
        <ele>264.4</ele>
        <time>2019-10-02T01:13:46Z</time>
      </trkpt>
      <trkpt lat="46.68083" lon="5.56109">
        <ele>264.3</ele>
        <time>2019-10-02T01:13:49Z</time>
      </trkpt>
      <trkpt lat="46.68076" lon="5.56059">
        <ele>262.3</ele>
        <time>2019-10-02T01:14:08Z</time>
      </trkpt>
      <trkpt lat="46.68078" lon="5.56046">
        <ele>262.2</ele>
        <time>2019-10-02T01:14:23Z</time>
      </trkpt>
      <trkpt lat="46.68047" lon="5.56008">
        <ele>262.1</ele>
        <time>2019-10-02T01:14:38Z</time>
      </trkpt>
      <trkpt lat="46.6801" lon="5.55963">
        <ele>261.2</ele>
        <time>2019-10-02T01:14:47Z</time>
      </trkpt>
      <trkpt lat="46.67982" lon="5.55941">
        <ele>262</ele>
        <time>2019-10-02T01:14:49Z</time>
      </trkpt>
      <trkpt lat="46.67936" lon="5.55899">
        <ele>260.3</ele>
        <time>2019-10-02T01:14:51Z</time>
      </trkpt>
      <trkpt lat="46.67921" lon="5.55873">
        <ele>259.2</ele>
        <time>2019-10-02T01:14:56Z</time>
      </trkpt>
      <trkpt lat="46.67915" lon="5.55865">
        <ele>259.4</ele>
        <time>2019-10-02T01:15:15Z</time>
      </trkpt>
      <trkpt lat="46.67876" lon="5.55861">
        <ele>260.1</ele>
        <time>2019-10-02T01:15:31Z</time>
      </trkpt>
      <trkpt lat="46.67835" lon="5.55835">
        <ele>260</ele>
        <time>2019-10-02T01:15:46Z</time>
      </trkpt>
      <trkpt lat="46.67806" lon="5.55817">
        <ele>259.6</ele>
        <time>2019-10-02T01:15:57Z</time>
      </trkpt>
      <trkpt lat="46.67789" lon="5.55804">
        <ele>259.6</ele>
        <time>2019-10-02T01:16:09Z</time>
      </trkpt>
      <trkpt lat="46.67769" lon="5.55768">
        <ele>258.8</ele>
        <time>2019-10-02T01:16:17Z</time>
      </trkpt>
      <trkpt lat="46.67749" lon="5.55731">
        <ele>259</ele>
        <time>2019-10-02T01:16:23Z</time>
      </trkpt>
      <trkpt lat="46.67744" lon="5.55718">
        <ele>259.2</ele>
        <time>2019-10-02T01:16:41Z</time>
      </trkpt>
      <trkpt lat="46.67739" lon="5.55699">
        <ele>259</ele>
        <time>2019-10-02T01:16:50Z</time>
      </trkpt>
      <trkpt lat="46.67726" lon="5.55693">
        <ele>259.2</ele>
        <time>2019-10-02T01:17:07Z</time>
      </trkpt>
      <trkpt lat="46.67722" lon="5.55685">
        <ele>259.2</ele>
        <time>2019-10-02T01:17:23Z</time>
      </trkpt>
      <trkpt lat="46.67716" lon="5.55682">
        <ele>259.3</ele>
        <time>2019-10-02T01:17:34Z</time>
      </trkpt>
      <trkpt lat="46.67696" lon="5.55685">
        <ele>259.9</ele>
        <time>2019-10-02T01:17:39Z</time>
      </trkpt>
      <trkpt lat="46.67685" lon="5.55716">
        <ele>260.9</ele>
        <time>2019-10-02T01:17:44Z</time>
      </trkpt>
      <trkpt lat="46.67666" lon="5.5572">
        <ele>263</ele>
        <time>2019-10-02T01:17:46Z</time>
      </trkpt>
      <trkpt lat="46.67653" lon="5.55702">
        <ele>262.2</ele>
        <time>2019-10-02T01:18:06Z</time>
      </trkpt>
      <trkpt lat="46.67649" lon="5.55682">
        <ele>261.5</ele>
        <time>2019-10-02T01:18:15Z</time>
      </trkpt>
      <trkpt lat="46.6765" lon="5.5568">
        <ele>261.4</ele>
        <time>2019-10-02T01:18:27Z</time>
      </trkpt>
      <trkpt lat="46.67644" lon="5.55666">
        <ele>259.9</ele>
        <time>2019-10-02T01:18:44Z</time>
      </trkpt>
      <trkpt lat="46.67623" lon="5.55655">
        <ele>259.8</ele>
        <time>2019-10-02T01:18:49Z</time>
      </trkpt>
      <trkpt lat="46.6761" lon="5.55657">
        <ele>259.8</ele>
        <time>2019-10-02T01:19:03Z</time>
      </trkpt>
      <trkpt lat="46.67572" lon="5.55642">
        <ele>259.8</ele>
        <time>2019-10-02T01:19:19Z</time>
      </trkpt>
      <trkpt lat="46.6757" lon="5.55605">
        <ele>259.5</ele>
        <time>2019-10-02T01:19:35Z</time>
      </trkpt>
      <trkpt lat="46.67573" lon="5.55545">
        <ele>260.3</ele>
        <time>2019-10-02T01:19:37Z</time>
      </trkpt>
      <trkpt lat="46.67577" lon="5.555">
        <ele>261.6</ele>
        <time>2019-10-02T01:19:49Z</time>
      </trkpt>
      <trkpt lat="46.67576" lon="5.55473">
        <ele>260.8</ele>
        <time>2019-10-02T01:19:54Z</time>
      </trkpt>
      <trkpt lat="46.67565" lon="5.55444">
        <ele>260.3</ele>
        <time>2019-10-02T01:20:03Z</time>
      </trkpt>
      <trkpt lat="46.67566" lon="5.55426">
        <ele>260.1</ele>
        <time>2019-10-02T01:20:16Z</time>
      </trkpt>
      <trkpt lat="46.67544" lon="5.55405">
        <ele>259</ele>
        <time>2019-10-02T01:20:23Z</time>
      </trkpt>
      <trkpt lat="46.67523" lon="5.55391">
        <ele>258.9</ele>
        <time>2019-10-02T01:20:33Z</time>
      </trkpt>
      <trkpt lat="46.67498" lon="5.55373">
        <ele>259.5</ele>
        <time>2019-10-02T01:20:48Z</time>
      </trkpt>
      <trkpt lat="46.67485" lon="5.55363">
        <ele>259.5</ele>
        <time>2019-10-02T01:21:00Z</time>
      </trkpt>
      <trkpt lat="46.67473" lon="5.55347">
        <ele>259.6</ele>
        <time>2019-10-02T01:21:09Z</time>
      </trkpt>
      <trkpt lat="46.67453" lon="5.55309">
        <ele>259.5</ele>
        <time>2019-10-02T01:21:23Z</time>
      </trkpt>
      <trkpt lat="46.67442" lon="5.55288">
        <ele>259.3</ele>
        <time>2019-10-02T01:21:38Z</time>
      </trkpt>
      <trkpt lat="46.67446" lon="5.55283">
        <ele>259.3</ele>
        <time>2019-10-02T01:21:56Z</time>
      </trkpt>
      <trkpt lat="46.67445" lon="5.55281">
        <ele>259.3</ele>
        <time>2019-10-02T01:22:04Z</time>
      </trkpt>
      <trkpt lat="46.67425" lon="5.55278">
        <ele>259.3</ele>
        <time>2019-10-02T01:22:07Z</time>
      </trkpt>
      <trkpt lat="46.67421" lon="5.55272">
        <ele>259.2</ele>
        <time>2019-10-02T01:22:12Z</time>
      </trkpt>
      <trkpt lat="46.67417" lon="5.55269">
        <ele>259.2</ele>
        <time>2019-10-02T01:22:24Z</time>
        <extensions>
          <visugpx:TrkExtension xmlns:visugpx="https://www.visugpx.com/editgpx/">
            <visugpx:node>29</visugpx:node>
            </visugpx:TrkExtension>
        </extensions>
      </trkpt>
      <trkpt lat="46.67425" lon="5.55294">
        <ele>254</ele>
      </trkpt>
      <trkpt lat="46.67445" lon="5.55326">
        <ele>254</ele>
      </trkpt>
      <trkpt lat="46.67472" lon="5.55354">
        <ele>255</ele>
      </trkpt>
      <trkpt lat="46.67503" lon="5.55374">
        <ele>255</ele>
      </trkpt>
      <trkpt lat="46.67535" lon="5.5539">
        <ele>255.3</ele>
      </trkpt>
      <trkpt lat="46.67525" lon="5.55428">
        <ele>255.9</ele>
      </trkpt>
      <trkpt lat="46.67521" lon="5.55441">
        <ele>256</ele>
      </trkpt>
      <trkpt lat="46.67517" lon="5.55457">
        <ele>256</ele>
      </trkpt>
      <trkpt lat="46.67508" lon="5.55488">
        <ele>256</ele>
      </trkpt>
      <trkpt lat="46.67493" lon="5.55546">
        <ele>257</ele>
      </trkpt>
      <trkpt lat="46.67505" lon="5.55628">
        <ele>258.7</ele>
      </trkpt>
      <trkpt lat="46.67508" lon="5.55675">
        <ele>260.8</ele>
      </trkpt>
      <trkpt lat="46.67507" lon="5.55692">
        <ele>261.8</ele>
      </trkpt>
      <trkpt lat="46.67507" lon="5.55701">
        <ele>262.2</ele>
      </trkpt>
      <trkpt lat="46.67513" lon="5.55708">
        <ele>262.5</ele>
      </trkpt>
      <trkpt lat="46.67513" lon="5.55737">
        <ele>263.6</ele>
      </trkpt>
      <trkpt lat="46.67515" lon="5.55755">
        <ele>264.2</ele>
      </trkpt>
      <trkpt lat="46.67521" lon="5.5578">
        <ele>265.4</ele>
      </trkpt>
      <trkpt lat="46.67524" lon="5.55794">
        <ele>266.3</ele>
      </trkpt>
      <trkpt lat="46.67528" lon="5.55809">
        <ele>267.4</ele>
      </trkpt>
      <trkpt lat="46.67539" lon="5.55859">
        <ele>271.4</ele>
      </trkpt>
      <trkpt lat="46.67545" lon="5.55882">
        <ele>272.6</ele>
      </trkpt>
      <trkpt lat="46.67552" lon="5.5591">
        <ele>273</ele>
      </trkpt>
      <trkpt lat="46.67559" lon="5.55937">
        <ele>273.9</ele>
      </trkpt>
      <trkpt lat="46.6756" lon="5.55941">
        <ele>274</ele>
      </trkpt>
      <trkpt lat="46.67565" lon="5.55966">
        <ele>273.8</ele>
      </trkpt>
      <trkpt lat="46.6757" lon="5.55981">
        <ele>274</ele>
      </trkpt>
      <trkpt lat="46.6758" lon="5.55981">
        <ele>274.8</ele>
      </trkpt>
      <trkpt lat="46.6759" lon="5.55981">
        <ele>275.5</ele>
      </trkpt>
      <trkpt lat="46.67591" lon="5.55996">
        <ele>275.6</ele>
      </trkpt>
      <trkpt lat="46.67595" lon="5.56005">
        <ele>275.8</ele>
      </trkpt>
      <trkpt lat="46.67613" lon="5.56024">
        <ele>277.1</ele>
      </trkpt>
      <trkpt lat="46.67627" lon="5.56039">
        <ele>278.9</ele>
      </trkpt>
      <trkpt lat="46.67638" lon="5.56047">
        <ele>279.7</ele>
      </trkpt>
      <trkpt lat="46.67638" lon="5.56065">
        <ele>280</ele>
      </trkpt>
      <trkpt lat="46.67639" lon="5.56088">
        <ele>280.2</ele>
      </trkpt>
      <trkpt lat="46.6764" lon="5.56112">
        <ele>280.9</ele>
      </trkpt>
      <trkpt lat="46.67642" lon="5.56133">
        <ele>280.8</ele>
      </trkpt>
      <trkpt lat="46.67644" lon="5.56151">
        <ele>280.3</ele>
      </trkpt>
      <trkpt lat="46.67648" lon="5.56187">
        <ele>279.7</ele>
      </trkpt>
      <trkpt lat="46.67653" lon="5.56222">
        <ele>279.5</ele>
      </trkpt>
      <trkpt lat="46.67656" lon="5.56256">
        <ele>280</ele>
      </trkpt>
      <trkpt lat="46.67662" lon="5.56301">
        <ele>280.8</ele>
      </trkpt>
      <trkpt lat="46.67667" lon="5.56341">
        <ele>281</ele>
      </trkpt>
      <trkpt lat="46.67671" lon="5.56374">
        <ele>281.3</ele>
      </trkpt>
      <trkpt lat="46.67673" lon="5.56399">
        <ele>281.9</ele>
      </trkpt>
      <trkpt lat="46.67676" lon="5.56423">
        <ele>282</ele>
      </trkpt>
      <trkpt lat="46.67678" lon="5.56452">
        <ele>282</ele>
      </trkpt>
      <trkpt lat="46.6768" lon="5.56479">
        <ele>282.1</ele>
      </trkpt>
      <trkpt lat="46.67681" lon="5.56501">
        <ele>282.5</ele>
      </trkpt>
      <trkpt lat="46.67682" lon="5.56548">
        <ele>283.1</ele>
      </trkpt>
      <trkpt lat="46.67682" lon="5.56552">
        <ele>283.1</ele>
      </trkpt>
      <trkpt lat="46.67683" lon="5.56567">
        <ele>283.6</ele>
      </trkpt>
      <trkpt lat="46.67688" lon="5.56607">
        <ele>284.5</ele>
      </trkpt>
      <trkpt lat="46.6769" lon="5.5663">
        <ele>284.8</ele>
      </trkpt>
      <trkpt lat="46.67691" lon="5.56642">
        <ele>284.9</ele>
      </trkpt>
      <trkpt lat="46.67691" lon="5.56665">
        <ele>284.9</ele>
      </trkpt>
      <trkpt lat="46.67697" lon="5.56667">
        <ele>285.6</ele>
      </trkpt>
      <trkpt lat="46.67702" lon="5.56675">
        <ele>286.8</ele>
      </trkpt>
      <trkpt lat="46.67708" lon="5.56691">
        <ele>287.9</ele>
      </trkpt>
      <trkpt lat="46.67719" lon="5.5671">
        <ele>289.2</ele>
      </trkpt>
      <trkpt lat="46.67728" lon="5.56722">
        <ele>290</ele>
      </trkpt>
      <trkpt lat="46.67737" lon="5.56733">
        <ele>291</ele>
      </trkpt>
      <trkpt lat="46.67747" lon="5.56745">
        <ele>291.3</ele>
      </trkpt>
      <trkpt lat="46.67756" lon="5.56755">
        <ele>292</ele>
      </trkpt>
      <trkpt lat="46.67763" lon="5.56765">
        <ele>292.9</ele>
      </trkpt>
      <trkpt lat="46.67774" lon="5.56781">
        <ele>293.6</ele>
      </trkpt>
      <trkpt lat="46.67779" lon="5.56793">
        <ele>293.7</ele>
      </trkpt>
      <trkpt lat="46.67784" lon="5.56807">
        <ele>294.1</ele>
      </trkpt>
      <trkpt lat="46.67788" lon="5.56823">
        <ele>294.6</ele>
      </trkpt>
      <trkpt lat="46.67793" lon="5.56847">
        <ele>295.9</ele>
      </trkpt>
      <trkpt lat="46.67798" lon="5.56866">
        <ele>297.1</ele>
      </trkpt>
      <trkpt lat="46.67804" lon="5.56891">
        <ele>297</ele>
      </trkpt>
      <trkpt lat="46.67809" lon="5.56912">
        <ele>298</ele>
      </trkpt>
      <trkpt lat="46.67815" lon="5.56931">
        <ele>298.3</ele>
      </trkpt>
      <trkpt lat="46.67821" lon="5.56944">
        <ele>298.6</ele>
      </trkpt>
      <trkpt lat="46.6783" lon="5.56959">
        <ele>298.4</ele>
      </trkpt>
      <trkpt lat="46.6784" lon="5.56973">
        <ele>298.2</ele>
      </trkpt>
      <trkpt lat="46.67853" lon="5.56991">
        <ele>298.2</ele>
      </trkpt>
      <trkpt lat="46.67864" lon="5.57006">
        <ele>298</ele>
      </trkpt>
      <trkpt lat="46.67885" lon="5.57034">
        <ele>297.9</ele>
      </trkpt>
      <trkpt lat="46.67902" lon="5.57057">
        <ele>298.4</ele>
      </trkpt>
      <trkpt lat="46.67913" lon="5.57073">
        <ele>298.2</ele>
      </trkpt>
      <trkpt lat="46.67905" lon="5.57084">
        <ele>297.6</ele>
      </trkpt>
      <trkpt lat="46.67892" lon="5.57102">
        <ele>297.1</ele>
      </trkpt>
      <trkpt lat="46.67882" lon="5.57116">
        <ele>297</ele>
      </trkpt>
      <trkpt lat="46.67887" lon="5.57125">
        <ele>297</ele>
      </trkpt>
      <trkpt lat="46.67892" lon="5.57137">
        <ele>297.1</ele>
      </trkpt>
      <trkpt lat="46.67899" lon="5.57157">
        <ele>296.9</ele>
      </trkpt>
      <trkpt lat="46.67907" lon="5.57181">
        <ele>297.3</ele>
      </trkpt>
      <trkpt lat="46.67911" lon="5.57192">
        <ele>297.6</ele>
      </trkpt>
      <trkpt lat="46.67915" lon="5.57202">
        <ele>297.9</ele>
      </trkpt>
      <trkpt lat="46.67917" lon="5.57208">
        <ele>298</ele>
      </trkpt>
      <trkpt lat="46.67923" lon="5.57225">
        <ele>298.1</ele>
      </trkpt>
      <trkpt lat="46.67928" lon="5.5724">
        <ele>297.8</ele>
      </trkpt>
      <trkpt lat="46.67938" lon="5.57263">
        <ele>297.8</ele>
      </trkpt>
      <trkpt lat="46.67946" lon="5.57284">
        <ele>298.1</ele>
      </trkpt>
      <trkpt lat="46.67955" lon="5.57305">
        <ele>298.4</ele>
      </trkpt>
      <trkpt lat="46.67975" lon="5.57359">
        <ele>299</ele>
      </trkpt>
      <trkpt lat="46.67992" lon="5.57406">
        <ele>298.8</ele>
      </trkpt>
      <trkpt lat="46.68016" lon="5.5747">
        <ele>299</ele>
      </trkpt>
      <trkpt lat="46.68026" lon="5.57498">
        <ele>299</ele>
      </trkpt>
      <trkpt lat="46.68042" lon="5.5754">
        <ele>299</ele>
      </trkpt>
      <trkpt lat="46.68062" lon="5.57592">
        <ele>298.8</ele>
      </trkpt>
      <trkpt lat="46.68071" lon="5.5762">
        <ele>298.6</ele>
      </trkpt>
      <trkpt lat="46.68075" lon="5.5763">
        <ele>298.8</ele>
      </trkpt>
      <trkpt lat="46.68081" lon="5.57645">
        <ele>299</ele>
      </trkpt>
      <trkpt lat="46.68097" lon="5.57686">
        <ele>299</ele>
      </trkpt>
      <trkpt lat="46.6812" lon="5.57746">
        <ele>299</ele>
      </trkpt>
      <trkpt lat="46.68137" lon="5.57791">
        <ele>299</ele>
      </trkpt>
      <trkpt lat="46.68151" lon="5.57829">
        <ele>299.8</ele>
      </trkpt>
      <trkpt lat="46.68155" lon="5.5784">
        <ele>300.2</ele>
      </trkpt>
      <trkpt lat="46.68161" lon="5.57855">
        <ele>300.8</ele>
      </trkpt>
      <trkpt lat="46.68168" lon="5.57875">
        <ele>301.9</ele>
      </trkpt>
      <trkpt lat="46.68175" lon="5.57893">
        <ele>302.1</ele>
      </trkpt>
      <trkpt lat="46.68183" lon="5.5791">
        <ele>303.2</ele>
      </trkpt>
      <trkpt lat="46.68187" lon="5.57917">
        <ele>304</ele>
      </trkpt>
      <trkpt lat="46.68191" lon="5.57924">
        <ele>304.5</ele>
      </trkpt>
      <trkpt lat="46.68199" lon="5.57934">
        <ele>305.4</ele>
      </trkpt>
      <trkpt lat="46.68228" lon="5.57965">
        <ele>307.7</ele>
      </trkpt>
      <trkpt lat="46.68246" lon="5.57985">
        <ele>309.6</ele>
      </trkpt>
      <trkpt lat="46.6825" lon="5.57991">
        <ele>310.4</ele>
      </trkpt>
      <trkpt lat="46.68254" lon="5.57999">
        <ele>310.7</ele>
      </trkpt>
      <trkpt lat="46.68256" lon="5.58007">
        <ele>310.6</ele>
      </trkpt>
      <trkpt lat="46.68256" lon="5.58014">
        <ele>310.6</ele>
      </trkpt>
      <trkpt lat="46.68254" lon="5.58022">
        <ele>310.7</ele>
      </trkpt>
      <trkpt lat="46.68249" lon="5.58032">
        <ele>310.3</ele>
      </trkpt>
      <trkpt lat="46.68241" lon="5.58049">
        <ele>308.6</ele>
      </trkpt>
      <trkpt lat="46.68228" lon="5.58074">
        <ele>311.2</ele>
      </trkpt>
      <trkpt lat="46.68218" lon="5.58098">
        <ele>311.4</ele>
      </trkpt>
      <trkpt lat="46.68212" lon="5.58119">
        <ele>311</ele>
      </trkpt>
      <trkpt lat="46.68208" lon="5.58133">
        <ele>311</ele>
      </trkpt>
      <trkpt lat="46.68206" lon="5.58149">
        <ele>311</ele>
      </trkpt>
      <trkpt lat="46.68203" lon="5.58176">
        <ele>311.1</ele>
      </trkpt>
      <trkpt lat="46.68202" lon="5.58211">
        <ele>311.7</ele>
      </trkpt>
      <trkpt lat="46.68201" lon="5.58252">
        <ele>312</ele>
      </trkpt>
      <trkpt lat="46.682" lon="5.58271">
        <ele>312</ele>
      </trkpt>
      <trkpt lat="46.68199" lon="5.583">
        <ele>312</ele>
      </trkpt>
      <trkpt lat="46.68199" lon="5.58315">
        <ele>312.3</ele>
      </trkpt>
      <trkpt lat="46.68197" lon="5.58327">
        <ele>312.8</ele>
      </trkpt>
      <trkpt lat="46.68194" lon="5.58336">
        <ele>313</ele>
      </trkpt>
      <trkpt lat="46.6819" lon="5.58341">
        <ele>313</ele>
      </trkpt>
      <trkpt lat="46.68197" lon="5.58346">
        <ele>313</ele>
      </trkpt>
      <trkpt lat="46.68209" lon="5.58351">
        <ele>313</ele>
      </trkpt>
      <trkpt lat="46.68224" lon="5.58356">
        <ele>313</ele>
      </trkpt>
      <trkpt lat="46.68237" lon="5.58359">
        <ele>313</ele>
      </trkpt>
      <trkpt lat="46.68242" lon="5.5836">
        <ele>313</ele>
      </trkpt>
      <trkpt lat="46.68266" lon="5.58364">
        <ele>313.4</ele>
      </trkpt>
      <trkpt lat="46.68276" lon="5.58366">
        <ele>314</ele>
      </trkpt>
      <trkpt lat="46.6829" lon="5.58369">
        <ele>314.6</ele>
      </trkpt>
      <trkpt lat="46.68314" lon="5.58371">
        <ele>314.5</ele>
      </trkpt>
      <trkpt lat="46.68333" lon="5.58373">
        <ele>313.9</ele>
      </trkpt>
      <trkpt lat="46.68351" lon="5.58377">
        <ele>313.8</ele>
      </trkpt>
      <trkpt lat="46.68356" lon="5.58405">
        <ele>315.3</ele>
      </trkpt>
      <trkpt lat="46.68363" lon="5.58434">
        <ele>316.8</ele>
      </trkpt>
      <trkpt lat="46.68369" lon="5.58461">
        <ele>319.5</ele>
      </trkpt>
      <trkpt lat="46.68375" lon="5.58487">
        <ele>322.1</ele>
      </trkpt>
      <trkpt lat="46.68379" lon="5.58508">
        <ele>323.9</ele>
      </trkpt>
      <trkpt lat="46.68384" lon="5.58522">
        <ele>323.9</ele>
      </trkpt>
      <trkpt lat="46.68385" lon="5.58524">
        <ele>323.8</ele>
      </trkpt>
      <trkpt lat="46.68393" lon="5.58538">
        <ele>325</ele>
      </trkpt>
      <trkpt lat="46.68402" lon="5.5855">
        <ele>326.6</ele>
      </trkpt>
      <trkpt lat="46.68413" lon="5.58562">
        <ele>327.3</ele>
      </trkpt>
      <trkpt lat="46.68425" lon="5.58572">
        <ele>327.8</ele>
      </trkpt>
      <trkpt lat="46.68432" lon="5.58583">
        <ele>329.4</ele>
      </trkpt>
      <trkpt lat="46.68445" lon="5.58594">
        <ele>330.9</ele>
      </trkpt>
      <trkpt lat="46.68456" lon="5.58606">
        <ele>332.7</ele>
      </trkpt>
      <trkpt lat="46.68465" lon="5.58619">
        <ele>334.9</ele>
      </trkpt>
      <trkpt lat="46.68473" lon="5.58634">
        <ele>336.5</ele>
      </trkpt>
      <trkpt lat="46.68478" lon="5.58651">
        <ele>338.6</ele>
      </trkpt>
      <trkpt lat="46.68482" lon="5.58666">
        <ele>340.3</ele>
      </trkpt>
      <trkpt lat="46.68487" lon="5.58681">
        <ele>341.5</ele>
      </trkpt>
      <trkpt lat="46.68492" lon="5.58701">
        <ele>342.8</ele>
      </trkpt>
      <trkpt lat="46.68498" lon="5.58719">
        <ele>343.8</ele>
      </trkpt>
      <trkpt lat="46.68505" lon="5.58742">
        <ele>345.3</ele>
      </trkpt>
      <trkpt lat="46.68514" lon="5.58765">
        <ele>346.3</ele>
      </trkpt>
      <trkpt lat="46.68522" lon="5.58787">
        <ele>347.2</ele>
      </trkpt>
      <trkpt lat="46.68532" lon="5.58805">
        <ele>348</ele>
      </trkpt>
      <trkpt lat="46.68542" lon="5.58829">
        <ele>348.9</ele>
      </trkpt>
      <trkpt lat="46.68552" lon="5.58848">
        <ele>350.2</ele>
      </trkpt>
      <trkpt lat="46.68563" lon="5.58868">
        <ele>351</ele>
      </trkpt>
      <trkpt lat="46.68575" lon="5.58886">
        <ele>352.6</ele>
      </trkpt>
      <trkpt lat="46.68586" lon="5.58901">
        <ele>353.8</ele>
      </trkpt>
      <trkpt lat="46.68599" lon="5.58914">
        <ele>355.2</ele>
      </trkpt>
      <trkpt lat="46.68617" lon="5.58932">
        <ele>355.9</ele>
      </trkpt>
      <trkpt lat="46.68633" lon="5.58947">
        <ele>357</ele>
      </trkpt>
      <trkpt lat="46.68646" lon="5.58955">
        <ele>357.9</ele>
      </trkpt>
      <trkpt lat="46.68661" lon="5.58964">
        <ele>358.4</ele>
      </trkpt>
      <trkpt lat="46.68672" lon="5.58972">
        <ele>358.6</ele>
      </trkpt>
      <trkpt lat="46.68684" lon="5.58982">
        <ele>359.7</ele>
      </trkpt>
      <trkpt lat="46.68697" lon="5.58998">
        <ele>360.2</ele>
      </trkpt>
      <trkpt lat="46.68709" lon="5.59013">
        <ele>361</ele>
      </trkpt>
      <trkpt lat="46.68724" lon="5.59037">
        <ele>362.4</ele>
      </trkpt>
      <trkpt lat="46.68742" lon="5.59063">
        <ele>363.2</ele>
      </trkpt>
      <trkpt lat="46.68775" lon="5.59114">
        <ele>366</ele>
      </trkpt>
      <trkpt lat="46.68805" lon="5.59158">
        <ele>368.4</ele>
      </trkpt>
      <trkpt lat="46.68822" lon="5.59178">
        <ele>370</ele>
      </trkpt>
      <trkpt lat="46.68838" lon="5.592">
        <ele>371.4</ele>
      </trkpt>
      <trkpt lat="46.68853" lon="5.59217">
        <ele>372.2</ele>
      </trkpt>
      <trkpt lat="46.68869" lon="5.59236">
        <ele>373.7</ele>
      </trkpt>
      <trkpt lat="46.68884" lon="5.59253">
        <ele>374.8</ele>
      </trkpt>
      <trkpt lat="46.68896" lon="5.59266">
        <ele>375.8</ele>
      </trkpt>
      <trkpt lat="46.68911" lon="5.59278">
        <ele>375.7</ele>
      </trkpt>
      <trkpt lat="46.68924" lon="5.5929">
        <ele>377.2</ele>
      </trkpt>
      <trkpt lat="46.6894" lon="5.593">
        <ele>379</ele>
      </trkpt>
      <trkpt lat="46.68957" lon="5.59309">
        <ele>379.8</ele>
      </trkpt>
      <trkpt lat="46.68972" lon="5.59319">
        <ele>380.5</ele>
      </trkpt>
      <trkpt lat="46.68977" lon="5.59327">
        <ele>380.9</ele>
      </trkpt>
      <trkpt lat="46.68974" lon="5.59342">
        <ele>382</ele>
      </trkpt>
      <trkpt lat="46.69001" lon="5.59356">
        <ele>383.4</ele>
      </trkpt>
      <trkpt lat="46.69026" lon="5.5937">
        <ele>384.3</ele>
      </trkpt>
      <trkpt lat="46.69047" lon="5.59383">
        <ele>385</ele>
      </trkpt>
      <trkpt lat="46.69068" lon="5.59397">
        <ele>386.1</ele>
      </trkpt>
      <trkpt lat="46.69089" lon="5.59412">
        <ele>387.4</ele>
      </trkpt>
      <trkpt lat="46.69109" lon="5.5943">
        <ele>389</ele>
      </trkpt>
      <trkpt lat="46.69126" lon="5.59448">
        <ele>390.8</ele>
      </trkpt>
      <trkpt lat="46.6915" lon="5.59475">
        <ele>391.9</ele>
      </trkpt>
      <trkpt lat="46.69157" lon="5.59482">
        <ele>392.3</ele>
      </trkpt>
      <trkpt lat="46.69165" lon="5.59492">
        <ele>392.6</ele>
      </trkpt>
      <trkpt lat="46.69202" lon="5.59534">
        <ele>394.7</ele>
      </trkpt>
      <trkpt lat="46.69227" lon="5.59563">
        <ele>396.5</ele>
      </trkpt>
      <trkpt lat="46.69248" lon="5.59588">
        <ele>398.2</ele>
      </trkpt>
      <trkpt lat="46.69269" lon="5.59613">
        <ele>400</ele>
      </trkpt>
      <trkpt lat="46.69288" lon="5.59635">
        <ele>399</ele>
      </trkpt>
      <trkpt lat="46.6928" lon="5.59643">
        <ele>400.4</ele>
      </trkpt>
      <trkpt lat="46.69273" lon="5.59644">
        <ele>401.2</ele>
      </trkpt>
      <trkpt lat="46.69265" lon="5.59639">
        <ele>401.9</ele>
      </trkpt>
      <trkpt lat="46.69257" lon="5.59637">
        <ele>402.9</ele>
      </trkpt>
      <trkpt lat="46.69259" lon="5.59645">
        <ele>403.4</ele>
      </trkpt>
      <trkpt lat="46.69266" lon="5.59656">
        <ele>403.5</ele>
      </trkpt>
      <trkpt lat="46.69275" lon="5.59664">
        <ele>403.1</ele>
      </trkpt>
      <trkpt lat="46.69284" lon="5.59669">
        <ele>403.3</ele>
      </trkpt>
      <trkpt lat="46.69296" lon="5.59674">
        <ele>403.8</ele>
      </trkpt>
      <trkpt lat="46.6931" lon="5.59692">
        <ele>405.9</ele>
      </trkpt>
      <trkpt lat="46.69324" lon="5.59711">
        <ele>407.9</ele>
      </trkpt>
      <trkpt lat="46.69336" lon="5.59731">
        <ele>409.8</ele>
      </trkpt>
      <trkpt lat="46.69352" lon="5.59752">
        <ele>411.5</ele>
      </trkpt>
      <trkpt lat="46.6937" lon="5.59767">
        <ele>412.6</ele>
      </trkpt>
      <trkpt lat="46.69395" lon="5.59783">
        <ele>413.5</ele>
      </trkpt>
      <trkpt lat="46.69447" lon="5.59827">
        <ele>417.9</ele>
      </trkpt>
      <trkpt lat="46.69463" lon="5.59844">
        <ele>419.4</ele>
      </trkpt>
      <trkpt lat="46.69476" lon="5.59864">
        <ele>421.9</ele>
      </trkpt>
      <trkpt lat="46.69486" lon="5.59883">
        <ele>424.7</ele>
      </trkpt>
      <trkpt lat="46.69498" lon="5.59904">
        <ele>424.4</ele>
      </trkpt>
      <trkpt lat="46.69507" lon="5.59924">
        <ele>426</ele>
      </trkpt>
      <trkpt lat="46.69513" lon="5.59942">
        <ele>429</ele>
      </trkpt>
      <trkpt lat="46.69517" lon="5.59956">
        <ele>430.7</ele>
      </trkpt>
      <trkpt lat="46.69519" lon="5.5997">
        <ele>432.2</ele>
      </trkpt>
      <trkpt lat="46.69525" lon="5.59983">
        <ele>432.4</ele>
      </trkpt>
      <trkpt lat="46.69534" lon="5.60003">
        <ele>434</ele>
      </trkpt>
      <trkpt lat="46.6955" lon="5.60037">
        <ele>438.5</ele>
      </trkpt>
      <trkpt lat="46.69556" lon="5.60053">
        <ele>439.6</ele>
      </trkpt>
      <trkpt lat="46.69559" lon="5.60067">
        <ele>440.9</ele>
      </trkpt>
      <trkpt lat="46.69561" lon="5.6011">
        <ele>445.5</ele>
      </trkpt>
      <trkpt lat="46.69562" lon="5.60142">
        <ele>448.5</ele>
      </trkpt>
      <trkpt lat="46.69564" lon="5.60165">
        <ele>450</ele>
      </trkpt>
      <trkpt lat="46.69567" lon="5.60186">
        <ele>452.1</ele>
      </trkpt>
      <trkpt lat="46.69569" lon="5.60199">
        <ele>452.9</ele>
      </trkpt>
      <trkpt lat="46.69571" lon="5.60227">
        <ele>453.9</ele>
      </trkpt>
      <trkpt lat="46.69573" lon="5.60246">
        <ele>454.7</ele>
      </trkpt>
      <trkpt lat="46.69575" lon="5.60261">
        <ele>454.3</ele>
      </trkpt>
      <trkpt lat="46.69566" lon="5.60279">
        <ele>455.5</ele>
      </trkpt>
      <trkpt lat="46.69551" lon="5.60313">
        <ele>457.9</ele>
      </trkpt>
      <trkpt lat="46.69543" lon="5.60329">
        <ele>459.6</ele>
      </trkpt>
      <trkpt lat="46.69536" lon="5.60353">
        <ele>461.1</ele>
      </trkpt>
      <trkpt lat="46.69532" lon="5.60368">
        <ele>462.2</ele>
      </trkpt>
      <trkpt lat="46.69528" lon="5.60388">
        <ele>463.9</ele>
      </trkpt>
      <trkpt lat="46.69523" lon="5.60428">
        <ele>465.5</ele>
      </trkpt>
      <trkpt lat="46.69519" lon="5.60453">
        <ele>466.4</ele>
      </trkpt>
      <trkpt lat="46.69516" lon="5.60477">
        <ele>467.2</ele>
      </trkpt>
      <trkpt lat="46.69515" lon="5.60494">
        <ele>467.7</ele>
      </trkpt>
      <trkpt lat="46.69518" lon="5.60511">
        <ele>468</ele>
      </trkpt>
      <trkpt lat="46.69524" lon="5.60546">
        <ele>469.9</ele>
      </trkpt>
      <trkpt lat="46.69528" lon="5.60567">
        <ele>470.8</ele>
      </trkpt>
      <trkpt lat="46.69529" lon="5.60584">
        <ele>472</ele>
      </trkpt>
      <trkpt lat="46.69528" lon="5.60601">
        <ele>473.9</ele>
      </trkpt>
      <trkpt lat="46.69525" lon="5.60616">
        <ele>475.4</ele>
      </trkpt>
      <trkpt lat="46.6952" lon="5.60631">
        <ele>476.3</ele>
      </trkpt>
      <trkpt lat="46.69511" lon="5.60647">
        <ele>476.8</ele>
      </trkpt>
      <trkpt lat="46.69501" lon="5.60659">
        <ele>478.9</ele>
      </trkpt>
      <trkpt lat="46.69489" lon="5.6067">
        <ele>480.5</ele>
      </trkpt>
      <trkpt lat="46.69475" lon="5.60683">
        <ele>483.2</ele>
      </trkpt>
      <trkpt lat="46.69464" lon="5.60692">
        <ele>484.9</ele>
      </trkpt>
      <trkpt lat="46.69454" lon="5.60703">
        <ele>484.1</ele>
      </trkpt>
      <trkpt lat="46.69442" lon="5.60714">
        <ele>485.1</ele>
      </trkpt>
      <trkpt lat="46.69432" lon="5.60723">
        <ele>485.1</ele>
      </trkpt>
      <trkpt lat="46.69406" lon="5.60747">
        <ele>482</ele>
      </trkpt>
      <trkpt lat="46.69393" lon="5.60757">
        <ele>480.2</ele>
      </trkpt>
      <trkpt lat="46.69377" lon="5.60771">
        <ele>478</ele>
      </trkpt>
      <trkpt lat="46.69362" lon="5.60785">
        <ele>476.4</ele>
      </trkpt>
      <trkpt lat="46.69356" lon="5.60791">
        <ele>476.3</ele>
      </trkpt>
      <trkpt lat="46.69349" lon="5.60798">
        <ele>476.3</ele>
      </trkpt>
      <trkpt lat="46.69345" lon="5.60805">
        <ele>476.2</ele>
      </trkpt>
      <trkpt lat="46.69339" lon="5.60818">
        <ele>476.3</ele>
      </trkpt>
      <trkpt lat="46.69315" lon="5.60828">
        <ele>477.1</ele>
      </trkpt>
      <trkpt lat="46.69318" lon="5.60849">
        <ele>479.3</ele>
      </trkpt>
      <trkpt lat="46.69336" lon="5.60852">
        <ele>480</ele>
      </trkpt>
      <trkpt lat="46.69354" lon="5.60857">
        <ele>480.5</ele>
      </trkpt>
      <trkpt lat="46.69372" lon="5.60863">
        <ele>481.5</ele>
      </trkpt>
      <trkpt lat="46.69387" lon="5.60868">
        <ele>482.8</ele>
      </trkpt>
      <trkpt lat="46.69398" lon="5.6087">
        <ele>483.4</ele>
      </trkpt>
      <trkpt lat="46.69414" lon="5.60879">
        <ele>485.2</ele>
      </trkpt>
      <trkpt lat="46.69422" lon="5.60889">
        <ele>487.6</ele>
      </trkpt>
      <trkpt lat="46.69427" lon="5.60896">
        <ele>488.7</ele>
      </trkpt>
      <trkpt lat="46.69438" lon="5.60916">
        <ele>489.5</ele>
      </trkpt>
      <trkpt lat="46.69444" lon="5.6093">
        <ele>489</ele>
      </trkpt>
      <trkpt lat="46.69448" lon="5.60946">
        <ele>488.8</ele>
      </trkpt>
      <trkpt lat="46.69464" lon="5.6099">
        <ele>489.3</ele>
      </trkpt>
      <trkpt lat="46.69469" lon="5.60998">
        <ele>489.1</ele>
      </trkpt>
      <trkpt lat="46.695" lon="5.61039">
        <ele>487.4</ele>
      </trkpt>
      <trkpt lat="46.69511" lon="5.61053">
        <ele>487.2</ele>
      </trkpt>
      <trkpt lat="46.69516" lon="5.61058">
        <ele>486.8</ele>
      </trkpt>
      <trkpt lat="46.69533" lon="5.61077">
        <ele>485.8</ele>
      </trkpt>
      <trkpt lat="46.69552" lon="5.61101">
        <ele>485.7</ele>
      </trkpt>
      <trkpt lat="46.69569" lon="5.61125">
        <ele>485.8</ele>
      </trkpt>
      <trkpt lat="46.69572" lon="5.61129">
        <ele>485.8</ele>
      </trkpt>
      <trkpt lat="46.69584" lon="5.61147">
        <ele>486</ele>
      </trkpt>
      <trkpt lat="46.69598" lon="5.61166">
        <ele>485.5</ele>
      </trkpt>
      <trkpt lat="46.69616" lon="5.61189">
        <ele>484.8</ele>
      </trkpt>
      <trkpt lat="46.69628" lon="5.61205">
        <ele>485.1</ele>
      </trkpt>
      <trkpt lat="46.69638" lon="5.61213">
        <ele>484.7</ele>
      </trkpt>
      <trkpt lat="46.69649" lon="5.61218">
        <ele>484.8</ele>
      </trkpt>
      <trkpt lat="46.69663" lon="5.61218">
        <ele>484.8</ele>
      </trkpt>
      <trkpt lat="46.69691" lon="5.61213">
        <ele>484.7</ele>
      </trkpt>
      <trkpt lat="46.69704" lon="5.6121">
        <ele>485.1</ele>
      </trkpt>
      <trkpt lat="46.69714" lon="5.61211">
        <ele>485.6</ele>
      </trkpt>
      <trkpt lat="46.69724" lon="5.61214">
        <ele>486.1</ele>
      </trkpt>
      <trkpt lat="46.69725" lon="5.61214">
        <ele>486.2</ele>
      </trkpt>
      <trkpt lat="46.69735" lon="5.61221">
        <ele>486.9</ele>
      </trkpt>
      <trkpt lat="46.69748" lon="5.61233">
        <ele>487.9</ele>
      </trkpt>
      <trkpt lat="46.69763" lon="5.61248">
        <ele>488.5</ele>
      </trkpt>
      <trkpt lat="46.6978" lon="5.61262">
        <ele>489.5</ele>
      </trkpt>
      <trkpt lat="46.698" lon="5.61278">
        <ele>490</ele>
      </trkpt>
      <trkpt lat="46.69824" lon="5.61296">
        <ele>490.2</ele>
      </trkpt>
      <trkpt lat="46.6984" lon="5.61311">
        <ele>490.4</ele>
      </trkpt>
      <trkpt lat="46.69845" lon="5.61315">
        <ele>490.6</ele>
      </trkpt>
      <trkpt lat="46.69852" lon="5.61322">
        <ele>490.9</ele>
      </trkpt>
      <trkpt lat="46.69868" lon="5.61335">
        <ele>491.1</ele>
      </trkpt>
      <trkpt lat="46.69887" lon="5.6135">
        <ele>491.1</ele>
      </trkpt>
      <trkpt lat="46.69904" lon="5.61362">
        <ele>489.4</ele>
      </trkpt>
      <trkpt lat="46.69925" lon="5.61375">
        <ele>487.9</ele>
      </trkpt>
      <trkpt lat="46.69944" lon="5.61386">
        <ele>486.9</ele>
      </trkpt>
      <trkpt lat="46.69959" lon="5.61395">
        <ele>486.6</ele>
      </trkpt>
      <trkpt lat="46.69976" lon="5.61403">
        <ele>486.2</ele>
      </trkpt>
      <trkpt lat="46.69993" lon="5.61409">
        <ele>487.3</ele>
      </trkpt>
      <trkpt lat="46.70009" lon="5.61413">
        <ele>487.9</ele>
      </trkpt>
      <trkpt lat="46.70026" lon="5.61416">
        <ele>488</ele>
      </trkpt>
      <trkpt lat="46.70041" lon="5.61419">
        <ele>488.2</ele>
      </trkpt>
      <trkpt lat="46.70059" lon="5.61423">
        <ele>488.4</ele>
      </trkpt>
      <trkpt lat="46.70077" lon="5.61427">
        <ele>488.5</ele>
      </trkpt>
      <trkpt lat="46.70133" lon="5.61437">
        <ele>488.7</ele>
      </trkpt>
      <trkpt lat="46.70161" lon="5.61442">
        <ele>488.1</ele>
      </trkpt>
      <trkpt lat="46.70183" lon="5.61445">
        <ele>487.4</ele>
      </trkpt>
      <trkpt lat="46.70199" lon="5.61447">
        <ele>487.2</ele>
      </trkpt>
      <trkpt lat="46.70218" lon="5.61448">
        <ele>487.4</ele>
      </trkpt>
      <trkpt lat="46.70234" lon="5.61448">
        <ele>488.2</ele>
      </trkpt>
      <trkpt lat="46.7025" lon="5.61446">
        <ele>489.1</ele>
      </trkpt>
      <trkpt lat="46.70262" lon="5.61445">
        <ele>489.9</ele>
      </trkpt>
      <trkpt lat="46.70272" lon="5.61447">
        <ele>490.6</ele>
      </trkpt>
      <trkpt lat="46.70274" lon="5.61447">
        <ele>490.8</ele>
      </trkpt>
      <trkpt lat="46.70285" lon="5.61451">
        <ele>491.1</ele>
      </trkpt>
      <trkpt lat="46.70296" lon="5.61459">
        <ele>491.3</ele>
      </trkpt>
      <trkpt lat="46.70306" lon="5.61469">
        <ele>491.9</ele>
      </trkpt>
      <trkpt lat="46.70307" lon="5.61471">
        <ele>492</ele>
      </trkpt>
      <trkpt lat="46.70315" lon="5.61483">
        <ele>493.1</ele>
      </trkpt>
      <trkpt lat="46.70325" lon="5.61498">
        <ele>494.6</ele>
      </trkpt>
      <trkpt lat="46.70335" lon="5.61515">
        <ele>495.6</ele>
      </trkpt>
      <trkpt lat="46.70346" lon="5.61533">
        <ele>496.6</ele>
      </trkpt>
      <trkpt lat="46.7036" lon="5.61554">
        <ele>497</ele>
      </trkpt>
      <trkpt lat="46.7037" lon="5.61568">
        <ele>497.9</ele>
      </trkpt>
      <trkpt lat="46.70382" lon="5.6158">
        <ele>498.2</ele>
      </trkpt>
      <trkpt lat="46.70392" lon="5.61589">
        <ele>498.5</ele>
      </trkpt>
      <trkpt lat="46.70404" lon="5.616">
        <ele>498.8</ele>
      </trkpt>
      <trkpt lat="46.70418" lon="5.61611">
        <ele>498</ele>
      </trkpt>
      <trkpt lat="46.70431" lon="5.61621">
        <ele>497.6</ele>
      </trkpt>
      <trkpt lat="46.7044" lon="5.61629">
        <ele>497.4</ele>
      </trkpt>
      <trkpt lat="46.70451" lon="5.61635">
        <ele>496.7</ele>
      </trkpt>
      <trkpt lat="46.70471" lon="5.61642">
        <ele>496.2</ele>
      </trkpt>
      <trkpt lat="46.70492" lon="5.61648">
        <ele>496.3</ele>
      </trkpt>
      <trkpt lat="46.70527" lon="5.61657">
        <ele>498</ele>
      </trkpt>
      <trkpt lat="46.70547" lon="5.61662">
        <ele>498.7</ele>
      </trkpt>
      <trkpt lat="46.70567" lon="5.61666">
        <ele>499.8</ele>
      </trkpt>
      <trkpt lat="46.7058" lon="5.6167">
        <ele>501</ele>
      </trkpt>
      <trkpt lat="46.70593" lon="5.61675">
        <ele>501.8</ele>
      </trkpt>
      <trkpt lat="46.70607" lon="5.61683">
        <ele>502.5</ele>
      </trkpt>
      <trkpt lat="46.70616" lon="5.61692">
        <ele>503.2</ele>
      </trkpt>
      <trkpt lat="46.70627" lon="5.61705">
        <ele>504.5</ele>
      </trkpt>
      <trkpt lat="46.70637" lon="5.61723">
        <ele>505</ele>
      </trkpt>
      <trkpt lat="46.70643" lon="5.6174">
        <ele>505.6</ele>
      </trkpt>
      <trkpt lat="46.70651" lon="5.61758">
        <ele>505.9</ele>
      </trkpt>
      <trkpt lat="46.70658" lon="5.61775">
        <ele>505.4</ele>
      </trkpt>
      <trkpt lat="46.70664" lon="5.61792">
        <ele>504.6</ele>
      </trkpt>
      <trkpt lat="46.70667" lon="5.61809">
        <ele>503.7</ele>
      </trkpt>
      <trkpt lat="46.70668" lon="5.61829">
        <ele>502.2</ele>
      </trkpt>
      <trkpt lat="46.70668" lon="5.61851">
        <ele>501.3</ele>
      </trkpt>
      <trkpt lat="46.70671" lon="5.61873">
        <ele>500.3</ele>
      </trkpt>
      <trkpt lat="46.70675" lon="5.6189">
        <ele>499.7</ele>
      </trkpt>
      <trkpt lat="46.70683" lon="5.61906">
        <ele>500</ele>
      </trkpt>
      <trkpt lat="46.70692" lon="5.61919">
        <ele>500.2</ele>
      </trkpt>
      <trkpt lat="46.70707" lon="5.61936">
        <ele>500.5</ele>
      </trkpt>
      <trkpt lat="46.70721" lon="5.61949">
        <ele>500.4</ele>
      </trkpt>
      <trkpt lat="46.70735" lon="5.61963">
        <ele>500.4</ele>
      </trkpt>
      <trkpt lat="46.70744" lon="5.61977">
        <ele>501</ele>
      </trkpt>
      <trkpt lat="46.70754" lon="5.61996">
        <ele>502.2</ele>
      </trkpt>
      <trkpt lat="46.70762" lon="5.6201">
        <ele>502.6</ele>
      </trkpt>
      <trkpt lat="46.70774" lon="5.62036">
        <ele>503.4</ele>
      </trkpt>
      <trkpt lat="46.70791" lon="5.62062">
        <ele>503.8</ele>
      </trkpt>
      <trkpt lat="46.70799" lon="5.62072">
        <ele>503.3</ele>
      </trkpt>
      <trkpt lat="46.7081" lon="5.6208">
        <ele>503</ele>
      </trkpt>
      <trkpt lat="46.70823" lon="5.62086">
        <ele>503.8</ele>
      </trkpt>
      <trkpt lat="46.70837" lon="5.62091">
        <ele>505</ele>
      </trkpt>
      <trkpt lat="46.70851" lon="5.62093">
        <ele>505.9</ele>
      </trkpt>
      <trkpt lat="46.70884" lon="5.62096">
        <ele>507.2</ele>
      </trkpt>
      <trkpt lat="46.70901" lon="5.62097">
        <ele>507.2</ele>
      </trkpt>
      <trkpt lat="46.70911" lon="5.62096">
        <ele>506.9</ele>
      </trkpt>
      <trkpt lat="46.70935" lon="5.62096">
        <ele>506.5</ele>
      </trkpt>
      <trkpt lat="46.7095" lon="5.62095">
        <ele>506</ele>
      </trkpt>
      <trkpt lat="46.7097" lon="5.6209">
        <ele>504.5</ele>
      </trkpt>
      <trkpt lat="46.70997" lon="5.62082">
        <ele>502.7</ele>
      </trkpt>
      <trkpt lat="46.71029" lon="5.62073">
        <ele>501.8</ele>
      </trkpt>
      <trkpt lat="46.71063" lon="5.62068">
        <ele>501.7</ele>
      </trkpt>
      <trkpt lat="46.71099" lon="5.62065">
        <ele>500.8</ele>
      </trkpt>
      <trkpt lat="46.71148" lon="5.62069">
        <ele>498.6</ele>
      </trkpt>
      <trkpt lat="46.71204" lon="5.62076">
        <ele>495.7</ele>
      </trkpt>
      <trkpt lat="46.71279" lon="5.62088">
        <ele>492.6</ele>
      </trkpt>
      <trkpt lat="46.71273" lon="5.62126">
        <ele>497.6</ele>
      </trkpt>
      <trkpt lat="46.71261" lon="5.62169">
        <ele>490.3</ele>
      </trkpt>
      <trkpt lat="46.71256" lon="5.62194">
        <ele>483.5</ele>
      </trkpt>
      <trkpt lat="46.71259" lon="5.62203">
        <ele>480.8</ele>
      </trkpt>
      <trkpt lat="46.7127" lon="5.62203">
        <ele>479.8</ele>
      </trkpt>
      <trkpt lat="46.71313" lon="5.62189">
        <ele>478.5</ele>
      </trkpt>
      <trkpt lat="46.71342" lon="5.62181">
        <ele>475.1</ele>
      </trkpt>
      <trkpt lat="46.71356" lon="5.62165">
        <ele>472.7</ele>
      </trkpt>
      <trkpt lat="46.71377" lon="5.62149">
        <ele>472</ele>
      </trkpt>
      <trkpt lat="46.71386" lon="5.62147">
        <ele>470.1</ele>
      </trkpt>
      <trkpt lat="46.71394" lon="5.62156">
        <ele>467</ele>
      </trkpt>
      <trkpt lat="46.71378" lon="5.62189">
        <ele>464.4</ele>
      </trkpt>
      <trkpt lat="46.7134" lon="5.62257">
        <ele>462.3</ele>
      </trkpt>
      <trkpt lat="46.71315" lon="5.6229">
        <ele>457.7</ele>
      </trkpt>
      <trkpt lat="46.71297" lon="5.62318">
        <ele>450.1</ele>
      </trkpt>
      <trkpt lat="46.71252" lon="5.62437">
        <ele>426.3</ele>
      </trkpt>
      <trkpt lat="46.71241" lon="5.6249">
        <ele>417.8</ele>
      </trkpt>
      <trkpt lat="46.71229" lon="5.6256">
        <ele>405.9</ele>
      </trkpt>
      <trkpt lat="46.71225" lon="5.62619">
        <ele>396.4</ele>
      </trkpt>
      <trkpt lat="46.71221" lon="5.62653">
        <ele>391.5</ele>
      </trkpt>
      <trkpt lat="46.71216" lon="5.6268">
        <ele>388.6</ele>
      </trkpt>
      <trkpt lat="46.71213" lon="5.62692">
        <ele>387.3</ele>
      </trkpt>
      <trkpt lat="46.71207" lon="5.62703">
        <ele>386.5</ele>
      </trkpt>
      <trkpt lat="46.7121" lon="5.6271">
        <ele>386.2</ele>
      </trkpt>
      <trkpt lat="46.71209" lon="5.62726">
        <ele>384.6</ele>
      </trkpt>
      <trkpt lat="46.71204" lon="5.62731">
        <ele>383.1</ele>
      </trkpt>
      <trkpt lat="46.71214" lon="5.62736">
        <ele>382.2</ele>
      </trkpt>
      <trkpt lat="46.71233" lon="5.62756">
        <ele>377.8</ele>
      </trkpt>
      <trkpt lat="46.71241" lon="5.62781">
        <ele>372.7</ele>
      </trkpt>
      <trkpt lat="46.71239" lon="5.6282">
        <ele>365.8</ele>
      </trkpt>
      <trkpt lat="46.71235" lon="5.62837">
        <ele>363.5</ele>
      </trkpt>
      <trkpt lat="46.7122" lon="5.62859">
        <ele>360.4</ele>
      </trkpt>
      <trkpt lat="46.71216" lon="5.62883">
        <ele>357</ele>
      </trkpt>
      <trkpt lat="46.71218" lon="5.62915">
        <ele>353.3</ele>
      </trkpt>
      <trkpt lat="46.71218" lon="5.62945">
        <ele>350.1</ele>
      </trkpt>
      <trkpt lat="46.71221" lon="5.62981">
        <ele>344.2</ele>
      </trkpt>
      <trkpt lat="46.71217" lon="5.63013">
        <ele>340.7</ele>
      </trkpt>
      <trkpt lat="46.71211" lon="5.63028">
        <ele>338.5</ele>
      </trkpt>
      <trkpt lat="46.71202" lon="5.63036">
        <ele>335.6</ele>
      </trkpt>
      <trkpt lat="46.71195" lon="5.63044">
        <ele>332.8</ele>
      </trkpt>
      <trkpt lat="46.71197" lon="5.63053">
        <ele>329.9</ele>
      </trkpt>
      <trkpt lat="46.71203" lon="5.63063">
        <ele>327.2</ele>
      </trkpt>
      <trkpt lat="46.71213" lon="5.63074">
        <ele>324.8</ele>
      </trkpt>
      <trkpt lat="46.71214" lon="5.63084">
        <ele>322.2</ele>
      </trkpt>
      <trkpt lat="46.71208" lon="5.63094">
        <ele>318.7</ele>
      </trkpt>
      <trkpt lat="46.71193" lon="5.63096">
        <ele>316.7</ele>
      </trkpt>
      <trkpt lat="46.71176" lon="5.63116">
        <ele>308.8</ele>
      </trkpt>
      <trkpt lat="46.71161" lon="5.63141">
        <ele>301.7</ele>
      </trkpt>
      <trkpt lat="46.71154" lon="5.63161">
        <ele>298.8</ele>
      </trkpt>
      <trkpt lat="46.7115" lon="5.63173">
        <ele>297.5</ele>
      </trkpt>
      <trkpt lat="46.71178" lon="5.63197">
        <ele>295.1</ele>
      </trkpt>
      <trkpt lat="46.71189" lon="5.63208">
        <ele>294.2</ele>
      </trkpt>
      <trkpt lat="46.71194" lon="5.63213">
        <ele>294</ele>
      </trkpt>
      <trkpt lat="46.71199" lon="5.6322">
        <ele>293.7</ele>
      </trkpt>
      <trkpt lat="46.71202" lon="5.63227">
        <ele>293.3</ele>
      </trkpt>
      <trkpt lat="46.71203" lon="5.63232">
        <ele>293.1</ele>
      </trkpt>
      <trkpt lat="46.71205" lon="5.63241">
        <ele>292.8</ele>
      </trkpt>
      <trkpt lat="46.71207" lon="5.63252">
        <ele>292.5</ele>
      </trkpt>
      <trkpt lat="46.71208" lon="5.63271">
        <ele>292.5</ele>
      </trkpt>
      <trkpt lat="46.71208" lon="5.63293">
        <ele>292.5</ele>
      </trkpt>
      <trkpt lat="46.71205" lon="5.63316">
        <ele>292.6</ele>
      </trkpt>
      <trkpt lat="46.71204" lon="5.63332">
        <ele>292.7</ele>
      </trkpt>
      <trkpt lat="46.71205" lon="5.63351">
        <ele>292.8</ele>
      </trkpt>
      <trkpt lat="46.71209" lon="5.63368">
        <ele>292.9</ele>
      </trkpt>
      <trkpt lat="46.71215" lon="5.63388">
        <ele>293.3</ele>
      </trkpt>
      <trkpt lat="46.7122" lon="5.63401">
        <ele>292.8</ele>
      </trkpt>
      <trkpt lat="46.71225" lon="5.63413">
        <ele>292.7</ele>
      </trkpt>
      <trkpt lat="46.71238" lon="5.6344">
        <ele>291.9</ele>
      </trkpt>
      <trkpt lat="46.71241" lon="5.63451">
        <ele>291.6</ele>
      </trkpt>
      <trkpt lat="46.71242" lon="5.63455">
        <ele>291.5</ele>
      </trkpt>
      <trkpt lat="46.71244" lon="5.63471">
        <ele>291.2</ele>
      </trkpt>
      <trkpt lat="46.71243" lon="5.63488">
        <ele>291.3</ele>
      </trkpt>
      <trkpt lat="46.71239" lon="5.63513">
        <ele>291.4</ele>
      </trkpt>
      <trkpt lat="46.71235" lon="5.6354">
        <ele>291.5</ele>
      </trkpt>
      <trkpt lat="46.7123" lon="5.63577">
        <ele>291.4</ele>
      </trkpt>
      <trkpt lat="46.71237" lon="5.6358">
        <ele>291.5</ele>
      </trkpt>
      <trkpt lat="46.71249" lon="5.63585">
        <ele>292</ele>
      </trkpt>
      <trkpt lat="46.71255" lon="5.63588">
        <ele>291.9</ele>
      </trkpt>
      <trkpt lat="46.71253" lon="5.63613">
        <ele>292</ele>
      </trkpt>
      <trkpt lat="46.71253" lon="5.6363">
        <ele>292</ele>
      </trkpt>
      <trkpt lat="46.71245" lon="5.63645">
        <ele>292</ele>
      </trkpt>
      <trkpt lat="46.71242" lon="5.63663">
        <ele>292</ele>
      </trkpt>
      <trkpt lat="46.7124" lon="5.63686">
        <ele>292</ele>
      </trkpt>
      <trkpt lat="46.71235" lon="5.63713">
        <ele>292</ele>
      </trkpt>
      <trkpt lat="46.7123" lon="5.63735">
        <ele>292</ele>
      </trkpt>
      <trkpt lat="46.71224" lon="5.6375">
        <ele>292</ele>
      </trkpt>
      <trkpt lat="46.71221" lon="5.6376">
        <ele>292.4</ele>
      </trkpt>
      <trkpt lat="46.71216" lon="5.63774">
        <ele>292.9</ele>
      </trkpt>
      <trkpt lat="46.7121" lon="5.63798">
        <ele>292.3</ele>
      </trkpt>
      <trkpt lat="46.71201" lon="5.63822">
        <ele>292.5</ele>
      </trkpt>
      <trkpt lat="46.71187" lon="5.63854">
        <ele>293</ele>
      </trkpt>
      <trkpt lat="46.71181" lon="5.63868">
        <ele>293</ele>
      </trkpt>
      <trkpt lat="46.71174" lon="5.63885">
        <ele>293</ele>
      </trkpt>
      <trkpt lat="46.71169" lon="5.639">
        <ele>293</ele>
      </trkpt>
      <trkpt lat="46.71169" lon="5.63903">
        <ele>293</ele>
      </trkpt>
      <trkpt lat="46.71167" lon="5.63911">
        <ele>293</ele>
      </trkpt>
      <trkpt lat="46.71168" lon="5.63929">
        <ele>293</ele>
      </trkpt>
      <trkpt lat="46.71169" lon="5.63953">
        <ele>293.3</ele>
      </trkpt>
      <trkpt lat="46.71173" lon="5.63983">
        <ele>293.9</ele>
      </trkpt>
      <trkpt lat="46.71175" lon="5.63994">
        <ele>293.9</ele>
        <extensions>
          <visugpx:TrkExtension xmlns:visugpx="https://www.visugpx.com/editgpx/">
            <visugpx:node>30</visugpx:node>
            </visugpx:TrkExtension>
        </extensions>
      </trkpt>
    </trkseg>
  </trk>
</gpx>